GFSNW_sfc_thetae_000.txt.gz
Theta_e
311 311 310 308 307 306 309 310 304 319 320 304 305 301 304 304 307 310 307 306 305 304 306 306 307 306 310 316 314 311 314 310 305 308 313 314 312 310 310 304 306 307 306 306
311 310 310 308 307 306 305 307 309 319 317 300 301 304 304 306 306 307 306 304 306 308 306 304 308 309 314 315 313 312 314 308 302 305 310 313 309 310 311 313 314 308 303 305
310 310 309 308 307 306 306 308 302 309 312 310 304 304 305 304 308 307 308 306 307 305 305 308 306 309 312 315 314 328 320 313 308 302 307 311 308 309 310 311 306 306 305 311
310 310 309 308 307 306 307 310 305 310 303 304 305 305 306 306 303 308 308 305 305 305 303 304 305 309 313 313 318 316 316 313 312 310 312 312 312 311 310 307 309 305 309 310
310 309 309 308 307 305 309 306 305 309 306 309 308 305 303 305 308 307 305 303 306 307 306 307 306 308 311 311 315 315 317 312 313 309 312 311 309 312 311 309 309 309 310 310
308 308 308 308 306 305 308 310 310 307 303 305 304 306 307 305 308 310 309 309 307 305 308 311 313 314 318 317 314 315 316 313 313 306 310 310 306 310 311 311 312 311 309 315
306 306 306 307 306 305 305 309 306 303 299 302 303 306 307 307 309 307 310 310 310 313 319 319 316 315 316 318 318 320 319 319 313 307 310 299 311 319 317 315 314 315 324 320
305 305 305 306 307 306 304 308 305 304 300 303 305 307 305 312 312 308 310 311 315 319 315 309 307 307 309 311 315 317 319 318 310 305 304 308 313 315 312 315 312 318 322 326
304 305 305 305 306 305 304 308 307 304 301 301 307 305 308 307 306 309 310 315 318 315 310 307 302 300 304 303 307 315 316 324 311 309 302 299 312 319 324 322 308 326 326 329
304 304 305 305 305 305 303 305 309 303 300 305 307 302 303 309 308 308 312 312 312 314 306 303 301 301 309 303 303 306 309 311 307 305 304 308 319 323 324 307 314 328 331 331
304 304 304 304 305 304 303 304 309 302 299 303 306 307 305 307 307 304 311 312 312 310 303 302 302 303 306 309 311 311 308 308 305 308 305 301 322 319 312 326 330 332 331 330
303 304 304 304 304 304 303 302 307 306 299 301 306 307 308 307 310 308 312 308 312 312 307 308 310 307 309 310 304 315 307 313 311 314 313 327 332 330 333 333 331 333 331 330
303 303 303 303 303 303 302 300 303 303 301 303 305 304 313 313 312 313 303 310 315 313 318 310 309 307 308 307 305 310 315 319 314 314 318 322 326 330 331 332 330 332 331 329
302 302 302 303 303 303 302 300 303 302 301 297 303 313 310 314 314 313 313 311 315 317 314 309 306 305 311 306 309 308 312 316 313 312 319 317 325 328 330 330 331 329 329 328
302 302 303 302 303 303 303 304 304 304 299 296 300 307 311 312 313 312 313 312 313 310 307 307 305 309 309 310 309 308 313 311 310 308 321 320 321 330 330 328 327 328 325 324
302 303 303 303 302 303 302 300 307 309 306 298 297 310 310 312 311 310 311 311 311 310 308 308 309 313 310 303 302 312 315 316 323 319 325 326 325 324 324 325 325 325 325 325
303 303 304 303 303 303 300 298 304 307 309 298 297 301 309 310 310 309 308 312 310 309 308 307 307 309 310 304 300 309 314 316 317 321 318 319 319 320 326 325 325 323 325 325
304 304 305 304 304 302 302 307 305 307 303 301 296 300 304 312 306 304 309 306 308 308 306 307 306 308 308 302 307 310 313 314 314 314 318 320 316 326 326 326 324 321 320 322
304 304 304 306 305 303 307 309 308 309 303 297 299 296 296 310 306 309 309 309 301 307 303 303 305 303 300 306 309 310 312 313 313 316 313 318 311 319 324 324 323 320 319 321
304 304 303 302 306 310 308 305 302 302 302 301 298 303 299 305 305 304 306 306 301 298 302 306 303 302 309 310 312 314 315 314 315 314 313 317 321 322 322 322 321 321 319 319
304 302 300 307 309 305 303 298 297 300 297 300 302 302 300 307 300 302 307 303 303 297 301 299 298 298 306 312 314 318 316 315 316 317 319 321 323 323 322 321 321 320 320 318
299 299 303 307 302 301 297 297 299 298 296 302 300 304 307 305 309 304 307 301 302 295 305 300 296 304 312 309 311 314 315 315 316 317 317 318 322 325 323 322 320 319 320 320
305 302 298 299 299 290 291 290 295 297 304 305 306 303 305 307 307 303 304 299 297 305 300 297 301 312 311 311 311 313 315 314 315 316 317 318 323 325 323 321 319 320 319 318
299 295 286 292 292 293 297 297 300 304 306 304 302 302 303 308 303 304 297 302 304 298 295 297 307 313 313 318 313 314 312 315 314 315 318 322 322 322 322 321 319 317 315 315
296 296 287 294 299 300 300 301 301 304 306 303 301 302 306 304 301 303 300 297 296 299 299 305 309 313 315 318 318 319 317 315 321 321 321 321 321 319 318 315 315 313 311 312
297 296 294 299 298 297 300 300 300 304 304 304 305 299 296 296 300 297 296 296 294 296 306 311 312 312 314 319 320 321 321 323 324 322 320 318 316 313 311 311 310 311 312 311
294 296 299 297 298 298 299 300 300 306 302 299 298 291 291 297 297 297 302 299 300 304 310 312 315 315 317 319 320 320 320 320 319 318 316 314 312 311 309 306 308 309 309 310

GFSNW_sfc_thetae_003.txt.gz
Theta_e
310 311 309 308 307 306 306 306 300 313 316 300 300 296 300 300 303 305 304 304 302 299 301 299 301 302 306 311 311 305 307 303 298 302 309 311 305 302 300 294 295 298 300 303
310 310 309 308 307 305 300 300 305 315 313 296 297 300 300 302 302 303 302 302 304 303 299 297 304 306 311 312 310 306 310 298 294 297 303 306 303 304 303 303 302 295 295 300
310 310 309 308 307 306 302 302 301 306 310 307 302 300 300 300 305 303 305 303 304 301 298 301 301 303 310 311 314 325 314 304 297 294 301 306 305 306 305 300 296 295 297 306
310 309 308 308 307 306 303 305 304 306 300 302 304 304 301 299 300 307 305 302 303 300 296 298 299 304 305 309 316 308 308 301 303 306 309 308 309 307 308 302 301 299 300 308
309 308 308 308 307 305 305 302 300 303 301 305 303 303 303 302 302 304 304 301 303 302 298 302 300 302 302 304 309 303 307 303 305 305 310 310 308 310 311 310 307 303 306 307
306 306 307 307 306 304 303 305 306 302 300 300 299 301 302 303 305 304 307 307 303 301 303 310 309 307 307 308 311 307 307 303 304 298 308 308 301 309 311 310 311 306 304 309
305 305 306 307 306 305 300 304 302 299 295 298 299 303 305 305 307 306 309 308 306 310 315 314 312 308 307 311 311 312 311 312 304 299 304 295 306 314 314 313 316 317 314 314
304 305 306 305 306 305 300 303 301 299 295 299 300 303 302 306 308 308 309 311 314 313 310 304 302 301 302 307 310 309 313 310 303 300 299 305 308 314 310 310 314 319 314 316
304 304 305 304 305 305 301 303 307 300 296 297 301 301 304 301 302 305 310 315 314 311 305 301 295 295 300 300 303 308 308 311 306 301 296 295 305 315 319 317 306 323 320 317
305 304 305 304 304 304 301 300 307 300 295 300 301 300 298 303 303 303 308 309 311 310 301 297 296 296 303 298 298 299 301 302 302 301 299 303 312 318 320 303 308 325 322 321
303 303 304 304 304 303 300 298 307 299 294 296 300 302 300 301 303 302 306 307 307 307 299 298 298 297 300 300 304 304 300 297 297 300 297 295 328 322 314 321 326 326 327 324
303 303 303 303 303 302 302 297 302 302 295 295 301 301 303 303 304 299 309 305 306 310 305 304 304 301 305 305 299 314 304 308 306 306 306 319 323 325 328 330 326 325 325 325
302 303 302 302 302 302 301 297 299 299 296 298 299 300 307 308 306 306 298 309 312 311 313 307 305 304 305 301 303 307 309 315 310 310 314 317 320 323 325 329 327 327 327 326
302 302 302 302 302 302 302 297 301 299 296 293 300 310 309 312 310 309 308 309 310 311 312 306 302 301 307 303 307 304 308 313 308 310 315 316 318 323 324 325 327 325 325 324
303 303 303 302 302 302 302 301 302 303 296 291 294 301 306 308 311 309 309 309 308 306 304 302 302 308 306 306 305 303 309 310 307 305 317 312 317 321 325 321 322 322 321 321
303 303 303 303 303 302 300 299 305 305 303 295 291 304 306 310 310 308 307 308 308 307 304 303 306 312 306 300 298 311 316 318 318 313 319 321 322 322 325 321 322 323 322 321
304 304 304 305 304 301 299 298 304 306 307 296 292 297 308 310 309 306 306 307 306 306 304 303 304 305 307 301 296 306 310 315 318 317 315 314 318 317 323 322 323 322 322 320
304 304 304 305 305 302 300 306 306 305 301 299 292 297 303 310 304 303 307 303 305 306 304 304 303 304 305 298 304 306 311 313 313 315 317 316 315 318 322 321 321 318 317 317
304 304 305 305 303 302 306 309 308 307 303 295 298 294 294 308 305 307 308 308 299 306 301 301 302 300 298 303 304 307 309 308 311 313 318 317 313 317 319 319 318 316 315 317
304 302 301 299 309 311 310 303 301 301 300 300 295 300 296 303 302 303 304 306 301 296 300 303 298 297 303 307 309 311 311 312 313 310 311 312 310 312 314 317 319 317 316 318
302 300 299 305 311 305 302 298 296 299 296 299 299 300 299 307 300 300 305 300 302 295 298 298 297 296 301 306 308 311 314 314 313 314 314 318 313 311 311 317 319 318 317 316
297 297 301 303 302 300 296 296 299 297 296 301 299 303 305 305 309 302 304 299 300 294 304 300 295 301 306 309 308 310 314 313 313 315 313 318 317 318 317 319 317 317 318 319
303 299 298 298 299 288 291 290 294 297 304 306 304 302 306 308 307 301 302 297 296 305 298 296 301 306 311 312 315 313 312 314 314 313 313 313 322 322 320 318 316 317 316 315
297 295 284 290 290 292 295 296 297 302 302 303 302 301 303 306 302 303 295 300 302 296 294 296 304 308 311 312 314 316 314 311 311 311 312 315 319 320 319 319 318 314 311 312
296 296 287 291 297 300 299 301 301 304 304 302 301 302 305 302 300 302 299 296 294 296 295 301 307 310 309 310 312 314 312 316 315 311 318 319 319 318 318 317 315 313 310 306
296 296 292 298 297 297 299 300 300 304 303 303 306 298 294 294 297 296 295 295 293 295 301 305 309 310 311 312 314 313 308 309 319 318 317 316 314 313 311 311 311 312 310 312
294 293 299 297 298 298 298 300 301 306 301 299 299 291 290 296 294 296 300 296 298 302 304 308 310 310 311 313 315 316 315 315 314 314 313 311 311 310 309 307 309 310 310 311

GFSNW_sfc_thetae_006.txt.gz
Theta_e
310 310 309 308 307 305 300 295 293 305 308 295 291 291 297 300 299 302 300 299 297 296 297 294 295 297 301 307 307 301 303 297 295 299 305 308 303 300 296 291 289 293 295 299
310 309 308 307 306 305 298 290 295 307 303 289 289 293 297 299 299 299 299 298 300 299 295 291 297 301 307 307 308 301 302 295 291 295 298 303 300 300 298 295 294 292 291 296
309 308 308 307 306 306 296 293 294 299 300 297 294 293 295 297 304 301 301 299 298 296 294 294 294 297 304 307 308 322 310 295 295 292 295 301 301 305 303 297 292 292 294 302
307 308 308 307 306 306 298 296 295 296 291 295 296 296 299 297 297 301 302 299 298 296 289 293 293 297 300 304 312 306 303 296 299 301 306 307 306 305 307 299 298 296 298 305
306 307 307 307 306 305 300 294 293 295 293 296 294 295 296 299 301 299 298 296 301 298 293 295 294 295 294 299 307 303 302 295 303 300 306 308 306 308 309 309 309 301 307 306
305 305 306 306 305 301 293 297 297 294 294 291 290 292 299 301 303 305 307 306 299 298 298 300 304 302 301 301 305 304 305 298 297 295 304 304 299 304 308 309 310 307 302 308
305 305 305 305 305 302 293 294 294 291 290 292 294 297 302 301 303 302 308 307 301 306 309 308 306 302 303 303 302 306 305 304 298 295 297 290 303 310 311 311 318 314 311 313
304 305 305 304 305 305 293 294 294 291 287 294 296 297 298 300 301 302 306 309 311 311 303 298 295 296 296 300 303 301 307 304 300 296 294 300 306 309 309 308 313 317 315 317
305 304 304 304 304 304 294 293 298 293 288 290 296 295 297 293 293 298 305 311 311 305 298 296 290 291 294 294 297 301 302 306 301 297 294 292 302 311 316 313 305 320 317 324
304 304 304 304 304 304 296 293 297 292 287 292 293 293 291 296 295 296 301 302 305 304 294 292 291 292 298 293 293 295 294 296 296 297 296 300 317 324 319 298 300 320 318 317
303 303 303 303 303 303 297 292 295 292 287 289 294 297 294 295 295 294 298 301 301 303 296 292 292 292 294 294 299 297 294 292 294 296 294 294 320 322 311 314 322 322 321 321
302 302 302 302 302 302 300 289 296 296 289 289 294 296 298 298 298 294 297 300 299 306 298 299 298 299 299 298 296 305 298 302 300 300 299 315 318 321 323 327 322 322 320 322
302 302 302 302 302 301 300 292 292 292 288 290 290 293 299 300 300 300 292 306 309 307 305 300 299 297 299 295 298 300 305 309 304 304 310 313 318 320 324 325 324 325 325 323
303 302 303 302 302 302 301 295 293 292 289 285 291 301 297 303 301 301 299 305 308 307 307 300 297 296 301 298 301 300 304 307 304 305 309 313 317 321 316 321 325 325 324 321
303 303 303 303 303 303 300 294 295 295 290 285 288 296 299 300 301 301 301 300 301 301 301 299 295 303 301 300 299 300 303 303 302 302 311 310 312 318 322 321 320 321 320 319
303 303 304 304 304 303 294 291 297 298 300 293 285 295 297 301 302 301 300 300 300 301 300 301 304 307 302 294 296 307 311 312 312 310 318 318 320 321 323 321 320 321 320 319
303 304 304 304 305 296 292 294 299 302 301 295 288 288 298 305 301 299 298 300 299 300 300 299 300 303 302 296 292 301 309 311 312 314 315 313 317 316 321 320 320 319 318 317
303 304 304 305 305 301 293 297 304 301 298 297 288 289 296 305 301 300 298 296 299 299 300 300 299 299 299 293 298 301 306 313 313 313 314 312 312 318 319 318 318 316 315 315
303 304 304 300 296 293 298 309 307 298 297 294 293 289 291 303 301 302 302 300 293 298 295 297 297 294 292 297 299 300 304 304 306 309 312 315 311 312 316 316 316 314 313 314
304 299 297 298 300 312 307 299 298 299 297 297 288 292 290 296 295 295 296 298 296 291 295 297 293 292 296 300 301 302 304 306 307 307 307 308 309 313 314 314 315 315 315 315
296 295 297 299 311 299 299 293 293 291 294 293 293 292 291 299 293 293 296 293 295 290 293 293 291 289 295 299 302 303 305 307 306 308 310 312 310 314 313 314 316 314 315 315
293 294 296 295 295 296 292 291 292 291 291 298 296 299 297 298 300 295 296 293 294 288 297 294 289 297 303 306 308 310 305 307 308 309 310 313 312 312 313 314 314 315 315 316
296 292 289 292 291 281 289 287 292 294 300 301 300 298 298 299 299 298 296 292 291 298 293 292 296 300 306 306 308 310 312 310 309 308 311 317 314 315 317 316 314 315 315 317
291 288 277 282 281 286 292 294 293 300 301 300 298 298 295 298 295 297 295 295 297 292 293 294 301 303 306 305 308 309 308 308 308 307 307 315 315 318 317 318 316 315 313 312
290 294 279 287 292 294 295 294 294 300 299 298 294 295 296 294 294 296 296 294 293 293 290 296 303 306 306 307 308 308 308 306 310 305 306 315 316 316 315 314 313 311 310 309
292 289 288 291 291 291 294 292 292 296 297 297 296 292 292 293 294 293 293 293 292 295 300 302 303 303 304 307 308 309 308 311 311 312 313 315 316 314 310 311 308 307 307 306
291 288 291 292 291 294 291 294 296 299 295 292 292 288 289 295 292 292 298 294 297 300 300 299 299 301 304 307 310 312 311 309 309 309 308 308 309 310 309 308 310 312 312 313

GFSNW_sfc_thetae_009.txt.gz
Theta_e
309 309 308 307 306 305 299 291 294 303 301 291 289 289 294 298 296 297 297 297 296 294 295 292 293 294 299 304 303 300 300 294 293 296 303 305 299 297 294 291 289 290 292 294
308 308 308 307 305 305 299 289 292 304 301 288 287 291 296 296 295 296 295 296 298 297 293 290 294 298 304 303 301 297 299 293 290 293 296 300 298 298 294 293 290 290 289 292
307 307 308 307 305 305 295 293 293 297 298 293 293 293 296 297 303 299 299 298 298 296 293 292 293 295 301 302 303 321 307 292 293 292 294 299 300 303 299 294 291 290 292 293
306 307 307 307 306 305 297 295 292 294 290 293 293 294 298 298 298 300 299 297 297 295 289 291 292 295 297 302 309 306 299 294 295 296 299 304 304 305 303 298 296 294 296 299
305 306 307 306 305 304 296 292 292 293 291 292 291 292 293 297 300 298 297 298 303 300 291 293 293 293 292 295 302 303 303 293 300 297 304 305 304 305 307 306 305 300 300 301
304 305 306 306 305 299 292 293 294 293 292 290 290 290 296 299 301 303 305 305 301 298 300 303 300 297 300 300 301 300 303 296 294 292 301 301 295 303 306 306 309 307 302 304
304 304 304 304 305 300 291 291 292 290 287 291 292 296 298 298 301 299 305 306 301 305 311 307 301 300 298 299 300 303 303 299 295 293 294 288 298 307 309 311 316 313 309 311
305 304 304 304 305 304 292 291 292 289 286 291 293 294 295 296 297 299 303 308 309 308 302 297 294 294 293 297 301 299 303 301 297 294 292 297 303 306 307 304 310 312 311 316
304 304 304 304 304 304 292 291 293 291 287 287 295 292 295 290 291 296 302 308 306 305 295 294 288 288 291 293 295 298 302 302 300 296 292 291 299 314 323 314 301 314 316 318
303 303 303 303 303 303 294 291 292 290 286 290 290 290 290 293 292 293 297 299 303 305 292 291 289 290 296 293 292 291 292 293 293 296 294 299 313 319 321 298 299 315 321 320
302 302 303 302 302 302 295 291 292 290 285 287 292 295 291 293 293 291 294 298 299 301 295 292 290 290 292 292 299 296 293 291 292 294 293 293 318 317 306 311 319 317 318 319
302 302 302 302 302 302 299 288 293 293 287 287 292 294 296 296 296 292 291 296 297 302 295 295 295 296 297 295 294 302 297 300 296 296 298 313 319 321 320 322 320 317 319 320
304 303 303 302 302 301 300 291 289 289 286 288 288 292 296 295 296 298 289 298 303 301 303 299 296 292 297 294 296 297 302 306 304 302 309 314 318 319 321 322 322 323 323 321
303 302 302 303 302 303 301 295 290 289 287 286 288 298 295 300 297 297 298 299 302 303 303 301 296 292 298 295 298 297 301 304 302 303 307 312 316 317 316 322 323 323 320 319
302 303 303 303 303 303 300 292 293 293 288 284 286 293 296 298 297 298 297 295 297 298 297 297 297 296 298 298 296 297 301 301 301 301 309 308 311 316 321 319 319 318 317 315
303 303 303 304 304 303 293 290 294 295 296 291 284 291 294 298 298 296 295 295 297 299 297 299 299 306 301 295 292 302 307 309 309 309 313 313 315 318 321 317 321 320 317 316
303 303 304 304 304 294 292 292 296 300 300 294 287 287 295 301 300 297 296 297 297 298 297 297 299 303 304 297 292 300 309 313 314 315 315 312 316 313 320 320 319 317 317 315
303 303 304 304 305 300 292 295 302 299 294 297 287 287 295 301 297 296 296 294 294 295 296 298 296 297 299 294 300 302 303 308 312 314 313 311 309 313 316 317 318 314 312 312
302 303 304 299 295 291 295 308 304 297 295 292 292 289 290 299 297 298 302 297 291 295 293 295 296 292 292 298 300 301 303 309 308 309 311 313 311 314 314 314 315 313 311 312
304 299 296 297 298 308 306 297 297 298 297 296 286 289 291 294 294 293 294 296 293 290 293 294 291 290 295 304 303 302 302 307 303 304 303 307 308 311 312 313 313 314 313 313
295 290 293 294 305 297 298 293 292 293 294 292 290 290 289 296 292 292 294 292 294 291 293 291 288 290 301 305 306 307 307 303 303 307 307 311 310 311 312 312 313 313 313 311
292 293 296 293 293 295 290 291 293 291 291 296 295 297 294 297 298 294 294 292 292 288 296 296 290 300 301 303 305 307 308 308 307 306 307 310 311 310 313 313 312 313 314 312
294 291 287 290 290 280 287 288 292 293 299 301 300 297 296 297 297 295 294 291 291 298 292 292 298 303 303 303 304 307 309 309 308 307 308 311 310 312 314 313 314 314 313 314
289 286 275 282 280 285 289 291 291 298 300 299 298 296 293 295 292 296 294 296 295 290 290 291 298 298 301 303 305 306 306 308 307 308 308 312 310 311 315 316 314 314 313 313
288 290 278 285 291 293 293 293 293 297 295 295 293 293 293 293 292 294 296 292 292 293 291 296 302 303 303 302 304 305 306 308 308 307 306 311 312 311 309 311 311 312 311 311
290 289 287 289 289 291 294 292 292 294 293 294 293 288 288 292 294 292 291 292 292 294 299 301 302 299 300 301 303 306 309 307 308 305 311 313 313 311 308 309 310 310 310 308
290 288 289 288 288 289 291 292 295 297 293 290 289 284 289 295 291 290 297 294 296 298 299 302 300 301 303 302 305 311 309 307 308 310 310 309 310 311 309 308 309 310 310 310

GFSNW_sfc_thetae_012.txt.gz
Theta_e
308 308 307 307 306 305 299 291 293 302 299 291 287 288 292 297 295 295 294 295 294 293 293 290 291 292 296 301 300 298 297 292 291 295 300 303 298 296 293 290 288 289 289 292
307 307 307 306 305 305 296 291 293 303 299 285 286 290 293 295 294 295 294 294 296 295 292 290 293 296 301 301 298 296 298 292 288 291 294 298 298 296 293 291 291 291 290 292
306 307 307 306 305 305 295 294 293 296 296 292 292 293 295 296 302 298 298 295 295 293 291 292 292 294 299 301 300 321 305 290 291 288 292 296 299 301 297 294 290 289 291 294
305 306 306 306 305 305 296 294 291 292 289 292 292 293 296 296 296 301 298 296 297 297 289 289 291 294 296 300 308 302 298 294 291 293 296 301 303 303 299 297 296 296 298 296
304 305 305 306 305 303 294 292 291 291 290 291 288 292 292 296 299 298 296 298 302 300 291 291 292 294 291 294 299 300 300 293 298 295 303 304 303 305 304 304 301 299 300 299
305 304 304 305 304 298 291 291 292 292 290 289 288 290 294 298 299 301 303 303 300 298 297 305 306 301 297 294 298 298 301 295 293 291 299 300 294 302 304 305 306 305 301 305
305 304 304 304 304 299 289 289 290 289 285 290 291 295 296 297 297 296 302 303 300 304 308 305 303 298 297 296 298 300 300 296 293 291 293 287 296 305 308 309 314 313 310 311
304 303 304 304 304 304 291 290 290 288 285 290 291 293 293 295 295 296 301 305 306 305 301 295 293 292 292 297 299 298 300 300 296 292 290 296 302 308 311 305 305 313 312 313
303 303 303 303 303 304 292 290 290 290 286 285 293 290 292 290 289 294 299 304 303 304 294 293 288 287 289 291 293 299 300 300 299 295 291 290 299 313 321 317 300 314 315 315
303 302 302 303 303 303 292 290 289 289 285 288 290 288 289 291 290 290 294 296 300 301 291 289 289 289 294 291 290 290 290 292 292 295 294 298 308 318 319 299 301 317 319 319
302 303 302 302 302 302 294 290 290 288 284 285 291 293 290 290 291 290 292 295 297 297 294 292 289 289 291 293 297 294 291 290 290 293 292 292 316 316 305 308 316 318 320 317
304 303 303 303 303 302 297 287 292 291 286 286 289 292 294 294 294 291 289 294 295 299 294 293 293 294 295 294 293 301 296 297 293 295 296 309 319 319 321 321 318 318 319 319
304 303 302 302 302 303 300 291 288 288 285 286 286 290 295 293 295 296 289 292 300 298 299 296 295 291 295 292 295 297 301 305 302 301 306 312 318 319 318 322 321 322 321 320
302 302 302 303 302 303 302 295 289 288 285 285 288 296 293 297 294 295 294 296 299 300 300 296 294 292 296 293 296 296 300 304 302 302 308 311 314 316 317 321 321 320 319 319
302 303 303 303 304 304 300 292 291 291 288 283 285 292 294 296 295 295 294 291 291 293 293 295 296 296 296 297 294 295 302 301 301 301 307 308 309 317 320 319 319 318 316 314
303 303 303 303 304 304 293 289 292 293 295 287 283 290 292 296 295 294 292 291 292 294 294 293 296 300 300 298 292 299 305 308 306 307 312 312 315 319 321 318 319 319 316 315
302 303 303 303 304 296 292 291 295 297 294 289 286 286 294 297 297 294 293 293 294 296 295 294 296 298 301 295 292 300 303 305 314 313 312 313 318 314 320 319 319 316 315 314
303 302 303 303 304 300 292 294 301 298 292 296 286 286 291 299 295 294 294 292 293 293 294 294 293 297 298 293 298 302 304 306 309 315 316 313 314 317 317 317 316 313 312 312
302 303 304 298 295 291 295 307 304 296 294 291 292 289 287 297 294 295 297 294 290 293 291 292 294 291 290 296 301 301 303 303 306 312 314 313 312 313 315 315 313 311 311 311
303 298 295 296 297 307 305 300 297 296 298 295 286 287 287 292 293 292 292 293 291 289 292 293 290 289 295 302 305 303 304 303 305 304 304 308 309 311 312 313 313 313 312 311
292 290 293 292 302 297 297 293 292 293 292 292 289 288 288 294 292 291 292 290 291 288 293 292 288 291 299 303 305 305 306 307 307 303 305 307 309 310 312 312 314 313 312 312
295 293 297 293 292 294 291 290 293 290 290 295 294 296 291 294 297 293 292 290 291 287 297 294 289 299 305 302 304 305 305 307 308 308 307 305 309 310 312 313 313 313 314 312
295 290 287 288 286 280 285 286 290 292 296 300 299 296 294 295 296 294 291 289 289 296 291 291 297 302 304 301 303 304 306 307 308 308 309 306 307 311 311 312 314 314 314 314
288 284 276 281 279 284 287 290 290 298 300 299 298 296 292 293 291 293 293 294 293 290 290 291 298 302 303 301 303 302 303 306 307 307 309 306 308 310 313 314 314 314 313 313
287 288 278 285 290 290 294 294 293 294 295 294 293 292 291 291 290 293 295 293 290 293 291 296 301 303 304 302 301 301 303 305 308 308 307 308 311 311 311 312 313 314 313 313
289 287 286 287 287 288 293 290 294 294 292 292 291 287 287 292 293 292 292 291 290 294 298 300 302 301 301 301 302 303 306 309 308 308 306 309 309 308 308 309 309 310 311 311
289 286 287 286 286 286 289 290 293 297 296 289 288 284 288 293 290 291 296 293 295 297 298 299 302 302 303 305 306 308 308 308 309 310 307 307 308 309 309 307 309 310 311 312

GFSNW_sfc_thetae_015.txt.gz
Theta_e
306 307 307 307 305 304 302 300 299 309 306 300 297 297 297 298 299 300 300 300 299 298 299 298 299 299 302 305 307 304 308 305 301 302 307 308 307 306 307 302 300 301 302 302
306 307 307 306 305 305 300 301 302 310 306 293 296 297 297 299 300 300 300 299 300 301 299 298 299 300 305 305 306 307 307 304 299 300 304 306 306 306 306 306 306 303 300 303
305 306 307 306 305 305 303 303 299 304 304 300 298 299 299 298 305 302 302 301 303 302 300 300 299 300 303 304 306 320 312 306 305 298 301 306 305 304 305 307 303 303 303 306
305 306 307 306 305 304 303 302 298 298 296 299 299 299 300 300 300 305 306 301 305 303 299 298 298 300 302 304 313 310 311 306 304 305 303 304 306 308 304 306 309 305 309 307
306 305 305 306 305 303 302 300 299 298 298 296 297 298 299 300 301 303 302 303 305 305 301 300 300 304 303 302 308 310 310 306 306 305 307 304 303 307 309 308 307 307 308 310
304 304 304 305 304 301 299 298 300 299 293 296 296 298 300 300 303 305 307 305 305 304 304 308 310 310 310 308 304 306 310 310 306 301 306 307 303 308 310 311 313 312 309 316
304 304 304 305 304 299 298 297 298 298 292 297 297 298 299 300 300 301 304 306 306 309 312 312 309 307 308 308 307 306 309 310 307 303 306 297 306 313 313 313 317 318 320 319
303 304 304 303 304 302 299 298 298 298 293 296 296 297 298 300 301 300 302 306 310 312 310 304 303 302 303 305 307 306 309 311 307 302 302 304 308 315 317 314 314 322 319 319
303 303 303 303 303 302 299 297 297 298 295 293 296 296 298 299 299 300 303 308 308 313 306 302 298 295 300 299 302 307 308 311 308 305 299 296 308 320 324 323 308 321 322 322
302 303 304 303 303 301 299 297 296 297 293 295 297 297 298 299 299 299 301 301 307 310 304 300 298 298 301 297 299 302 303 305 302 304 304 307 312 321 323 307 309 324 324 325
303 303 303 303 303 302 299 297 298 296 292 294 295 298 297 298 299 298 300 301 305 306 303 301 300 299 302 303 306 303 302 301 300 303 302 300 321 321 313 320 329 326 327 328
304 303 303 303 303 302 299 295 298 297 294 294 295 297 299 298 299 299 299 302 303 309 304 304 304 303 305 304 301 310 304 307 304 305 306 318 323 323 326 326 324 327 329 328
303 302 302 302 302 303 301 297 297 297 293 294 293 297 301 300 299 302 296 301 307 309 310 306 305 300 305 304 305 307 311 315 314 312 316 319 322 325 326 328 329 330 330 329
302 302 303 302 303 303 303 298 298 296 293 290 296 301 300 302 301 300 300 302 308 310 310 307 304 302 304 304 304 305 310 313 311 313 317 319 322 323 325 327 327 327 329 327
303 302 302 302 303 304 302 300 300 299 294 290 294 299 301 302 302 300 300 299 299 300 301 305 304 306 304 307 305 304 311 311 312 312 317 319 319 323 326 326 324 325 325 321
303 302 303 303 303 304 300 298 299 300 299 293 291 299 299 302 302 300 299 299 298 300 302 304 306 307 307 304 303 306 311 312 316 315 320 322 324 325 326 325 325 325 325 322
302 303 303 303 303 301 297 298 301 299 300 295 293 296 303 303 303 301 300 300 301 302 304 303 303 305 306 305 300 308 310 311 312 318 320 319 321 321 325 326 325 322 324 323
303 303 303 303 304 302 300 303 302 301 299 299 292 295 300 306 304 302 303 300 301 302 303 304 302 305 306 299 305 309 309 311 312 314 319 319 321 323 323 324 324 323 321 320
302 303 304 303 300 300 301 307 306 304 299 293 294 294 296 303 303 305 307 304 298 302 300 300 302 299 297 303 306 308 310 309 308 312 317 318 318 320 322 322 319 320 321 321
301 302 300 298 302 307 306 301 297 296 299 297 292 296 296 300 303 302 303 304 302 298 301 302 298 297 305 307 309 310 310 312 313 311 314 315 314 317 321 322 323 323 322 321
298 296 297 299 302 304 299 295 294 295 292 296 297 297 296 302 300 300 302 301 302 296 299 298 297 296 303 307 308 310 311 312 313 315 315 314 312 314 316 321 323 323 323 321
297 296 299 299 299 297 293 292 294 294 293 299 298 299 299 303 305 302 302 298 300 293 304 298 294 301 306 307 307 309 310 310 311 314 315 315 316 315 315 319 323 324 324 323
299 296 295 295 294 287 287 286 291 292 299 303 302 299 304 304 305 301 300 295 295 303 297 296 299 304 306 307 307 308 310 309 310 312 315 316 317 316 316 318 322 324 323 323
294 291 284 289 287 290 292 294 296 300 301 301 299 299 301 303 301 302 294 299 300 294 292 293 298 302 304 306 306 307 308 308 309 312 313 315 316 315 317 319 322 322 322 322
293 293 285 288 294 295 294 297 297 299 300 300 300 301 301 301 298 300 298 294 291 294 290 293 300 303 304 305 306 307 308 309 310 311 311 313 315 316 320 321 322 323 322 321
293 292 291 294 292 294 295 298 297 300 302 302 302 297 295 294 294 293 293 292 291 292 297 301 304 304 304 305 305 306 308 309 311 310 312 315 317 315 314 317 318 319 320 318
292 292 295 293 293 293 296 300 301 302 301 298 298 292 291 297 292 292 297 296 297 298 300 302 305 303 303 305 306 307 309 310 311 312 313 312 313 315 314 311 314 316 317 317

GFSNW_sfc_thetae_018.txt.gz
Theta_e
306 306 307 307 306 305 308 311 304 313 316 302 305 301 302 300 304 305 303 305 304 304 303 304 305 305 308 308 312 309 313 310 304 306 311 312 312 311 312 305 306 307 306 306
306 307 307 306 305 305 310 310 308 315 314 298 299 303 301 302 302 303 302 302 305 305 304 302 304 305 308 308 311 312 313 308 303 305 309 311 308 311 312 313 314 307 304 306
307 307 307 306 305 305 309 311 302 306 309 310 303 301 300 300 306 304 304 304 305 304 304 307 304 305 306 308 310 320 316 312 307 302 306 310 307 308 311 312 307 307 308 310
305 305 306 306 305 305 309 312 306 305 300 304 304 305 303 300 302 305 306 304 303 303 302 304 304 305 306 308 311 314 314 309 310 309 309 309 308 308 309 310 311 308 310 310
305 305 306 306 305 304 310 307 307 308 307 304 304 301 302 301 303 305 304 304 306 307 304 304 303 307 308 307 312 313 315 310 311 307 309 310 307 308 311 312 312 312 312 312
305 305 305 306 304 305 307 309 310 307 299 304 301 303 304 303 306 308 310 308 308 306 308 311 313 315 316 314 311 309 312 311 309 303 309 309 305 308 309 312 314 313 309 316
304 304 305 305 305 303 307 305 306 303 300 303 304 303 305 304 306 305 309 309 308 313 317 317 316 314 314 314 314 315 310 314 311 304 308 299 309 317 316 312 314 318 318 322
304 304 304 304 305 303 306 306 305 303 299 302 302 303 304 306 307 306 306 309 314 316 314 307 304 304 307 308 311 313 313 310 305 303 302 306 308 314 314 314 313 321 321 325
303 304 305 305 304 303 306 305 305 304 299 298 301 301 303 303 304 305 306 312 314 315 309 306 300 297 301 301 304 312 311 314 309 306 300 298 309 323 328 327 311 326 326 326
304 304 304 304 304 304 303 304 305 302 297 301 302 300 300 305 304 303 306 307 309 314 306 302 300 299 305 300 301 304 305 307 302 302 302 306 318 325 327 312 314 330 329 329
304 304 303 304 304 303 302 303 305 301 299 300 300 303 303 304 304 300 305 303 306 307 303 303 304 302 306 304 307 306 304 303 301 303 301 300 323 323 317 326 332 333 333 333
303 303 303 303 303 304 303 302 306 303 298 300 302 303 304 304 305 305 306 305 309 311 306 309 309 305 308 306 301 316 306 310 307 307 306 324 327 329 333 332 332 334 334 334
303 303 303 303 303 304 303 302 304 303 300 302 302 303 307 307 305 307 302 307 313 313 314 311 310 306 311 304 305 311 316 320 312 314 318 322 326 331 332 334 333 337 335 335
303 303 303 303 303 304 304 301 306 303 301 297 302 307 306 308 308 306 305 307 315 314 312 311 309 305 311 308 310 310 315 319 315 315 321 324 327 330 331 331 334 333 335 334
303 302 302 303 303 304 304 305 307 306 300 298 302 307 308 308 308 306 306 305 305 306 305 307 306 312 310 311 311 309 317 315 313 311 322 323 326 330 330 331 331 332 331 327
302 303 303 303 303 304 305 302 307 308 306 300 299 306 306 309 310 309 307 307 305 305 305 307 310 311 309 306 305 314 315 316 318 317 324 325 328 329 331 329 330 332 332 325
302 303 303 303 303 303 303 301 304 303 307 301 300 302 309 311 309 308 307 307 307 306 306 304 305 308 308 305 303 312 313 315 316 318 321 321 323 324 329 331 329 327 332 329
303 303 303 303 303 304 304 309 303 305 303 304 300 302 304 311 306 305 310 306 306 307 305 308 304 306 306 300 306 310 313 315 315 316 317 321 322 325 327 330 329 328 328 328
302 303 305 307 305 303 303 307 305 309 303 299 302 300 297 310 310 312 310 309 301 310 303 304 304 301 299 304 307 311 313 313 314 316 316 317 320 320 322 325 326 324 326 327
301 305 303 300 305 305 307 305 301 302 302 303 300 305 301 306 307 305 307 309 304 301 304 310 302 300 306 310 312 315 314 315 316 314 311 315 315 317 318 321 325 326 325 328
304 301 301 306 304 307 304 297 297 300 296 302 305 305 302 310 304 305 309 306 307 298 303 301 300 299 305 310 312 314 315 316 316 317 318 319 319 317 316 316 320 326 328 327
302 302 304 307 303 301 295 294 297 297 298 303 303 306 307 309 312 306 308 302 305 295 307 301 297 306 308 309 311 312 314 314 315 317 318 318 319 320 318 317 319 325 327 329
304 301 300 300 299 288 290 289 295 298 305 306 307 304 308 310 310 305 304 298 298 308 300 299 300 302 306 309 311 312 314 315 315 315 317 319 319 320 320 318 321 325 328 328
299 295 287 293 292 295 296 296 299 300 305 304 304 305 305 308 304 307 298 303 304 296 294 295 297 303 304 308 311 312 312 314 314 314 316 318 319 321 322 320 321 325 326 328
297 296 288 292 300 302 303 303 305 306 307 305 304 304 304 304 300 304 301 297 294 296 293 296 302 304 307 307 309 310 311 312 312 313 314 317 319 321 321 323 325 326 327 327
299 297 294 299 298 297 299 300 302 307 306 308 305 301 298 296 299 296 295 294 294 294 299 303 305 307 306 307 306 306 309 310 311 313 314 317 320 321 322 325 327 328 326 323
296 296 301 300 301 301 303 307 305 308 304 298 302 294 294 302 296 294 300 297 301 303 305 306 308 306 307 305 306 308 309 309 313 314 314 317 317 317 317 316 318 321 321 322

GFSNW_sfc_thetae_021.txt.gz
Theta_e
308 308 307 307 306 305 309 314 305 315 316 303 306 303 307 301 307 308 307 308 306 307 308 307 308 308 311 314 314 311 314 312 307 309 314 314 313 312 312 306 306 308 307 305
307 307 307 307 305 305 310 312 310 315 314 300 303 307 305 306 306 306 306 306 308 309 306 306 308 309 312 311 313 312 315 309 304 306 310 313 309 311 312 314 314 309 305 306
307 307 307 307 306 305 309 313 303 308 308 310 307 305 304 303 307 306 307 307 308 308 307 310 307 307 309 310 312 324 319 312 309 303 306 311 309 309 311 311 307 308 307 311
306 307 307 307 306 305 311 313 309 310 301 305 306 307 305 303 303 307 309 306 306 306 305 307 306 309 309 310 311 313 315 310 311 311 310 310 310 309 310 309 311 308 310 309
306 306 307 307 305 304 312 309 309 309 310 309 306 303 305 304 305 307 305 305 306 307 305 307 306 309 310 310 313 312 316 310 312 309 311 309 308 309 310 311 311 312 313 312
305 305 306 306 305 305 311 311 315 311 304 305 305 306 306 305 307 309 311 309 308 307 309 313 316 317 318 317 315 313 314 312 309 305 309 309 305 309 309 311 314 314 310 316
305 305 306 306 305 304 309 309 309 306 302 305 304 305 306 306 308 308 309 312 310 316 319 317 315 314 313 314 315 317 314 315 312 306 309 299 311 316 315 312 313 316 317 319
304 306 306 306 306 305 308 309 308 306 302 306 305 306 306 308 309 308 309 311 317 319 314 308 306 306 307 308 310 313 315 312 306 303 302 307 310 313 313 311 312 318 317 321
305 306 305 305 306 305 307 309 310 307 302 302 305 304 306 305 306 307 308 314 318 315 309 306 301 300 304 304 305 312 312 315 307 305 300 299 310 317 322 319 310 321 323 324
305 305 305 305 305 305 305 308 310 306 301 306 305 302 304 307 307 306 310 311 310 314 306 303 302 301 308 302 304 305 305 307 302 302 302 305 315 324 326 308 315 333 333 331
304 304 305 305 305 305 305 307 309 304 303 305 304 305 306 307 307 304 309 308 308 309 304 303 304 304 306 305 309 309 307 304 303 303 301 299 321 322 315 330 335 336 336 336
304 304 304 305 304 305 305 307 310 308 301 303 306 306 308 309 310 308 311 308 312 310 306 307 308 306 308 307 302 312 307 311 309 309 307 328 329 332 335 336 335 337 338 337
305 303 303 304 304 304 305 306 308 308 304 305 305 305 309 309 308 312 305 308 318 316 318 314 311 307 312 305 306 309 315 317 313 313 317 324 327 332 336 336 337 339 338 338
303 304 303 303 304 304 304 306 309 308 305 300 305 312 309 313 311 309 310 310 316 318 315 309 309 307 314 309 311 312 315 319 314 314 324 324 329 331 333 335 337 337 339 338
303 303 304 303 304 304 306 309 311 313 304 301 304 309 310 312 311 308 310 309 309 309 308 306 305 310 312 312 311 309 314 316 312 313 324 324 326 331 333 333 333 336 334 333
302 303 303 304 304 304 307 306 312 316 311 304 302 311 308 311 311 310 310 310 309 308 307 307 309 315 311 305 305 313 316 319 320 317 324 327 329 330 332 332 332 334 334 333
302 303 303 304 304 306 304 303 306 306 312 304 302 303 310 312 312 311 311 313 309 308 306 305 307 308 309 306 303 315 315 317 320 321 322 323 323 324 329 331 332 330 333 330
303 303 304 304 304 305 305 310 305 306 307 307 302 302 305 313 306 305 310 307 307 308 306 308 306 307 308 302 308 311 314 317 317 318 320 321 324 325 327 329 329 329 328 327
303 303 304 308 306 304 306 307 306 311 307 302 303 300 299 311 307 309 308 309 303 309 304 305 306 304 300 305 308 309 312 313 314 317 319 320 319 320 322 323 325 327 327 326
303 304 304 300 306 307 307 308 303 304 305 306 302 309 301 307 308 304 306 306 302 299 303 308 303 303 309 309 311 315 315 315 316 314 314 315 317 320 317 318 321 326 327 328
304 304 301 307 307 308 304 299 300 301 300 304 305 307 303 311 303 306 309 306 307 299 304 302 300 301 307 311 311 315 315 317 317 318 318 319 319 317 318 316 317 319 328 327
302 303 306 311 305 301 297 298 301 298 297 304 302 305 307 308 312 308 307 301 304 296 308 303 298 308 314 313 312 312 315 315 315 317 317 318 318 320 320 319 319 320 325 329
308 304 302 299 298 289 291 292 296 296 303 310 310 305 308 312 312 307 306 299 299 308 299 299 304 309 310 311 311 311 313 314 316 316 317 318 318 319 320 320 319 321 323 325
300 298 287 294 293 295 300 303 300 309 309 308 304 303 304 309 306 308 300 304 306 298 296 297 307 309 310 311 312 311 311 312 314 315 317 318 318 319 320 322 322 319 324 326
298 298 289 293 299 303 301 303 304 306 307 304 303 304 303 303 301 304 303 298 296 297 298 305 308 311 311 311 312 311 311 311 312 316 316 317 318 321 322 324 323 322 324 326
301 300 296 300 298 298 301 303 302 309 307 305 304 300 298 297 299 296 296 295 295 301 308 308 309 309 310 310 311 310 308 310 310 313 316 318 319 321 324 325 325 325 327 327
298 298 302 301 301 300 302 309 308 309 303 300 300 295 296 300 297 295 301 299 304 303 305 306 310 309 309 310 309 308 309 309 312 313 316 317 322 327 326 323 327 327 328 327

GFSNW_sfc_thetae_024.txt.gz
Theta_e
308 308 308 307 306 305 310 314 305 317 315 302 303 300 304 306 309 310 308 309 309 308 310 308 307 308 311 316 316 312 315 311 306 308 314 315 312 310 311 305 306 307 307 306
308 308 308 307 306 305 306 312 311 316 312 297 300 304 304 307 308 307 307 306 309 310 308 306 308 309 313 314 313 312 315 309 303 306 310 313 309 311 310 311 314 309 305 303
308 308 308 307 306 306 307 313 303 307 307 307 305 305 304 305 308 307 309 308 309 308 307 309 309 308 311 311 311 324 318 313 308 302 306 310 308 310 311 310 306 307 306 312
307 308 308 308 307 306 308 313 310 311 300 301 304 307 307 304 304 307 309 306 307 306 305 306 306 310 311 310 315 313 314 310 310 309 310 310 310 310 310 308 309 306 308 311
307 308 308 307 306 304 311 307 308 312 308 310 306 303 305 304 306 307 305 305 307 308 306 308 307 308 310 308 311 312 315 310 310 307 310 310 307 309 310 309 310 310 310 311
306 307 308 307 306 305 311 311 312 310 306 306 305 304 304 305 308 309 311 309 308 307 309 313 316 317 318 318 315 315 315 312 310 304 309 309 305 308 309 310 312 311 308 316
306 307 307 307 306 305 307 311 308 305 302 306 304 305 307 306 308 308 310 312 312 316 321 318 316 314 313 315 315 317 316 318 313 306 309 298 309 315 314 313 314 314 316 320
306 306 306 307 307 305 306 311 307 306 302 306 306 306 306 308 310 308 311 312 318 319 315 309 306 305 306 307 310 312 316 313 307 304 302 306 309 313 313 312 312 324 322 322
306 306 306 306 307 305 307 310 310 307 303 303 306 305 307 306 307 308 310 314 318 316 310 306 301 299 303 302 305 311 311 320 308 305 300 298 310 314 320 321 309 329 323 317
306 305 305 306 306 305 305 309 311 307 302 306 305 303 304 309 307 306 310 310 311 313 305 300 300 300 306 302 303 306 306 307 303 303 300 304 314 315 323 307 317 332 326 322
306 305 305 306 306 306 306 308 312 305 303 306 306 306 305 307 307 304 309 309 309 308 302 301 302 303 306 306 310 308 307 304 302 305 301 298 315 319 317 330 335 335 334 332
305 305 304 305 305 306 306 307 311 310 302 303 308 307 308 308 311 308 310 309 310 311 306 306 305 302 307 312 302 314 305 312 308 310 308 330 331 332 336 337 335 336 337 336
304 305 305 304 304 305 305 305 310 309 305 306 305 304 310 309 308 313 306 311 315 317 320 313 311 307 309 305 306 310 314 319 313 315 320 325 330 332 333 336 335 336 337 337
304 304 304 304 304 304 305 305 310 309 306 300 305 314 310 313 311 308 310 310 313 315 316 310 309 308 314 309 311 310 314 318 315 315 323 323 327 330 331 333 337 337 339 339
303 303 304 304 304 305 305 309 312 313 305 301 304 311 311 312 312 309 308 309 310 309 306 304 304 308 308 310 311 308 316 315 313 314 322 325 325 330 331 331 331 334 335 335
303 303 304 304 304 305 306 307 312 313 311 303 301 312 310 311 310 309 308 309 309 308 306 306 308 312 311 305 305 313 315 320 321 317 321 320 328 328 330 329 331 334 334 334
303 303 304 304 304 304 304 303 308 306 311 304 302 303 309 312 310 309 309 311 308 308 306 305 306 308 309 305 302 313 316 318 320 321 321 320 323 322 326 327 330 331 333 331
303 304 304 305 305 305 305 310 307 306 307 307 301 303 306 312 305 305 310 307 308 307 305 306 305 306 307 302 309 311 314 316 317 317 319 320 321 324 323 325 326 329 330 329
303 304 304 306 306 305 308 309 308 311 307 302 302 300 300 310 307 309 309 308 302 308 303 304 306 304 301 306 310 310 311 313 313 316 316 318 317 319 322 322 324 324 328 329
303 302 303 302 308 310 308 308 306 305 306 306 301 307 303 308 306 306 306 307 303 299 303 307 303 301 310 310 311 314 315 315 314 312 311 314 316 319 321 319 321 322 323 328
304 302 303 310 310 308 307 301 300 302 300 303 303 305 305 311 302 305 308 305 306 299 302 301 301 300 308 313 315 316 314 314 314 315 316 316 316 314 318 319 320 320 325 327
302 302 307 309 304 302 298 297 301 300 297 305 302 305 306 309 312 308 307 302 302 297 309 302 298 307 314 314 314 315 316 316 316 316 315 315 316 317 318 317 319 320 322 326
308 304 302 299 300 289 292 291 296 297 303 307 306 306 307 309 310 306 304 299 299 307 300 298 306 310 312 313 314 313 314 314 315 315 316 316 316 317 318 318 320 322 324 326
301 298 288 294 294 296 298 299 300 306 306 306 306 305 306 307 306 306 299 303 304 298 295 297 308 309 310 312 313 312 311 313 313 313 315 316 315 316 318 319 320 320 322 323
299 298 289 293 300 303 303 305 306 307 307 306 305 305 304 304 302 303 302 298 296 299 299 304 308 311 311 311 312 312 312 311 312 312 312 313 315 317 319 322 323 323 324 325
300 299 296 300 299 301 302 303 303 307 306 307 306 301 300 299 300 297 297 296 295 300 305 306 309 311 312 312 312 312 312 313 312 312 312 314 315 317 320 323 323 325 321 323
297 297 302 302 301 303 303 306 306 311 305 301 301 297 296 303 298 296 301 300 303 305 307 307 311 309 309 309 310 311 311 310 312 312 312 315 317 319 321 319 318 325 323 328

GFSNW_sfc_thetae_027.txt.gz
Theta_e
309 308 308 308 307 305 307 310 304 315 312 299 300 295 300 301 304 307 305 305 304 303 305 304 302 303 309 312 312 305 308 303 298 303 310 311 307 303 303 297 295 298 297 299
308 308 308 308 306 305 300 304 310 314 309 293 295 299 300 302 302 303 305 304 306 305 304 302 308 308 309 311 310 305 307 300 294 297 303 307 304 305 301 300 300 295 294 299
308 308 309 308 307 306 303 305 303 306 306 303 299 299 301 302 306 305 307 305 306 303 303 304 304 306 309 310 310 323 314 305 302 295 300 304 303 306 306 301 295 296 297 302
308 309 308 308 307 306 303 309 307 308 298 298 299 300 302 301 301 306 306 304 304 302 299 303 301 306 307 309 313 308 308 300 302 305 306 306 305 307 308 303 303 298 300 306
308 309 308 308 307 305 306 305 302 305 303 308 301 302 299 302 304 304 302 302 305 304 300 302 304 308 308 308 308 304 306 300 301 303 307 306 305 307 308 306 305 303 307 309
307 308 308 308 306 305 306 309 307 304 304 304 302 302 303 303 305 307 308 306 306 304 310 312 310 309 310 309 306 309 305 303 299 297 306 305 299 305 307 307 310 307 299 309
307 307 308 308 307 305 302 307 306 302 298 301 302 304 305 305 307 307 311 311 310 313 315 315 311 306 307 309 309 310 307 307 305 300 303 293 304 310 310 310 317 316 314 314
306 306 306 308 307 306 302 306 305 302 297 302 301 303 304 307 310 308 311 312 313 314 311 306 301 300 301 304 307 305 308 304 299 296 296 302 306 310 309 308 313 319 317 318
306 306 306 306 307 306 304 305 309 303 299 299 303 300 304 302 304 306 309 315 314 311 305 302 295 294 299 298 300 303 303 308 302 297 294 292 303 314 318 316 308 319 317 318
305 307 306 306 306 306 303 304 310 303 299 304 303 298 299 305 303 302 308 309 308 310 301 297 295 295 303 297 298 298 298 299 298 297 295 299 308 310 318 299 306 319 319 318
305 306 306 306 306 306 304 304 309 304 298 300 304 304 301 301 303 300 304 306 306 305 298 297 297 297 300 299 301 303 300 297 295 297 295 294 322 321 314 313 317 327 322 321
305 305 305 306 306 305 305 303 308 310 303 299 305 305 306 304 306 304 304 305 307 312 306 303 303 299 301 301 297 308 300 303 300 300 300 324 328 326 328 329 327 329 327 331
305 305 305 305 305 305 305 301 305 307 304 304 304 302 307 306 304 305 301 306 308 307 312 309 308 304 305 299 303 306 311 316 307 308 317 319 321 323 326 331 330 331 335 333
305 304 304 304 305 305 305 300 305 306 304 298 304 313 311 316 309 307 307 306 310 309 309 306 304 301 308 301 306 305 309 313 312 313 317 321 318 319 323 328 333 334 333 332
305 304 304 304 304 305 304 304 306 310 304 297 300 307 311 311 310 308 306 305 306 305 303 302 300 303 305 306 306 305 309 310 308 307 315 318 319 322 327 327 330 331 331 328
304 304 304 304 304 305 302 304 311 308 309 302 298 311 310 310 309 308 306 306 306 305 302 301 304 307 306 301 301 312 314 317 317 313 318 321 322 325 325 327 331 332 330 328
304 304 304 305 305 302 299 300 305 306 307 302 299 302 309 310 308 305 304 307 306 304 302 300 301 303 306 302 297 310 313 314 315 317 317 318 323 319 325 322 331 329 328 327
303 304 304 305 304 304 301 308 308 307 304 306 298 301 304 310 303 302 308 304 305 305 303 304 301 303 305 298 305 308 312 313 315 316 316 314 316 321 322 323 320 325 324 324
303 304 304 303 303 304 307 311 311 309 306 299 301 299 299 311 305 308 307 307 300 306 300 301 302 299 298 304 304 306 310 311 311 313 314 313 314 315 317 320 322 322 325 325
303 301 302 300 308 313 310 306 304 303 305 304 299 305 301 305 306 305 306 306 301 298 301 304 299 298 304 307 309 312 314 313 312 308 308 311 311 312 314 316 316 319 319 323
300 301 302 311 310 308 305 300 300 301 299 302 301 301 303 309 302 303 308 303 304 297 301 300 299 299 307 312 313 314 314 314 313 314 313 312 311 311 314 314 316 316 320 321
299 299 303 307 304 301 297 296 300 298 296 305 301 302 307 308 313 306 306 301 302 296 306 302 297 305 312 311 312 313 313 314 314 315 314 314 314 314 314 314 316 317 319 325
304 300 301 299 299 289 290 289 295 297 304 307 307 305 308 309 310 305 303 297 297 305 300 298 302 308 311 311 312 312 312 312 313 313 314 314 315 316 315 314 317 317 319 325
299 297 286 293 292 294 296 297 301 304 306 306 306 306 305 307 305 304 298 302 303 297 295 297 305 307 309 311 311 311 311 311 310 311 311 311 311 313 315 316 318 318 316 323
297 299 289 292 298 301 303 305 304 308 309 306 305 305 306 303 302 302 301 297 295 298 297 302 308 310 310 310 311 311 310 310 310 312 310 310 310 311 314 317 318 317 319 322
300 299 295 300 299 299 301 303 303 308 308 308 306 302 300 298 300 298 296 295 294 296 301 306 309 309 309 308 308 308 309 309 310 310 310 311 310 311 312 316 316 318 317 320
297 296 302 301 300 301 303 307 303 310 306 302 303 298 296 303 297 296 301 298 300 302 304 308 310 307 307 307 307 308 309 310 310 310 311 311 312 312 314 314 312 313 315 317

GFSNW_sfc_thetae_030.txt.gz
Theta_e
309 309 309 308 307 306 301 297 298 307 305 293 290 289 294 299 299 301 299 300 299 300 302 300 301 298 302 309 309 302 302 298 295 299 307 308 302 299 295 293 291 292 292 295
308 309 308 308 306 306 297 293 301 306 302 287 287 292 297 298 297 298 297 299 302 301 300 297 303 304 307 310 307 305 303 295 292 296 299 304 301 303 297 295 293 291 290 293
309 309 308 308 307 306 297 296 298 298 298 294 292 289 295 297 305 300 300 300 301 298 298 300 298 301 308 308 308 320 310 298 295 292 295 301 300 303 303 297 292 292 294 298
309 309 309 308 307 307 299 298 299 297 293 293 293 291 295 295 296 302 301 298 299 296 292 296 301 304 305 308 310 305 302 297 298 299 303 303 303 304 304 300 299 296 300 301
308 308 308 308 307 306 300 296 294 296 295 298 297 294 293 296 298 299 298 298 301 304 300 300 299 303 303 302 308 299 300 296 298 296 306 305 303 305 306 305 307 302 305 304
307 308 308 308 306 302 295 299 300 297 296 295 295 297 299 300 301 303 309 306 302 304 305 307 306 302 303 304 304 303 303 297 294 291 303 304 297 302 304 307 311 308 299 304
306 307 308 308 307 304 294 296 297 294 293 295 295 298 300 303 303 304 308 308 304 308 311 310 306 302 303 303 301 306 303 301 300 296 300 290 302 309 317 314 315 315 313 313
306 307 307 308 307 306 295 297 296 293 290 296 296 297 298 303 302 303 306 309 308 307 305 300 296 296 296 300 301 300 306 299 295 294 292 298 303 311 309 307 310 316 316 317
305 307 307 307 307 306 296 296 299 294 291 292 298 294 296 295 295 299 305 309 308 306 299 297 292 290 293 294 297 300 300 301 296 293 290 290 300 312 316 315 303 317 317 318
306 306 306 307 307 306 299 296 299 294 289 294 295 293 293 297 298 297 299 301 304 303 295 293 291 291 297 292 292 291 292 292 293 292 291 296 305 308 314 297 299 317 317 318
306 306 305 306 307 306 301 297 300 297 289 292 297 298 293 294 296 296 300 301 302 302 294 293 292 291 294 293 295 294 294 291 292 292 291 290 318 320 306 310 317 318 319 319
306 306 305 305 306 306 304 293 300 302 296 294 297 301 302 299 298 298 297 299 297 306 303 301 300 294 295 294 291 300 295 297 295 295 295 313 318 318 320 320 321 322 320 322
306 305 305 305 305 305 303 293 295 297 294 296 295 297 301 298 297 299 296 298 301 299 304 303 302 300 302 294 296 299 304 308 304 306 312 312 316 321 324 327 328 329 326 325
305 305 305 304 304 305 304 293 295 295 295 290 294 306 301 304 302 300 299 300 300 301 303 300 299 297 299 294 296 299 304 307 307 307 311 315 317 318 321 328 331 331 330 329
305 305 304 304 304 305 302 296 297 299 296 290 293 299 303 303 304 301 298 298 297 298 296 296 295 297 300 299 299 301 304 306 303 304 311 313 315 317 322 323 330 329 328 326
305 304 304 304 304 305 295 296 301 300 298 295 290 299 299 300 300 299 299 297 297 297 295 294 297 300 299 294 296 307 307 310 312 309 314 314 319 324 325 324 329 329 326 326
304 304 304 304 304 297 292 295 300 303 298 295 292 293 300 302 298 298 296 296 297 297 294 292 293 295 299 295 293 305 307 309 310 310 311 311 317 314 320 328 329 327 327 325
304 304 304 304 304 302 296 299 305 302 296 297 291 294 300 300 295 294 297 295 295 296 296 295 293 294 296 293 297 302 307 309 309 309 310 311 310 313 315 321 324 323 321 322
304 304 304 298 296 295 300 311 309 301 299 292 294 291 292 304 298 297 297 297 292 297 294 293 295 292 291 295 298 299 304 306 306 307 309 310 309 309 312 315 318 318 321 321
304 297 296 294 300 312 308 301 297 297 297 295 291 296 294 299 298 298 298 297 292 290 294 296 292 291 295 302 302 302 307 307 306 304 303 305 305 307 308 309 312 312 315 321
293 295 297 300 310 300 297 294 294 294 293 294 293 293 292 302 296 295 300 295 296 291 294 296 291 290 301 306 306 307 308 309 309 308 308 308 307 307 307 309 310 313 315 317
296 294 297 297 297 294 291 291 294 293 291 296 293 295 299 302 305 298 299 294 296 290 298 296 291 297 303 305 306 306 306 308 308 309 309 309 310 310 309 310 311 311 315 321
297 294 292 293 291 283 288 287 290 291 295 300 298 297 301 303 302 297 295 292 291 301 294 294 295 300 305 306 306 307 307 308 307 308 308 308 308 309 310 311 312 314 314 317
293 294 282 287 284 289 290 291 294 298 299 298 298 297 297 298 296 296 294 297 299 294 291 292 298 303 305 307 308 307 306 307 307 308 309 308 307 307 309 312 313 313 314 315
294 295 282 289 293 294 298 300 299 301 300 298 297 298 297 295 295 295 296 295 292 295 292 300 300 302 303 303 304 303 304 304 304 306 307 308 307 307 307 310 312 314 314 314
297 294 291 293 293 294 297 300 300 301 299 299 300 298 293 292 293 293 294 293 292 295 297 300 301 301 301 301 302 302 304 304 304 305 306 307 306 306 306 308 310 310 312 312
294 291 297 293 295 298 297 299 298 300 297 293 294 291 292 295 293 291 295 292 295 301 302 305 300 299 300 301 302 303 304 306 308 310 307 309 310 310 308 305 308 308 309 310

GFSNW_sfc_thetae_033.txt.gz
Theta_e
308 308 309 308 307 306 299 296 295 303 300 291 286 288 292 298 296 297 296 297 296 296 298 296 298 295 300 306 305 301 300 295 293 298 303 305 300 296 294 291 291 289 289 292
308 308 308 308 307 305 297 293 296 306 299 288 286 289 294 296 294 295 294 295 299 298 296 295 300 301 305 306 304 301 301 294 291 295 298 301 300 299 296 292 290 289 289 292
307 308 308 308 307 306 296 297 297 296 295 291 290 288 291 294 302 298 298 297 297 296 296 298 298 300 305 306 309 320 308 293 294 293 295 299 298 301 299 294 291 290 292 295
306 308 308 308 307 306 299 298 296 296 292 292 292 291 292 292 293 299 299 294 297 295 291 296 299 303 306 308 313 303 300 296 295 296 301 301 301 302 302 297 296 294 296 297
306 309 308 308 307 305 299 293 292 295 292 295 295 294 290 293 294 295 297 294 302 301 298 299 297 299 300 301 306 298 298 296 295 295 303 303 302 303 304 304 307 301 303 301
306 308 309 308 306 301 294 296 298 295 295 293 291 292 294 296 298 300 308 305 302 301 304 306 304 303 301 303 302 304 302 295 292 290 301 300 294 301 304 309 311 307 297 303
306 306 308 308 306 304 294 294 295 294 292 293 293 296 298 298 299 301 307 305 301 306 308 307 303 299 298 302 300 303 301 300 296 294 295 287 298 314 312 312 313 312 309 310
306 306 306 307 307 306 293 294 294 291 289 294 295 296 295 300 299 302 305 305 304 303 303 298 295 295 296 299 300 301 301 297 293 292 291 295 305 312 306 305 308 315 312 314
306 306 306 306 307 306 294 294 296 292 290 292 297 294 294 292 295 297 302 306 303 302 297 296 289 289 293 293 298 297 299 297 296 291 289 289 298 309 317 309 297 317 317 314
306 306 306 306 307 306 297 294 295 292 289 291 294 293 293 292 293 294 298 300 304 301 294 292 290 291 297 293 292 292 290 291 291 292 290 295 302 311 312 293 295 316 317 315
306 306 306 306 306 306 300 294 296 295 289 291 295 298 294 294 293 292 296 299 303 303 293 293 291 290 292 291 293 292 292 289 289 290 288 288 318 320 303 304 313 315 316 315
306 306 306 305 305 305 303 290 296 297 293 293 296 299 301 299 298 294 296 298 297 303 300 298 297 293 293 291 289 299 294 295 292 293 293 311 315 315 317 315 317 318 316 318
305 306 305 305 305 305 302 292 292 294 292 293 294 295 298 298 298 298 294 295 299 297 302 301 299 297 297 290 293 296 301 305 302 305 309 310 314 320 325 326 323 328 324 322
305 305 305 305 304 304 304 292 292 292 291 288 294 303 300 304 297 297 298 298 298 300 302 298 298 295 297 292 294 295 300 304 305 307 310 312 314 316 319 324 324 329 328 326
305 305 305 304 304 304 301 294 294 296 294 289 291 297 300 300 300 300 295 296 294 295 295 295 294 295 296 296 299 301 304 304 301 302 310 310 312 318 322 324 327 327 326 325
305 305 304 304 303 304 293 295 297 298 296 291 288 296 298 300 298 298 295 296 295 294 293 292 293 296 296 292 295 305 306 309 309 308 311 314 319 322 323 325 328 328 327 325
304 304 304 304 304 295 290 294 299 301 296 293 291 292 298 299 296 296 294 294 294 294 292 291 291 293 295 293 292 304 307 306 307 312 311 312 315 314 322 327 328 325 326 324
305 305 305 304 304 301 296 298 303 300 295 295 289 291 295 300 294 293 293 293 293 293 293 293 291 292 292 290 295 298 306 307 306 307 308 310 310 314 317 323 325 322 322 322
305 304 304 297 294 293 297 310 306 298 297 292 291 289 290 301 296 294 295 294 291 294 292 291 293 290 288 292 295 296 299 306 305 307 307 307 307 308 311 316 319 315 318 319
304 295 294 292 297 308 305 299 295 295 294 293 290 293 293 297 295 296 295 295 290 289 293 293 290 289 293 301 302 300 301 304 305 303 302 303 304 306 305 307 310 310 312 320
292 292 296 299 303 298 295 291 290 291 291 292 293 292 290 298 294 294 297 293 294 289 292 291 288 289 299 303 303 304 306 307 306 306 306 306 305 306 306 308 309 310 311 314
294 293 295 294 295 292 289 288 291 291 290 294 292 293 293 298 302 296 296 292 293 289 296 294 289 296 300 302 304 304 304 306 306 307 306 306 308 308 308 308 309 311 311 312
294 293 290 291 289 281 286 285 288 289 293 298 298 297 298 299 302 296 293 291 290 297 293 292 295 299 302 303 306 307 307 307 307 307 308 307 306 307 307 308 311 313 312 313
292 293 282 286 282 287 288 288 290 296 298 298 298 296 296 296 294 295 292 294 296 291 288 291 300 302 303 304 304 304 303 303 304 304 306 307 307 306 307 307 310 311 311 313
293 295 287 287 291 292 294 295 297 300 301 297 296 296 295 293 293 293 293 292 290 293 293 299 303 304 301 301 302 301 301 302 302 303 304 305 306 306 305 307 307 309 311 311
294 292 289 293 292 293 293 295 296 301 299 297 296 296 291 290 292 291 291 291 290 291 294 297 298 298 299 299 300 300 301 301 302 302 303 305 305 304 304 305 305 307 309 309
292 290 292 291 291 293 296 297 298 301 297 292 295 290 290 293 290 290 293 292 294 297 299 299 298 297 298 298 299 301 302 302 302 304 307 309 309 310 308 304 306 306 306 312

GFSNW_sfc_thetae_036.txt.gz
Theta_e
308 309 308 308 307 306 298 294 293 303 297 290 285 287 290 296 294 295 293 295 294 293 295 294 292 294 297 303 302 299 299 295 293 297 302 304 299 296 294 291 289 288 288 291
308 309 308 308 306 306 297 292 294 304 298 287 285 288 292 294 293 293 292 293 296 296 293 291 298 299 302 303 303 300 299 293 290 294 297 300 300 298 294 291 290 289 289 293
307 309 309 308 307 306 296 296 294 295 293 289 288 288 290 291 299 296 296 294 295 293 292 295 295 299 303 306 305 320 306 292 293 291 295 298 298 300 297 294 292 290 291 296
307 309 309 308 307 306 297 295 292 293 291 291 292 289 291 291 291 296 296 292 294 293 290 294 297 302 304 306 311 301 299 294 293 295 299 300 300 301 300 297 296 295 297 296
307 308 309 308 307 305 296 292 291 293 291 293 292 292 292 292 293 292 294 293 296 297 296 297 297 298 299 300 305 297 297 294 296 296 303 303 301 303 302 303 301 300 302 300
307 307 307 308 306 301 293 294 295 292 293 293 291 291 294 294 295 298 301 305 300 299 302 304 302 301 299 301 301 304 299 295 293 291 302 299 294 301 304 308 310 306 299 302
307 307 307 308 307 303 296 292 292 291 289 293 294 296 297 297 298 296 304 304 299 302 306 305 301 298 296 299 299 302 300 298 294 294 294 287 296 312 310 310 312 312 309 310
306 307 307 307 307 306 293 292 292 289 287 293 295 296 295 298 298 299 302 304 302 301 300 296 294 294 294 296 298 299 300 297 294 292 289 295 307 311 306 304 305 314 310 314
306 307 306 306 307 305 294 292 293 290 287 291 297 294 294 291 293 297 300 303 303 299 296 294 288 288 290 291 294 295 297 298 296 292 290 290 299 308 315 306 295 315 314 313
306 307 306 306 306 305 295 293 293 290 287 290 292 292 292 293 292 294 296 298 302 299 292 290 290 290 295 291 289 290 291 291 293 293 291 295 302 309 313 294 296 313 317 315
305 306 306 306 306 305 297 292 294 293 288 291 294 296 293 293 292 291 295 298 301 302 291 291 290 290 292 292 292 291 291 291 291 291 289 289 316 318 301 303 313 316 316 315
305 306 306 306 305 305 300 288 293 295 292 291 295 298 301 298 297 293 293 298 298 301 298 296 295 292 293 289 289 297 293 294 293 294 293 307 314 314 319 316 316 317 316 318
305 305 305 305 305 305 301 290 290 292 290 292 292 296 299 298 297 297 292 296 298 298 303 300 297 294 294 290 293 293 299 302 302 304 307 310 314 316 324 325 323 327 321 321
305 305 305 305 304 304 303 292 290 291 290 287 293 301 298 302 296 297 297 298 297 298 300 297 295 294 294 291 293 294 298 303 305 308 309 312 313 316 317 321 326 327 326 324
305 305 305 305 304 304 298 292 292 294 293 288 290 296 298 300 298 296 295 296 293 293 294 295 295 294 294 293 298 301 304 302 301 301 308 309 310 317 322 324 326 327 325 325
305 304 304 304 304 303 292 293 295 296 295 289 285 294 297 298 297 297 294 295 294 293 291 292 292 295 295 291 295 305 306 307 308 308 312 314 318 321 324 327 328 329 325 325
304 304 304 304 304 293 290 293 297 299 295 291 289 290 297 298 294 295 294 293 294 293 291 289 289 291 294 292 293 304 307 308 311 314 315 312 316 316 325 328 328 325 325 324
304 305 305 305 304 300 294 297 303 299 293 293 288 290 294 298 293 292 292 292 292 293 292 292 289 290 290 287 294 297 305 308 309 311 310 311 312 315 322 324 323 321 321 321
304 305 304 295 294 292 297 309 304 297 296 290 289 287 289 299 294 292 294 293 290 293 291 290 292 288 286 288 292 296 302 305 305 307 308 308 310 311 314 318 318 317 317 319
303 294 293 291 296 307 304 296 294 294 292 290 288 290 291 295 294 295 294 293 289 289 291 292 289 288 293 299 300 301 302 302 306 303 302 304 305 307 308 309 310 310 309 313
292 290 292 298 302 296 293 289 289 290 288 289 290 290 290 295 293 293 295 292 292 289 291 290 287 292 297 301 301 302 304 305 306 306 306 306 306 306 307 308 310 311 311 312
293 291 293 293 294 290 288 286 289 289 288 292 291 291 292 295 298 294 294 291 292 288 295 293 289 295 299 301 303 304 304 306 306 307 306 307 308 308 309 309 310 311 312 313
294 292 289 290 288 281 285 284 286 287 291 294 295 295 296 298 300 295 292 290 289 296 292 291 295 298 301 302 304 305 305 305 305 305 307 308 308 308 308 307 309 312 312 313
291 290 279 285 282 285 287 287 288 292 295 296 296 295 295 297 296 296 291 293 294 290 287 290 300 303 305 302 303 302 302 302 303 304 305 306 306 306 308 308 308 309 309 311
291 295 286 286 289 289 290 292 293 297 300 299 298 297 296 294 295 293 293 292 289 291 290 300 303 305 303 300 301 300 301 301 301 303 303 304 305 306 306 307 307 307 308 309
291 291 287 291 289 289 291 291 292 297 300 299 298 294 292 290 291 291 290 290 289 291 294 298 299 299 299 299 300 300 301 301 301 302 303 304 305 306 306 306 306 307 307 307
292 289 292 290 289 289 292 294 295 300 297 294 294 290 289 292 290 289 292 291 293 296 298 299 298 297 298 298 299 300 301 302 302 303 306 306 309 311 310 308 307 307 307 309

GFSNW_sfc_thetae_039.txt.gz
Theta_e
308 309 309 308 307 306 301 303 302 311 303 300 295 296 296 297 299 300 299 300 300 300 300 301 300 301 303 307 309 305 309 307 303 304 308 307 307 307 308 302 301 301 302 303
308 309 309 308 306 306 301 304 305 311 305 294 295 296 296 298 298 298 298 299 301 302 301 299 304 303 307 308 308 308 308 305 300 303 306 307 307 305 305 306 307 304 300 304
308 308 308 308 307 306 304 306 301 304 302 298 298 297 297 296 301 299 301 300 301 301 301 305 304 306 308 310 309 319 314 307 306 299 304 307 305 305 305 308 304 303 305 307
307 307 308 308 307 306 304 302 300 300 299 299 300 300 298 296 296 300 302 302 301 301 300 303 306 308 310 310 313 309 313 308 305 305 304 306 307 306 304 306 308 305 308 307
307 308 308 308 307 305 304 300 300 300 300 299 298 297 298 297 299 299 299 300 303 302 301 306 305 307 308 309 311 308 308 307 307 304 305 306 305 307 307 307 306 307 308 310
307 308 308 308 306 304 302 302 303 300 298 298 298 298 297 297 299 303 303 304 307 305 305 310 311 311 308 310 311 312 308 306 305 302 306 306 303 307 309 313 314 312 308 314
307 307 307 308 306 303 301 300 300 299 298 299 299 298 298 298 300 300 305 308 308 308 310 312 309 308 307 308 310 312 310 308 306 302 304 296 307 318 315 314 316 317 317 317
307 307 307 307 307 305 302 301 300 299 297 299 298 298 298 299 303 302 305 308 308 309 309 307 305 305 305 305 307 309 312 309 302 302 298 304 311 314 314 311 311 320 317 319
306 307 307 307 307 305 302 301 300 299 296 297 298 297 297 295 297 304 305 309 310 308 308 305 301 297 300 300 303 306 309 312 307 303 299 298 309 312 320 313 305 319 320 321
306 306 306 307 306 305 302 302 300 299 296 298 299 298 296 297 296 299 302 304 307 309 305 303 300 299 302 299 300 301 304 305 303 303 301 303 309 317 319 302 306 318 322 322
305 306 306 306 306 305 301 300 300 300 298 299 299 299 298 298 297 295 300 304 307 308 301 302 301 301 301 301 301 301 301 301 302 302 300 298 321 323 309 315 324 324 325 323
305 305 306 306 305 305 302 296 300 301 300 299 301 303 304 302 301 298 298 303 304 305 306 305 304 302 303 300 299 307 302 306 305 304 304 317 322 323 328 328 325 325 326 326
304 305 305 305 304 304 303 299 298 300 300 301 300 304 306 305 305 305 297 302 304 305 309 309 308 303 304 302 303 305 309 310 311 311 316 320 322 324 327 329 330 331 327 328
304 305 305 305 304 304 303 299 299 300 299 296 301 307 305 307 305 304 304 303 305 306 307 306 306 304 304 303 303 305 309 312 313 314 318 320 321 323 324 327 332 332 328 330
304 304 304 304 304 304 300 301 301 301 300 296 298 303 306 307 305 301 303 304 303 301 301 303 303 304 304 304 308 311 314 312 311 313 319 320 320 323 326 330 330 332 330 330
304 304 304 304 304 303 301 302 303 304 303 299 295 302 305 307 306 305 304 304 303 302 300 301 302 303 304 303 307 313 314 317 318 317 322 322 324 325 328 331 330 330 330 331
304 304 304 304 305 303 297 300 303 302 302 300 296 299 306 306 305 304 303 303 303 303 300 299 300 302 304 304 303 315 315 317 318 322 323 320 321 325 331 332 331 329 329 330
304 304 305 305 303 303 302 306 305 303 300 301 296 299 303 308 303 302 302 302 302 302 301 301 300 300 301 298 304 306 310 316 320 323 319 317 322 328 329 330 328 325 325 327
304 304 302 301 301 302 304 308 305 304 302 298 298 297 299 307 304 303 303 303 299 302 300 300 300 298 295 298 303 307 307 312 312 317 315 316 318 321 324 325 323 322 321 323
302 299 300 299 303 305 309 303 301 302 301 300 296 300 300 305 304 304 304 304 300 297 300 301 299 298 304 308 308 309 310 311 312 314 313 313 314 314 315 315 317 317 317 319
298 298 299 301 302 304 302 297 297 298 295 298 297 297 300 304 303 304 305 303 303 297 298 297 296 299 305 308 309 311 312 313 313 315 315 315 314 314 315 315 317 319 320 319
297 297 298 299 301 298 295 294 296 295 294 299 299 300 300 303 309 305 304 301 301 294 304 300 296 304 307 308 309 310 311 312 312 313 313 313 313 314 314 314 315 316 318 319
300 298 297 297 295 287 288 287 292 294 299 302 302 300 302 307 308 304 302 297 297 304 300 298 301 307 309 309 310 310 311 310 310 310 311 311 311 312 313 313 315 315 316 317
296 294 285 290 289 291 293 294 296 300 302 304 305 305 304 306 303 302 296 300 302 296 294 296 303 306 308 309 309 308 307 308 309 309 310 310 311 311 312 313 314 314 313 315
295 295 288 290 295 297 298 299 299 303 307 306 304 303 303 302 300 300 299 296 294 297 297 302 306 308 307 306 307 308 308 308 308 310 309 310 311 312 313 314 315 314 314 314
296 295 293 297 295 297 298 300 300 304 307 305 303 300 298 296 297 296 295 294 294 299 304 308 309 308 307 307 308 308 308 308 310 310 310 311 312 313 314 315 315 314 315 315
294 295 298 298 297 297 299 303 304 307 304 301 300 295 294 299 296 294 299 298 302 304 307 308 308 306 307 308 308 309 309 310 310 310 312 313 314 315 314 311 313 314 313 311

GFSNW_sfc_thetae_042.txt.gz
Theta_e
308 309 309 309 307 306 306 313 305 313 314 303 305 302 302 297 303 305 304 304 304 303 304 305 306 305 308 311 313 309 313 311 305 307 313 314 314 312 312 306 305 306 306 306
308 309 309 308 306 306 312 314 310 314 312 298 300 302 301 302 301 302 302 301 304 306 305 303 306 308 310 310 311 310 313 308 304 305 310 313 310 312 314 314 314 307 303 306
308 309 309 308 307 307 311 314 303 306 308 309 302 300 300 299 303 302 303 303 305 304 304 308 307 309 311 313 312 319 317 310 308 302 307 311 309 310 311 312 306 308 307 310
308 309 309 308 307 307 310 313 307 307 301 302 306 305 303 299 299 303 305 303 303 303 303 305 306 311 312 314 313 313 314 308 310 309 310 310 310 310 309 310 311 307 309 310
308 308 309 308 307 305 312 309 308 309 309 307 306 300 304 302 303 303 301 302 305 306 304 306 308 311 313 312 314 314 315 309 310 307 309 309 307 310 311 311 311 311 311 312
308 308 308 308 306 306 309 311 312 308 302 306 304 305 304 302 304 306 306 305 305 307 309 310 315 317 316 318 316 315 314 310 310 303 308 308 304 309 311 312 314 313 310 320
307 308 308 308 306 305 311 308 309 306 304 306 306 302 303 304 305 305 309 311 310 313 317 317 318 315 314 315 318 321 316 315 312 305 309 299 311 317 315 314 316 318 320 323
307 307 307 307 307 305 310 310 307 305 302 306 304 303 303 307 309 308 308 312 314 317 314 311 310 309 310 311 314 317 319 315 309 306 304 309 312 317 316 315 314 321 321 324
306 307 307 307 307 305 312 308 311 307 301 302 303 303 304 304 307 309 310 314 319 314 313 310 304 301 305 306 309 315 317 321 311 308 303 300 313 319 322 319 310 322 324 326
306 307 307 307 307 305 308 308 309 307 301 305 304 304 302 304 306 308 310 308 313 317 309 305 303 302 307 302 304 307 310 311 307 307 305 308 317 320 320 306 312 324 326 328
305 306 307 306 306 305 305 308 308 305 303 304 303 303 304 304 305 304 307 309 312 313 307 305 306 304 306 307 308 308 307 306 306 309 304 302 322 321 313 323 330 329 329 329
305 306 306 306 305 305 305 304 308 308 304 304 308 307 308 307 306 303 307 309 308 308 310 311 309 306 308 308 301 312 306 313 309 311 310 323 327 329 332 333 330 331 330 331
304 305 306 305 305 304 303 305 307 308 305 306 307 308 312 314 311 312 304 308 307 308 313 313 311 306 311 304 307 310 316 319 314 313 320 325 329 332 332 332 334 334 332 332
304 304 305 305 304 304 303 307 309 308 306 300 306 313 311 314 314 311 310 307 309 308 309 310 310 307 311 309 309 310 315 318 316 313 322 325 328 330 330 332 335 335 333 333
304 304 304 305 304 304 306 312 312 312 305 300 304 309 312 313 310 308 308 309 309 304 302 307 307 309 310 313 312 309 317 315 311 312 324 327 329 330 332 333 333 334 334 334
305 304 304 304 305 304 307 306 311 314 309 304 301 309 311 312 311 310 310 310 308 305 302 303 307 309 309 306 307 317 319 321 322 321 328 327 330 331 335 332 332 336 335 335
304 304 304 304 305 304 303 303 307 304 310 304 300 304 311 312 311 312 313 310 309 307 303 301 305 308 307 308 305 317 318 321 324 327 327 324 326 330 335 335 333 331 334 334
304 304 305 305 304 304 304 312 307 306 305 306 300 304 306 313 307 306 312 309 308 305 305 305 302 306 308 302 310 313 316 319 323 325 324 323 328 332 331 333 331 328 327 329
304 304 304 305 305 306 309 307 307 312 307 301 303 301 301 312 310 311 308 310 302 309 302 303 303 300 298 304 308 311 315 316 318 320 323 321 323 325 327 326 324 321 322 322
303 302 303 301 307 305 309 308 305 306 305 304 299 307 304 310 308 305 308 308 305 300 304 307 301 300 309 309 313 315 316 316 318 316 319 319 320 321 321 320 320 319 319 319
301 302 304 308 303 309 306 300 299 302 297 301 302 302 302 311 305 306 311 305 307 298 302 301 300 299 308 312 314 317 318 318 318 320 320 320 320 320 319 319 319 320 322 322
303 305 304 308 305 303 298 297 300 298 296 303 301 303 302 309 315 309 308 303 306 296 307 301 297 307 312 313 313 315 316 316 316 318 317 317 318 318 318 319 319 319 320 321
306 304 301 301 300 290 290 289 294 297 302 307 307 302 304 309 314 308 307 299 299 309 301 300 305 309 313 314 315 314 314 314 314 313 314 315 315 316 316 316 318 318 318 319
301 298 288 294 291 294 296 299 301 304 309 310 311 306 306 310 306 307 298 304 306 297 296 298 307 312 313 314 313 313 312 313 313 313 314 314 314 315 317 317 318 318 318 319
298 299 290 293 300 301 304 306 306 307 310 310 309 309 309 305 302 305 302 297 295 299 301 306 311 314 313 310 308 310 312 313 313 314 314 314 315 316 317 319 320 319 318 318
299 298 296 300 300 300 302 304 305 310 311 313 310 303 300 299 303 298 296 295 295 303 308 311 312 310 310 310 312 313 314 314 315 315 316 316 317 317 318 319 319 318 318 316
297 298 303 303 304 304 307 310 310 314 309 305 305 297 296 305 299 296 304 302 306 309 312 314 314 311 312 313 314 314 314 313 312 312 313 315 317 318 318 316 317 317 315 314

GFSNW_sfc_thetae_045.txt.gz
Theta_e
309 310 310 309 308 306 307 313 307 315 316 304 306 305 309 297 307 308 307 307 308 307 308 307 308 307 310 314 314 309 314 311 306 310 315 316 315 313 312 306 306 309 306 304
309 310 310 309 307 307 314 313 313 316 313 301 304 308 306 306 305 306 306 305 307 309 307 305 309 310 313 313 312 312 314 309 305 306 311 314 312 314 315 315 314 309 304 305
309 310 310 309 308 307 312 314 305 308 308 309 307 305 304 303 307 305 306 306 308 306 306 310 308 309 313 313 313 323 318 312 309 304 308 312 310 310 312 312 308 309 307 311
309 310 310 309 308 308 312 313 310 312 302 304 306 307 305 303 303 306 307 305 305 305 304 306 307 310 313 315 315 314 314 309 311 311 311 312 311 311 311 310 312 308 306 310
308 309 310 309 307 306 314 311 309 311 313 309 306 302 305 304 305 306 304 303 306 307 305 307 308 312 312 313 316 315 315 309 311 308 311 311 309 311 312 311 312 312 312 313
308 309 309 309 307 306 313 316 316 312 306 308 306 306 306 305 307 308 309 308 306 306 308 313 314 316 318 319 319 316 315 312 310 305 309 309 305 310 312 313 314 314 310 320
308 308 309 309 307 305 314 312 313 308 305 307 307 306 306 306 307 307 310 309 309 313 320 319 316 314 315 317 317 320 317 317 313 306 309 299 310 316 315 314 315 317 322 324
307 308 308 308 308 306 314 313 312 309 305 310 308 306 306 308 311 309 309 312 317 321 317 310 307 307 310 312 315 318 319 317 310 305 304 308 312 315 315 313 312 319 322 324
307 308 308 308 308 306 311 312 314 310 305 305 308 306 308 307 308 310 311 317 321 319 312 307 303 301 305 305 309 317 318 321 313 309 302 300 311 318 322 320 310 322 325 325
306 307 308 307 307 306 308 313 314 311 304 308 307 307 306 309 309 309 314 313 315 320 309 305 303 303 308 303 305 309 310 313 309 308 306 309 317 322 324 310 313 325 326 327
305 306 307 307 306 306 307 311 312 309 306 307 307 307 307 308 309 307 311 312 315 314 308 306 305 305 307 307 311 312 309 308 306 308 306 302 322 321 315 325 329 327 327 329
305 306 306 306 306 306 305 309 313 311 306 307 310 309 309 309 309 307 312 314 314 314 312 311 313 307 311 310 304 315 308 315 311 312 313 325 330 333 336 335 332 331 331 333
305 305 306 306 306 305 304 308 312 312 308 308 308 309 315 316 315 315 308 313 312 316 317 314 312 307 313 304 306 310 316 319 313 315 320 326 329 333 335 336 335 333 334 334
305 305 305 305 305 305 304 310 313 312 309 302 308 314 312 316 317 314 315 312 315 313 313 313 311 307 314 308 310 311 315 314 314 312 321 325 330 333 334 336 338 334 334 334
306 305 305 305 305 305 307 314 315 315 308 304 306 311 313 316 315 313 314 316 313 311 309 308 308 309 311 313 312 309 315 317 312 315 327 326 332 334 335 334 334 335 335 336
306 305 304 305 305 306 309 308 316 317 314 307 302 313 312 313 314 313 314 315 313 311 308 308 311 313 309 306 305 318 319 320 321 323 328 331 333 334 336 333 335 336 336 337
306 304 304 305 305 305 305 305 309 305 314 307 302 304 311 313 313 312 312 314 312 309 310 305 307 307 310 306 303 314 319 322 327 329 329 326 330 330 336 333 334 332 335 335
305 304 305 305 305 304 305 312 307 307 310 308 302 305 307 313 307 306 313 308 309 308 307 306 306 307 306 302 312 317 317 322 324 323 325 325 330 331 331 333 330 324 323 328
304 304 305 307 307 307 311 308 308 315 310 304 303 300 300 313 308 312 312 310 303 309 303 302 305 302 298 307 310 312 317 319 321 321 321 319 320 325 328 328 322 318 321 321
304 304 305 303 309 308 310 310 308 307 307 306 301 307 305 309 307 306 306 309 303 301 303 307 301 300 309 310 313 315 315 316 319 318 317 318 317 321 323 325 323 318 320 319
302 303 306 311 305 310 308 303 301 303 300 303 303 304 303 311 305 305 308 305 305 298 303 302 300 299 308 314 313 316 316 317 319 322 322 322 323 321 321 320 320 321 322 322
303 307 308 311 306 304 299 298 301 300 298 303 301 303 305 310 313 310 309 303 304 298 307 302 297 311 315 315 314 315 317 317 318 319 319 320 321 321 321 321 321 322 323 323
309 307 303 305 302 293 292 291 296 298 303 306 306 303 305 309 311 307 304 299 299 307 300 299 307 314 315 315 315 316 316 316 316 316 317 317 317 318 317 319 320 321 321 323
302 299 289 296 293 296 297 298 302 307 311 307 309 308 303 308 307 306 300 304 304 298 296 299 310 312 313 314 314 314 314 316 316 316 316 316 316 317 319 320 321 321 321 322
300 300 291 294 301 303 306 307 308 309 313 311 310 309 308 305 303 305 302 298 297 298 301 309 315 317 315 315 315 316 315 316 316 317 317 317 318 318 319 321 322 322 321 321
302 301 298 303 299 300 302 304 305 310 311 313 310 304 301 300 301 298 297 296 296 303 310 315 317 316 315 315 316 315 316 317 317 317 318 318 319 319 319 320 321 319 318 317
299 299 304 303 303 303 305 307 309 314 311 306 309 298 298 304 300 297 305 303 306 311 313 318 318 316 315 316 316 317 316 316 315 315 316 318 320 320 320 319 320 320 320 319

GFSNW_sfc_thetae_048.txt.gz
Theta_e
310 310 310 310 308 307 308 313 307 318 316 303 305 303 308 308 310 311 308 308 307 307 308 307 308 307 310 314 314 309 313 309 305 307 314 316 313 311 311 304 307 308 307 306
310 310 310 309 308 307 311 312 312 317 313 299 301 306 307 311 309 308 308 305 308 309 307 305 309 310 313 314 312 311 313 308 302 305 310 314 311 311 313 314 315 309 302 306
309 310 310 309 308 308 309 314 306 309 309 307 305 305 306 306 310 308 309 307 308 307 305 310 308 309 313 314 313 323 316 311 309 301 307 310 309 310 312 312 308 308 308 311
309 310 310 310 309 308 308 313 310 313 302 303 304 308 307 305 304 308 308 306 305 305 303 305 306 309 311 314 319 314 314 311 309 309 310 310 310 310 311 308 309 306 310 312
309 310 310 310 308 306 311 311 310 312 310 310 306 303 304 304 306 307 305 304 306 306 304 306 305 308 310 310 315 313 313 310 310 306 310 309 308 310 309 312 311 310 311 312
308 309 310 310 308 307 314 314 314 310 307 307 306 305 306 305 308 309 309 309 307 306 308 310 311 313 314 317 316 318 315 311 311 303 308 308 305 309 311 311 314 312 309 316
308 309 310 309 308 306 311 314 312 308 303 307 306 307 308 306 308 306 309 311 309 312 319 318 316 314 313 315 316 318 320 322 313 305 310 299 309 315 313 312 315 319 320 322
307 308 309 310 308 307 309 315 311 309 304 308 308 307 307 309 309 308 308 312 314 320 316 309 306 306 309 309 312 314 316 317 310 305 303 307 309 313 312 310 311 323 319 320
307 308 309 308 308 306 309 315 314 311 305 305 309 308 308 306 308 309 310 314 319 317 312 308 303 298 303 302 305 313 315 324 311 309 302 300 312 319 320 320 310 320 317 315
306 307 308 308 308 307 306 312 315 311 305 308 308 306 307 310 309 308 314 315 313 317 308 303 301 300 306 301 304 307 309 312 308 307 305 308 319 319 322 309 312 322 323 322
306 306 307 308 308 307 306 312 314 310 307 309 308 309 308 309 309 305 310 311 313 311 308 305 304 304 307 307 311 310 309 309 307 310 306 303 328 318 310 315 318 326 327 337
306 306 307 307 307 307 306 309 314 313 306 308 312 310 310 309 310 308 311 311 315 314 311 311 312 307 310 311 304 316 308 315 305 314 313 322 329 330 336 336 338 333 333 334
306 306 306 307 307 306 305 308 313 312 308 308 308 308 313 314 315 315 308 313 314 315 316 313 312 310 312 305 306 311 317 316 307 313 322 323 325 333 334 336 334 332 333 334
307 306 306 306 306 306 305 310 314 312 310 303 308 317 311 315 316 314 315 313 317 317 314 310 309 308 314 310 309 308 312 315 315 319 322 324 330 332 335 336 337 332 333 334
307 306 306 305 305 306 305 312 315 315 308 304 307 312 313 314 315 313 314 314 314 313 309 308 306 313 311 311 311 307 315 314 311 315 326 327 331 337 335 333 332 333 333 334
307 306 305 305 305 306 308 308 315 314 314 307 302 313 312 313 314 312 313 314 313 310 309 309 311 316 311 305 304 312 318 320 316 317 330 332 333 335 334 332 333 334 335 336
307 306 305 305 306 304 305 305 309 305 312 308 302 303 311 313 312 311 311 314 310 310 308 309 310 311 310 307 303 315 317 313 319 321 327 325 328 329 332 331 332 330 331 330
307 305 305 306 306 304 304 311 307 307 311 308 301 304 308 313 306 305 311 308 309 309 307 308 308 309 310 303 309 312 313 316 320 320 323 326 332 328 327 327 325 323 322 325
306 305 305 305 305 307 312 309 310 315 311 304 301 300 301 313 307 309 311 311 303 309 304 304 306 304 301 305 309 309 315 317 317 320 321 321 323 326 321 318 321 321 320 321
304 303 303 303 310 311 310 309 307 306 307 306 302 306 303 310 307 304 305 308 303 299 303 307 302 301 309 309 311 315 315 315 318 319 319 318 319 320 315 320 321 319 319 320
302 303 305 312 308 309 308 303 302 303 300 303 302 303 302 311 305 306 309 305 304 300 302 301 300 300 306 314 316 315 314 314 315 320 323 322 323 322 321 319 322 320 322 322
304 306 311 308 305 304 299 299 301 300 298 303 301 303 305 311 312 307 308 302 304 297 304 303 299 312 314 314 313 314 316 316 317 319 319 320 321 320 321 320 321 321 322 323
309 307 303 303 302 292 293 292 297 297 303 306 305 304 305 307 309 305 306 301 298 308 301 299 305 316 315 315 314 314 315 315 315 315 316 317 317 319 319 318 320 321 321 322
302 299 289 296 294 296 297 299 300 305 306 306 306 305 302 305 304 305 298 302 304 298 292 294 310 315 315 316 316 315 314 316 315 315 316 316 317 318 319 320 321 321 320 322
300 300 290 295 301 302 303 307 307 310 311 309 307 307 305 305 302 305 302 299 296 298 300 307 313 317 316 315 315 315 316 316 316 317 316 317 318 318 319 321 321 321 321 320
303 301 298 300 300 301 304 305 304 308 308 309 309 303 301 300 301 298 298 296 296 302 307 311 315 316 316 316 316 316 318 317 317 317 318 318 318 318 319 320 321 320 319 319
299 299 304 303 303 302 304 305 307 311 309 305 304 299 299 304 299 299 303 302 307 308 310 311 312 316 316 316 317 317 316 316 317 316 317 318 320 319 318 317 320 320 320 319

GFSNW_sfc_thetae_051.txt.gz
Theta_e
310 311 311 310 309 307 308 312 303 315 312 300 301 297 302 303 306 309 306 305 304 301 303 302 303 303 307 310 308 303 304 302 297 301 308 310 306 303 301 296 294 298 296 299
310 310 310 310 308 307 303 307 309 314 310 294 295 300 302 305 305 307 304 304 305 305 301 299 305 307 312 311 308 303 308 299 292 296 301 307 304 304 301 302 300 296 295 299
310 310 310 310 309 308 303 308 306 307 307 304 299 298 301 302 308 307 307 305 305 302 300 302 303 305 310 312 310 322 311 301 299 292 298 305 305 307 305 301 298 298 299 306
310 310 311 310 309 308 303 309 308 311 300 300 300 301 302 302 302 307 306 303 303 300 296 301 301 305 306 311 316 309 304 298 302 303 305 306 305 306 307 304 301 297 304 307
309 310 310 310 309 307 306 306 306 307 305 309 306 301 301 302 304 305 303 301 304 303 297 300 300 302 302 305 314 312 307 298 305 299 305 306 304 307 309 308 309 307 306 307
308 309 310 310 308 305 311 313 312 309 304 303 303 302 305 304 306 307 308 307 304 303 305 310 309 308 306 305 305 308 311 302 301 296 305 304 299 304 307 310 309 309 302 309
308 308 310 310 308 306 303 312 309 304 301 303 304 306 306 305 308 305 308 308 306 313 316 314 312 309 307 309 307 308 307 308 307 299 302 293 303 310 310 308 311 312 311 313
307 308 309 310 309 307 302 309 308 306 301 304 304 305 307 307 309 308 307 309 312 315 312 305 302 301 302 305 308 307 306 306 300 297 296 302 306 309 311 306 311 316 316 317
307 307 308 309 309 307 303 308 313 307 303 301 305 302 308 303 303 306 308 313 315 313 308 304 297 294 300 300 302 306 305 309 304 299 296 296 304 315 318 316 306 318 318 317
307 307 307 308 308 307 303 305 313 308 303 307 306 302 303 307 305 304 308 308 311 313 303 300 299 297 303 296 298 299 299 300 300 301 297 301 319 316 318 299 306 319 317 317
307 307 307 308 308 308 304 305 311 307 304 306 309 307 305 305 304 301 304 307 311 309 303 300 300 300 302 302 305 306 301 298 298 300 298 296 326 322 308 312 319 321 323 325
307 307 306 307 307 307 306 305 312 314 306 304 309 310 309 308 308 304 306 304 310 310 306 307 308 306 307 305 300 310 304 309 308 310 307 316 320 322 325 319 319 321 315 316
308 307 307 307 307 307 305 302 309 311 307 307 306 304 310 310 311 311 304 310 311 312 313 307 309 305 307 301 303 305 311 313 307 306 311 315 321 326 325 329 325 320 318 317
308 307 307 307 306 307 305 301 308 310 308 302 306 315 312 315 312 315 313 310 314 314 313 307 305 305 312 306 306 304 309 312 308 309 313 316 318 325 330 331 332 329 330 333
308 307 307 306 306 306 304 304 310 314 307 301 304 311 312 311 313 312 312 312 311 308 306 306 303 308 308 308 308 305 311 308 306 306 314 314 312 313 330 331 330 328 331 334
308 307 307 307 306 306 302 307 311 308 311 305 301 310 310 312 312 310 310 312 313 310 306 306 309 312 307 301 302 310 314 314 317 313 315 316 314 315 329 326 326 327 326 326
308 308 307 306 306 303 300 302 306 305 308 306 301 302 310 312 311 309 308 310 309 307 305 305 305 307 307 302 298 310 311 317 317 317 315 312 313 311 322 323 326 324 324 324
308 307 306 306 305 304 300 307 307 305 308 309 300 302 305 312 304 303 309 306 307 307 303 304 303 307 305 299 305 310 314 316 315 317 316 314 315 313 321 324 320 317 318 318
307 307 306 303 302 304 311 312 311 313 310 303 302 298 300 310 306 306 308 310 301 307 302 302 303 302 298 304 305 307 313 312 315 316 315 317 319 319 319 321 320 317 317 316
305 302 300 301 311 313 312 307 306 306 308 307 301 305 300 308 307 305 307 307 303 299 301 304 299 298 304 309 309 310 313 311 311 308 314 315 317 318 320 318 318 319 318 318
299 300 303 311 310 309 307 303 302 302 300 303 301 301 299 311 305 305 307 303 303 297 301 301 298 296 304 310 311 314 312 312 313 317 319 321 319 317 317 319 319 319 319 319
302 302 306 309 305 304 301 298 301 300 297 304 300 301 303 310 314 307 307 302 303 296 307 301 297 306 311 311 312 313 313 314 315 316 315 318 318 317 316 316 318 319 319 320
308 304 304 301 301 293 293 291 296 298 304 306 304 301 304 309 308 305 306 300 298 306 301 297 302 307 310 312 312 313 313 314 315 314 315 315 317 318 317 317 318 318 319 320
301 299 288 294 294 295 296 298 300 304 307 306 306 305 302 305 304 303 301 303 303 297 294 295 305 307 308 312 313 313 314 315 314 315 316 316 317 317 318 318 319 318 317 318
300 299 289 294 300 301 302 306 307 309 311 309 308 308 307 304 303 304 302 298 295 298 298 304 308 311 311 311 313 314 314 314 314 315 315 316 316 317 316 318 318 318 317 316
302 302 297 299 299 300 304 305 306 311 310 310 309 306 302 301 302 299 297 296 295 300 306 308 309 309 310 311 314 315 315 315 315 315 315 316 316 316 317 318 317 316 316 315
299 298 303 302 304 304 306 306 308 316 310 305 305 300 298 303 299 297 303 299 303 307 308 311 312 312 312 313 315 314 314 313 314 314 314 314 317 317 316 314 315 317 316 315

GFSNW_sfc_thetae_054.txt.gz
Theta_e
310 311 310 310 309 307 304 300 297 308 309 295 293 291 296 301 301 304 301 301 299 297 299 296 297 300 304 308 305 299 300 295 293 298 304 308 301 298 294 292 291 293 293 296
310 310 310 310 309 307 298 296 300 307 304 290 290 294 298 301 300 301 300 299 301 300 296 292 299 303 308 308 305 298 303 293 290 294 296 300 300 301 298 296 294 292 292 296
310 310 310 310 309 308 300 298 299 301 298 294 292 291 294 297 305 302 302 301 300 298 296 295 295 299 306 309 312 323 307 295 292 290 293 301 300 303 302 298 294 294 295 303
309 310 310 310 309 308 299 299 298 301 296 295 295 293 295 295 297 303 302 297 299 296 291 294 295 300 301 305 314 310 300 293 300 298 301 302 302 302 304 300 298 296 300 306
308 310 310 310 309 306 298 298 299 302 298 299 296 294 292 296 299 299 299 297 301 298 294 293 293 299 295 297 304 304 305 296 298 295 302 303 302 304 305 305 305 303 307 305
308 308 310 310 308 304 298 305 304 302 300 296 296 296 300 302 303 303 303 303 300 302 304 305 303 302 301 299 303 300 304 301 298 291 300 301 294 301 304 306 307 304 301 308
308 308 308 310 308 304 296 297 301 299 296 298 300 301 301 302 302 299 304 303 300 307 311 309 305 303 302 303 301 303 298 297 301 296 297 289 300 306 308 308 315 314 309 312
309 308 308 309 309 307 296 296 299 297 295 300 299 299 302 302 302 301 305 307 305 308 306 299 295 296 296 299 302 299 301 299 295 294 293 298 304 308 309 306 310 316 312 316
309 307 307 308 309 307 297 298 302 298 294 295 302 298 300 297 298 303 305 307 308 306 301 299 291 289 293 294 299 298 298 299 297 294 291 291 302 315 317 315 303 317 316 317
309 307 307 307 309 307 299 296 300 299 294 298 299 295 297 301 299 298 301 302 306 306 299 296 294 295 298 292 292 293 294 293 293 294 294 298 316 322 320 299 301 317 316 314
309 307 307 307 308 308 300 296 300 299 293 296 302 302 296 297 298 295 298 301 302 304 299 296 296 296 299 293 299 300 295 295 292 294 293 292 318 319 305 309 313 317 317 316
309 307 307 307 307 307 305 296 303 305 297 295 301 304 304 301 300 298 298 298 301 304 300 301 301 302 302 300 296 304 298 301 298 304 301 310 317 313 314 316 316 319 320 325
309 308 307 307 307 306 304 293 297 302 298 299 298 298 303 300 301 303 297 302 304 303 305 301 301 299 302 297 300 300 304 309 303 302 307 310 313 313 313 314 314 319 322 323
309 308 307 307 307 307 305 292 297 300 298 293 297 306 303 306 305 305 305 304 304 304 305 300 298 300 305 301 300 300 304 305 304 304 308 310 312 311 314 314 319 324 328 326
309 308 308 307 307 306 301 295 297 302 298 294 296 302 305 303 305 303 305 303 302 300 297 298 296 302 301 301 303 301 305 303 299 298 308 308 309 312 315 315 314 317 323 326
309 309 308 308 306 306 296 299 301 300 301 297 293 301 299 301 302 300 302 301 302 302 297 296 301 303 300 295 297 305 309 311 308 306 313 312 313 316 318 316 320 321 320 325
309 308 307 307 306 297 294 298 302 302 299 299 295 294 301 304 301 301 300 300 300 298 296 297 299 301 300 295 293 307 309 309 314 314 312 310 311 310 320 319 318 318 320 323
309 308 307 306 305 302 294 297 303 299 300 301 292 294 297 302 298 297 301 298 299 299 297 295 298 300 298 293 299 305 310 312 313 313 313 311 312 314 316 322 321 319 318 319
308 307 306 299 296 295 302 313 307 301 302 296 295 290 293 302 298 299 300 299 295 299 295 294 297 295 293 296 299 303 308 306 306 312 312 314 314 315 319 319 319 316 316 317
306 299 296 294 300 313 309 299 298 298 298 297 292 295 292 299 299 300 300 300 297 294 295 296 293 292 297 301 302 305 309 306 303 302 306 312 315 316 316 316 318 317 316 314
295 293 295 305 311 300 299 296 294 293 292 293 293 293 291 297 298 298 300 296 296 290 294 295 292 295 301 305 304 306 304 310 314 315 314 315 315 317 316 316 317 316 317 315
298 299 300 301 298 298 295 292 294 293 292 295 292 293 294 300 305 298 299 295 296 290 299 294 292 298 303 306 309 310 307 310 311 313 315 316 318 317 314 315 316 317 317 316
302 299 299 296 295 288 291 289 290 290 295 297 295 292 298 298 298 299 298 295 292 299 295 293 295 300 303 306 310 313 311 311 312 313 314 317 315 315 315 314 316 316 315 315
296 296 286 290 290 292 292 292 292 296 298 295 296 295 293 296 294 295 292 296 300 293 289 292 296 298 303 304 306 311 311 311 312 313 313 313 315 315 315 316 316 315 313 313
296 297 287 292 295 294 295 295 297 300 299 298 298 298 295 295 296 297 294 293 292 294 292 295 301 304 302 305 311 312 311 310 309 311 312 313 313 313 312 314 315 314 312 311
298 298 293 294 291 292 294 298 298 301 300 300 300 296 295 296 295 295 293 293 292 293 297 301 302 303 306 309 311 310 310 309 308 309 309 310 312 311 310 311 311 311 311 309
298 295 297 295 295 297 298 298 299 304 300 296 297 294 294 296 293 294 297 295 297 300 301 303 304 304 305 307 308 308 308 307 308 308 308 309 311 311 310 309 309 309 309 308

GFSNW_sfc_thetae_057.txt.gz
Theta_e
309 309 310 310 309 307 301 296 296 303 303 292 290 289 293 299 298 300 299 298 297 295 297 294 294 297 301 306 303 296 295 292 291 295 300 303 297 294 294 290 288 290 291 294
309 310 310 310 309 306 298 292 296 307 300 289 289 291 295 298 296 297 297 298 299 298 295 291 296 299 305 307 307 300 299 291 288 291 295 298 298 298 295 292 291 291 291 294
309 309 310 310 309 308 300 294 298 299 296 292 292 291 293 294 301 299 299 298 298 295 293 294 294 297 303 305 308 322 305 291 291 289 292 297 298 300 300 295 291 291 293 297
309 308 310 310 309 308 298 295 295 299 293 294 294 294 295 294 294 300 298 295 298 296 290 292 292 298 300 303 310 306 300 291 296 295 299 299 300 300 301 297 295 294 296 302
309 308 309 310 309 306 297 295 298 300 298 296 296 295 293 296 297 298 298 295 298 296 292 294 295 298 294 295 301 298 302 297 295 292 300 301 300 302 303 302 302 301 304 304
309 308 308 309 308 302 294 301 304 300 297 297 293 293 297 299 300 301 302 302 299 300 303 304 301 301 302 298 300 297 300 296 296 294 298 298 292 298 301 302 304 304 301 305
309 308 308 309 308 303 295 295 299 295 294 295 298 299 299 300 301 298 302 301 301 306 308 307 300 299 300 300 298 298 296 294 298 295 294 287 296 305 306 307 313 312 307 308
309 309 308 308 309 307 296 293 297 295 293 297 298 299 299 300 300 301 303 306 305 304 304 297 293 294 294 296 300 298 297 296 291 292 291 296 303 308 307 303 303 314 311 311
309 309 308 307 308 307 295 293 298 295 293 294 300 297 298 296 296 301 304 306 306 304 298 297 289 288 291 292 296 294 297 295 293 292 288 288 299 316 319 313 299 314 315 314
309 309 307 308 308 307 299 294 296 295 292 296 296 295 295 299 297 297 298 299 305 303 295 295 293 291 296 291 289 290 290 291 291 291 290 296 310 314 318 298 298 312 314 313
309 309 307 307 307 307 300 295 297 296 291 294 298 300 295 295 296 294 296 301 301 301 298 295 293 294 297 296 298 296 295 294 291 291 289 290 313 313 304 306 310 315 316 319
309 309 307 307 307 307 303 294 299 301 296 295 297 302 303 300 298 297 297 298 299 303 298 299 298 299 299 296 295 301 297 299 297 300 299 308 313 309 312 310 311 316 314 318
309 309 308 307 307 306 303 292 293 298 296 297 298 297 298 298 298 300 296 299 302 302 302 300 300 297 300 295 297 298 304 305 301 300 306 308 312 313 313 314 314 317 321 322
309 309 308 307 308 307 304 291 292 297 295 291 296 305 300 304 302 303 302 302 302 302 303 298 296 297 303 298 298 299 302 303 301 301 304 306 312 311 311 314 316 319 321 319
309 309 308 308 307 306 300 294 294 298 296 292 294 300 302 301 303 303 301 300 299 298 296 297 295 298 300 299 301 300 304 301 297 296 304 305 306 311 313 315 316 317 315 314
310 309 308 308 307 304 294 297 298 296 299 293 291 298 299 298 300 299 300 299 299 298 295 294 296 301 298 294 297 304 307 309 306 304 310 310 312 313 317 316 314 315 318 322
309 309 308 307 306 295 291 296 299 300 298 295 294 292 298 300 298 298 297 297 297 296 293 294 297 298 298 294 292 304 309 308 309 311 310 307 311 309 315 317 318 318 318 320
308 308 307 306 306 301 292 295 302 298 297 299 291 292 295 300 295 294 297 295 296 296 294 293 296 298 296 292 297 303 307 309 310 312 313 309 309 311 312 317 319 318 318 318
308 308 306 298 296 291 297 309 304 301 301 295 292 289 291 299 295 296 298 297 293 296 293 291 296 293 291 293 297 302 306 307 306 308 310 310 312 311 313 317 316 314 316 317
306 298 295 292 298 309 309 296 295 296 296 295 291 293 292 297 295 296 298 298 295 293 294 294 290 289 298 302 301 300 305 307 301 303 304 307 309 312 313 314 315 315 316 317
294 292 293 301 311 300 297 294 292 291 290 292 293 292 291 295 297 295 296 294 293 289 293 293 292 294 300 304 305 304 304 309 311 310 311 310 310 313 314 314 316 315 315 314
296 297 299 300 298 297 294 292 293 291 290 292 290 291 291 294 301 296 295 293 294 289 297 293 292 297 300 302 307 307 306 308 309 310 313 314 315 312 311 315 315 315 316 316
301 296 297 294 294 286 290 287 290 289 294 294 292 291 296 294 298 297 295 293 292 297 294 292 294 297 300 303 305 308 310 310 310 312 313 313 313 313 313 312 314 314 313 313
295 295 287 290 288 291 292 292 292 294 295 294 293 292 292 293 293 293 292 295 296 291 288 291 294 296 300 301 305 308 308 310 311 310 311 311 312 313 314 313 312 312 311 311
295 297 288 291 295 294 293 293 293 296 296 296 296 295 293 293 295 294 292 291 291 292 291 293 298 299 299 303 308 309 311 311 309 308 309 310 311 310 310 311 310 309 309 307
297 297 294 294 290 292 291 294 294 297 297 298 297 293 293 293 294 293 291 291 290 291 295 298 298 301 303 308 311 312 311 307 306 305 306 308 309 308 308 309 308 307 306 305
297 294 296 293 293 296 297 296 298 300 299 295 295 292 291 294 291 292 294 292 294 297 298 300 301 301 302 306 307 307 307 305 305 305 307 307 308 308 307 305 305 305 305 305

GFSNW_sfc_thetae_063.txt.gz
Theta_e
310 310 310 310 309 307 302 298 295 307 306 297 296 296 298 298 301 302 301 302 300 298 299 300 300 301 305 307 308 303 304 304 301 302 305 306 306 306 307 300 300 301 301 301
310 310 310 309 308 307 300 295 297 309 304 294 295 297 297 299 299 300 299 300 302 302 301 299 300 302 306 307 310 308 305 302 299 300 303 305 305 304 305 305 306 303 300 303
310 310 310 309 309 308 301 297 301 303 302 298 296 297 298 298 301 300 300 300 302 301 301 302 300 302 305 307 308 315 311 302 302 298 301 304 305 304 304 307 304 304 304 307
309 309 310 310 309 307 303 299 299 302 298 299 299 299 299 298 297 301 301 300 299 300 300 300 300 304 305 306 311 311 309 305 304 304 303 304 305 306 305 305 307 305 308 307
310 309 310 310 309 304 303 298 301 304 300 302 300 298 300 298 300 301 300 299 301 301 301 303 301 305 306 305 308 308 309 308 307 304 305 306 303 305 306 306 305 307 309 309
310 309 309 309 307 301 295 299 305 302 300 301 299 300 300 300 302 304 304 302 302 299 302 305 308 309 309 308 307 307 308 308 307 300 306 304 301 303 305 308 311 311 308 313
309 309 309 309 308 304 301 297 300 299 299 300 301 301 301 300 302 301 305 307 307 308 312 310 308 307 307 307 307 307 306 308 308 303 304 295 304 318 315 314 314 316 316 318
309 308 309 308 308 304 304 301 297 299 296 299 301 300 301 302 304 303 306 308 310 311 309 305 302 302 302 303 303 305 305 306 302 300 301 302 309 314 314 314 310 316 317 319
310 309 309 308 308 307 303 300 299 300 296 297 301 300 299 300 301 305 306 309 311 309 306 303 297 295 298 298 300 304 305 307 302 301 297 294 308 314 316 318 308 316 318 319
310 310 309 309 308 307 305 301 300 301 296 300 302 299 297 300 301 301 301 303 309 309 303 299 297 297 300 297 297 301 302 303 299 299 297 301 313 314 317 306 307 317 320 320
310 310 310 309 307 307 304 299 301 301 298 300 301 302 299 300 301 299 303 306 308 309 305 301 301 300 304 304 305 305 304 303 301 299 297 295 315 313 310 314 317 317 320 321
311 310 310 309 307 307 301 295 301 302 299 302 303 306 307 305 304 300 304 306 306 309 308 306 307 306 307 305 302 309 305 309 309 309 306 314 317 314 316 316 315 316 317 320
310 310 310 309 307 306 304 298 299 302 300 302 302 301 304 306 306 306 302 306 309 309 309 309 309 305 308 304 303 307 311 312 310 307 312 314 316 318 317 317 316 319 321 320
310 310 310 309 308 307 305 298 298 298 301 297 301 308 307 309 305 306 307 309 309 310 310 308 306 305 310 307 307 306 310 311 309 306 310 312 315 318 318 317 319 319 320 321
310 310 310 310 309 307 305 302 301 300 301 297 299 305 307 307 306 308 309 310 310 309 306 307 305 307 309 309 309 307 312 308 304 302 310 314 313 316 319 317 317 319 321 321
311 310 310 309 308 303 296 298 301 299 302 300 296 304 306 307 308 308 308 309 308 309 307 306 306 307 308 305 304 311 314 315 312 312 316 317 319 320 320 318 319 320 322 322
310 309 309 308 306 303 294 297 302 301 304 300 295 300 305 305 305 305 306 306 306 306 304 305 308 308 308 306 302 312 314 315 317 317 317 314 316 315 318 318 319 319 324 324
309 308 307 307 306 304 298 300 304 302 297 302 298 299 302 305 304 303 304 305 305 304 303 303 306 307 307 302 304 308 313 315 316 317 320 319 320 319 319 320 320 321 321 322
308 308 307 303 299 293 296 307 307 301 301 299 299 296 298 305 303 305 306 305 301 304 303 302 304 303 300 303 307 309 310 312 314 315 313 315 316 317 318 320 320 319 320 321
307 300 296 291 296 303 306 302 299 298 301 301 298 302 300 304 304 304 306 306 303 300 303 304 301 301 306 309 311 312 311 311 311 311 313 316 317 318 318 318 319 319 320 320
298 293 293 302 309 303 298 294 293 294 293 297 300 300 300 303 303 303 305 303 302 298 301 301 300 301 307 310 312 314 313 313 314 315 319 320 319 318 318 319 319 320 320 319
299 297 302 303 302 298 294 295 296 293 290 296 297 300 301 302 307 305 304 301 301 294 305 301 298 305 307 309 311 314 316 317 316 319 319 318 318 320 320 320 318 318 318 317
303 299 298 297 295 289 290 290 293 294 298 298 296 296 300 303 307 304 304 298 297 305 300 298 303 307 308 310 312 314 316 317 317 317 318 319 319 320 320 319 320 319 315 316
297 296 289 291 290 292 295 296 297 301 299 298 298 299 300 301 302 303 297 301 303 296 294 296 305 307 309 311 313 314 313 314 315 316 317 317 318 318 318 317 317 316 315 314
297 297 289 291 296 298 299 300 299 299 301 299 299 300 302 301 300 301 300 297 294 297 298 304 308 308 310 313 314 314 312 311 311 312 314 315 317 316 315 316 315 314 313 312
297 297 295 298 295 296 297 298 298 301 301 302 303 300 299 298 300 297 294 294 293 300 305 308 310 310 312 313 314 311 312 312 312 313 314 316 316 316 315 314 313 312 312 311
297 297 300 299 298 297 299 299 300 303 303 301 301 297 296 300 298 297 302 300 304 306 307 309 313 313 313 314 314 313 310 311 314 315 316 316 317 317 314 312 312 312 312 313

GFSNW_sfc_thetae_066.txt.gz
Theta_e
311 311 311 310 309 307 305 304 298 314 313 300 300 297 301 300 304 307 305 305 303 302 303 303 304 305 309 312 313 306 310 308 303 305 310 312 311 309 310 303 304 306 304 304
310 311 311 310 308 307 304 299 302 314 311 297 298 300 300 302 303 304 303 303 304 305 303 301 305 306 310 312 312 311 311 306 301 303 307 309 307 309 310 311 312 306 302 305
311 310 311 310 309 308 305 301 301 309 306 306 302 300 299 299 304 303 304 304 306 304 303 306 304 305 308 310 314 317 314 310 307 301 305 308 306 307 309 310 305 305 307 308
311 310 310 310 309 308 306 304 304 308 304 302 301 303 303 302 301 306 306 304 303 303 301 303 303 307 308 309 311 316 316 309 309 308 308 307 308 307 308 307 309 307 309 310
311 309 310 310 309 306 308 305 306 310 307 307 304 301 303 303 305 306 304 303 305 305 303 305 303 306 308 307 311 313 315 309 311 308 307 308 306 308 310 310 310 311 312 314
311 310 309 309 307 306 301 305 310 308 306 306 303 305 304 304 307 308 308 307 306 305 306 309 310 313 314 314 311 308 309 310 308 303 308 307 303 308 309 311 313 314 309 320
311 310 309 308 307 305 304 303 302 305 303 306 304 304 306 305 306 306 309 312 309 313 316 315 314 313 312 312 313 314 309 310 309 303 307 298 313 320 317 312 318 320 321 323
311 309 309 309 307 306 307 306 302 306 301 303 303 304 304 308 309 308 308 312 316 318 314 309 307 305 306 307 309 311 313 310 304 301 301 305 311 318 317 315 315 321 321 324
312 309 309 309 308 307 306 305 306 305 301 302 302 302 304 304 306 309 311 314 320 316 312 307 302 298 302 302 305 312 310 313 305 303 298 296 313 318 321 322 312 322 324 325
312 311 310 310 308 307 306 305 306 306 302 304 304 304 303 305 306 307 307 311 312 317 308 304 302 301 305 300 300 303 305 305 301 301 300 305 316 318 322 310 311 321 323 325
312 311 311 310 308 307 305 304 307 304 304 305 306 305 302 303 306 305 309 309 313 309 304 301 302 300 305 303 308 306 304 303 301 303 300 298 318 317 314 317 321 320 322 323
312 311 311 310 308 307 304 300 309 310 304 306 311 310 310 308 307 304 309 312 312 311 309 310 311 305 309 306 300 314 305 312 310 310 310 317 320 319 320 320 319 321 322 323
312 311 311 310 309 307 305 303 303 303 305 306 307 306 311 312 312 312 305 313 314 315 317 315 314 306 310 304 306 310 315 317 314 312 313 315 319 322 322 322 321 322 324 324
312 311 311 311 309 308 306 304 303 301 304 301 304 314 311 315 313 312 311 311 317 317 315 313 309 306 315 310 311 309 315 315 311 308 311 315 317 319 321 321 322 322 324 325
311 311 311 311 309 308 308 307 305 303 300 301 303 308 312 314 313 310 312 315 315 309 307 308 307 314 313 317 313 308 314 312 308 305 315 315 317 320 323 321 321 323 324 323
311 311 311 310 309 306 305 298 307 304 305 304 300 311 310 311 312 313 314 313 312 309 306 307 313 315 313 307 305 316 316 314 315 315 318 317 320 321 323 323 323 323 324 327
310 310 309 309 307 307 301 299 304 303 307 304 301 304 310 311 312 312 311 314 312 310 310 306 308 311 312 308 303 315 314 315 319 320 320 314 317 316 321 322 324 323 326 327
310 309 308 307 307 306 303 306 304 306 305 305 300 304 306 311 307 306 313 307 308 309 309 310 307 312 311 303 311 315 317 317 317 317 321 319 320 322 322 323 324 323 323 324
309 308 307 306 302 300 303 309 307 304 303 300 303 301 299 310 309 311 309 310 303 311 304 306 307 305 303 309 310 314 316 315 316 317 316 317 318 319 321 322 321 322 322 320
307 303 298 299 302 308 307 306 301 299 301 303 299 307 304 307 307 305 307 308 306 301 307 311 303 303 313 313 315 317 317 317 318 314 313 315 316 320 320 320 322 323 323 323
301 295 296 307 309 309 304 300 298 299 296 300 301 304 305 311 304 304 311 307 308 300 305 304 303 302 311 314 316 320 318 317 317 320 322 320 321 319 320 320 321 321 323 323
301 300 308 311 307 304 297 296 297 295 295 299 299 303 307 311 316 308 309 305 306 297 310 303 299 309 315 315 316 319 319 320 320 321 320 320 321 320 320 319 320 317 319 323
304 303 303 303 301 290 291 289 294 295 300 301 301 300 305 311 312 310 307 301 301 309 302 300 305 313 315 317 320 318 320 320 320 320 321 320 319 320 319 319 321 323 321 321
299 298 289 294 292 294 296 296 297 303 304 302 301 302 306 309 306 309 300 305 305 298 295 297 307 314 315 318 320 318 316 318 318 319 319 318 318 318 320 320 321 321 319 319
299 299 290 294 299 302 302 302 304 306 307 304 301 305 306 305 303 306 304 299 296 299 300 306 312 316 316 316 318 317 317 316 316 317 317 317 318 320 320 321 321 319 319 317
301 300 298 301 299 298 299 300 301 306 306 305 305 303 301 301 303 298 297 295 294 301 308 312 315 316 317 318 316 316 318 318 317 314 316 317 318 320 321 321 321 319 317 316
298 299 303 302 301 300 301 304 303 308 304 299 301 298 298 305 298 297 304 301 306 310 312 314 317 317 317 318 315 313 315 316 315 318 319 319 321 321 319 317 318 318 318 316

GFSNW_sfc_thetae_069.txt.gz
Theta_e
312 311 311 311 309 307 307 306 301 317 317 304 304 300 303 302 306 309 307 307 306 305 306 305 306 306 309 314 314 308 312 309 305 307 313 314 313 310 310 304 304 307 306 305
312 311 311 311 309 308 305 303 304 317 313 300 303 305 303 305 304 306 306 305 307 307 305 303 306 309 313 314 314 312 313 307 302 305 309 312 309 311 312 312 311 307 303 305
312 311 310 311 310 309 306 304 301 310 310 309 305 304 302 301 305 304 306 306 308 306 304 308 305 308 310 312 315 321 319 310 307 301 306 309 307 308 310 310 306 306 307 308
312 311 310 311 310 309 306 307 304 312 306 304 305 305 305 303 303 307 308 305 305 305 303 304 305 307 310 311 311 314 315 308 310 310 308 310 309 308 308 308 309 306 309 313
312 311 310 310 309 308 308 305 308 312 309 312 308 304 304 305 307 308 306 306 306 307 304 305 304 307 309 309 313 312 316 310 313 308 309 309 307 309 309 309 310 310 309 310
313 311 310 309 308 306 306 308 308 309 306 309 308 306 304 305 308 310 311 309 308 307 308 311 311 312 314 314 313 311 312 311 310 304 308 308 304 307 308 310 311 311 311 322
312 311 310 309 308 306 308 307 304 304 302 306 305 307 307 307 309 307 311 312 312 315 320 317 314 312 313 314 313 315 312 312 310 304 306 297 312 319 315 312 318 320 324 324
313 311 310 310 308 308 308 309 304 305 303 307 307 307 305 309 312 311 311 314 318 321 316 309 306 305 308 309 311 312 313 311 306 302 302 307 313 317 315 313 317 324 323 325
313 312 310 310 308 308 308 309 310 305 304 304 307 305 308 306 306 310 311 317 320 318 313 307 302 300 303 303 306 313 313 314 307 305 300 298 314 320 325 323 312 325 326 326
313 312 310 311 309 308 307 308 312 306 303 308 307 305 305 309 308 308 311 313 312 315 309 303 302 300 307 301 302 306 306 307 302 302 300 304 318 320 324 308 313 324 325 325
314 312 312 311 310 308 307 308 313 305 303 307 309 308 306 307 309 306 309 310 312 309 305 306 304 303 304 305 307 306 305 305 303 304 301 298 321 318 315 319 324 323 324 325
314 313 312 311 310 309 307 305 312 311 305 306 311 310 311 311 310 307 311 314 312 313 309 309 309 305 308 306 301 315 303 308 310 313 311 321 322 320 322 322 321 322 323 324
313 313 312 311 311 309 307 307 307 304 302 306 308 307 313 315 314 314 306 316 317 316 318 313 310 307 309 303 305 307 315 320 308 309 316 318 321 322 323 323 322 323 324 325
313 312 312 312 311 309 307 308 309 304 302 300 306 314 312 316 316 315 314 312 317 318 314 310 309 306 312 307 310 311 313 313 313 313 314 316 319 321 322 322 323 323 325 325
312 312 312 311 311 309 308 310 310 309 300 300 304 310 312 314 316 314 314 314 315 311 308 308 307 311 311 312 309 308 314 314 309 307 318 316 320 322 322 321 322 324 324 325
312 312 311 311 310 308 306 303 311 310 305 302 301 314 313 313 314 314 314 314 313 310 308 308 309 314 312 305 305 314 317 316 317 316 319 319 320 321 321 320 322 325 325 327
311 310 310 309 309 308 305 304 306 303 307 303 301 305 312 313 313 313 312 314 310 310 308 307 307 310 310 307 304 314 316 318 318 319 317 313 317 317 320 321 322 323 327 329
310 309 309 308 308 307 304 309 306 308 307 305 301 304 308 312 307 306 313 309 310 309 307 311 308 311 311 304 313 316 316 317 315 315 318 316 318 319 320 322 323 322 323 326
309 309 308 307 303 304 308 309 308 308 306 301 301 302 302 312 309 311 311 310 303 311 305 305 309 306 304 309 312 314 316 314 314 317 315 316 316 318 319 320 320 322 323 326
308 305 300 303 308 309 311 308 305 303 303 303 299 308 306 309 308 307 307 308 306 302 305 312 305 302 315 314 316 318 317 317 316 314 312 315 315 317 318 321 323 323 322 323
301 297 296 311 309 306 305 301 300 302 299 301 301 304 305 311 306 305 310 308 307 301 306 304 304 304 312 317 315 320 318 318 318 319 319 319 319 318 319 322 321 320 321 321
302 302 308 308 305 302 298 297 301 299 297 300 299 302 308 311 316 309 309 305 308 300 313 306 301 313 318 317 317 319 319 320 319 320 319 319 318 319 319 320 320 320 320 321
304 303 301 302 301 293 293 292 297 297 302 303 300 302 308 314 312 308 307 301 302 312 304 301 309 317 318 319 319 319 322 321 320 319 319 319 318 319 317 318 320 321 322 322
301 298 293 296 295 298 299 300 301 305 307 304 301 303 306 310 307 308 301 305 309 300 297 299 310 316 318 319 321 320 319 319 318 318 319 317 317 317 318 318 321 320 319 320
298 301 293 297 302 304 306 305 304 309 308 306 301 303 308 307 304 305 303 300 296 300 301 307 316 319 320 320 321 320 319 319 320 319 319 319 319 320 320 320 321 321 321 320
303 302 299 302 302 301 302 304 305 307 306 308 305 302 302 301 302 299 298 296 296 303 308 313 319 320 320 320 321 320 319 318 319 320 318 320 319 319 321 321 321 321 319 318
300 300 305 303 302 302 302 304 301 307 305 301 301 298 298 303 298 298 302 301 305 309 311 315 321 320 320 320 319 316 317 318 318 318 320 321 322 321 321 318 319 319 318 317

GFSNW_sfc_thetae_072.txt.gz
Theta_e
315 313 312 311 310 307 307 307 301 318 319 305 306 302 304 302 306 309 307 307 306 304 304 304 305 304 308 313 313 307 310 307 304 305 312 314 311 309 308 302 303 306 305 304
315 313 312 311 310 308 303 303 306 313 314 298 302 307 306 305 305 305 305 305 307 308 304 302 305 306 311 313 312 312 314 306 301 303 308 311 308 309 310 311 311 305 302 304
315 313 311 311 311 309 305 303 301 307 312 308 304 303 304 304 308 305 306 305 307 305 304 307 304 305 309 313 312 323 318 310 309 299 305 309 307 308 309 309 306 306 305 312
315 313 312 311 311 310 306 307 304 308 303 307 308 307 305 303 303 309 306 305 304 303 301 303 303 306 307 310 315 312 314 310 309 308 308 307 307 307 308 306 308 304 308 314
314 313 311 311 311 308 305 304 303 308 306 309 308 305 305 303 304 307 306 306 305 306 304 304 303 306 307 307 312 310 314 310 311 307 309 309 306 308 309 309 308 308 309 314
315 313 311 311 310 306 308 310 308 303 302 306 307 307 307 304 308 309 310 310 308 306 306 312 312 310 311 311 312 311 312 312 310 304 306 306 302 308 310 309 311 312 309 319
315 313 312 311 310 307 306 307 307 300 298 303 305 308 308 308 308 306 308 311 309 314 320 318 314 312 310 310 312 315 307 307 311 304 309 297 307 316 318 315 320 323 320 317
315 313 312 311 310 309 306 308 306 301 298 304 306 307 307 309 310 309 309 312 316 319 315 309 306 305 306 307 310 312 313 311 305 302 301 305 309 311 312 316 315 323 312 320
315 313 312 311 311 310 307 308 311 305 299 300 306 305 308 305 305 307 311 316 320 317 311 308 302 298 301 301 305 312 312 317 306 305 299 297 308 310 312 316 312 323 325 324
315 314 313 311 311 310 307 307 313 305 299 303 306 304 304 308 306 305 311 312 313 315 308 304 301 301 308 301 302 306 305 308 303 302 299 303 317 316 320 303 312 323 324 324
315 314 313 311 311 310 308 307 313 306 300 302 305 308 306 307 307 304 309 309 312 310 306 301 302 303 307 305 305 306 305 303 302 305 301 298 321 320 315 321 324 322 323 323
314 314 313 312 311 310 308 304 312 310 304 303 308 307 309 308 309 306 308 310 308 313 307 310 306 303 308 306 298 311 303 303 308 312 311 322 321 320 322 324 321 321 322 324
314 314 313 313 312 310 308 306 309 308 302 303 305 305 312 313 311 312 305 312 313 315 318 311 311 305 307 302 305 307 312 314 311 311 318 319 319 321 322 322 321 322 323 324
314 314 313 313 312 310 308 306 311 308 302 298 304 313 312 315 315 315 314 313 314 315 316 310 307 306 309 304 306 309 309 308 302 310 317 317 320 321 321 322 325 323 323 324
313 313 313 312 312 310 309 309 310 312 302 297 299 304 310 314 313 314 314 314 314 312 309 307 304 309 310 311 309 308 310 306 308 307 317 314 320 321 320 320 320 322 321 322
313 312 312 311 311 309 307 302 312 313 309 299 297 309 310 315 313 313 313 313 313 312 308 307 310 315 310 304 303 313 316 317 315 314 314 321 319 321 321 319 318 321 321 324
312 311 310 310 310 308 303 304 308 307 309 301 300 302 310 314 312 310 310 315 312 309 307 307 307 307 310 306 301 313 316 319 319 321 320 316 317 314 317 319 320 320 323 326
311 310 309 308 309 306 303 309 308 308 306 305 298 302 307 313 306 305 311 308 310 309 306 307 306 308 308 304 311 316 317 317 316 315 316 314 317 319 319 320 319 319 321 326
310 309 308 307 304 304 308 312 309 308 306 301 300 297 299 311 307 309 311 310 303 309 305 305 307 304 302 310 312 315 316 315 314 316 314 314 316 316 318 320 322 322 322 324
308 305 299 301 309 311 310 307 303 303 304 304 297 303 300 308 307 307 308 307 303 302 306 308 303 303 314 315 317 318 317 315 314 311 311 315 312 316 318 321 322 323 321 322
302 298 297 309 309 307 303 301 300 302 299 303 300 300 298 309 304 305 308 306 306 300 304 304 302 303 310 316 317 317 314 315 314 315 316 317 319 319 320 319 319 319 318 315
303 303 306 310 303 303 299 297 301 301 299 304 299 299 303 308 314 309 309 304 307 299 311 305 300 313 317 316 316 317 316 317 316 317 319 319 319 321 320 321 319 318 318 317
305 304 301 301 301 293 294 293 297 299 303 304 301 298 303 311 312 310 307 301 302 309 304 301 309 318 318 318 316 317 319 318 317 317 319 319 319 320 320 319 320 322 319 321
300 298 291 297 296 298 300 300 302 306 306 305 303 300 303 307 306 306 302 305 306 300 297 300 314 318 318 317 316 316 316 317 317 318 319 319 320 318 320 319 320 321 321 321
299 302 292 298 303 304 304 306 306 308 309 308 302 301 302 304 303 305 302 301 298 300 300 311 316 321 319 318 320 318 316 318 318 319 318 319 319 317 317 321 321 321 319 319
301 303 300 303 301 302 304 305 305 310 309 307 303 299 299 300 303 300 299 297 295 301 312 316 319 322 321 320 319 319 319 319 319 319 320 320 320 318 321 322 321 318 320 319
298 301 306 305 303 303 305 306 306 310 306 301 301 296 297 303 300 298 303 299 306 310 313 318 325 324 321 321 319 316 317 316 316 317 318 318 320 321 321 319 320 319 319 319

GFSNW_sfc_thetae_075.txt.gz
Theta_e
318 316 314 312 310 307 305 302 298 315 315 301 302 298 302 302 303 305 303 303 302 300 301 299 300 300 304 310 308 303 307 302 298 300 307 310 307 304 303 294 292 295 294 295
318 316 314 312 309 308 300 298 302 312 310 295 296 300 303 305 304 302 302 301 303 303 300 296 302 303 307 309 308 306 305 301 296 294 300 305 303 306 303 300 297 294 292 297
317 316 314 312 311 310 303 299 298 305 307 306 301 299 300 301 307 306 306 302 302 300 298 301 299 302 306 309 308 322 312 301 300 294 298 303 302 305 304 298 294 296 297 304
317 315 314 313 311 310 303 302 302 305 299 300 303 305 305 302 301 305 308 305 302 300 295 298 298 301 304 307 311 310 307 299 305 303 306 306 304 304 304 302 300 299 301 309
317 315 314 313 311 309 302 299 299 301 298 301 301 302 303 304 303 304 304 303 306 306 300 301 299 301 299 301 306 306 310 301 304 303 307 306 305 308 308 310 311 308 310 311
316 315 314 313 311 307 304 307 307 302 298 298 298 302 306 306 307 308 308 306 304 304 307 310 310 309 306 304 302 305 305 301 299 298 305 304 299 312 314 314 312 314 308 314
316 315 314 312 312 308 304 304 303 299 293 296 298 303 307 306 307 305 308 309 306 311 316 315 313 310 308 307 306 310 305 301 300 298 302 293 304 313 317 311 314 315 313 316
317 316 314 313 311 311 305 305 302 300 294 297 298 302 303 304 307 307 307 311 314 314 312 305 302 301 302 304 307 306 305 302 295 296 295 301 310 308 309 308 304 316 313 313
317 316 314 313 311 311 306 304 307 304 296 295 300 297 301 300 300 303 306 312 313 313 307 303 296 295 300 298 300 304 304 303 299 298 294 293 308 310 314 312 302 317 319 313
317 316 314 313 311 311 306 305 307 304 297 300 300 296 297 302 302 301 306 304 307 311 305 302 299 297 305 299 298 302 302 302 298 298 296 305 313 312 315 300 304 321 321 321
316 316 314 313 311 312 308 305 308 305 299 300 302 303 300 301 302 299 303 303 307 307 303 301 300 301 302 303 304 300 300 298 299 300 296 294 317 315 310 314 318 320 320 319
315 315 315 313 312 312 309 301 310 310 304 300 304 304 304 303 302 300 302 305 309 309 306 305 305 300 303 301 297 305 300 304 301 302 303 314 317 315 319 319 316 318 319 319
315 315 314 314 313 312 308 304 306 307 303 301 300 301 306 308 306 306 298 310 313 309 312 308 305 301 304 299 301 304 306 309 306 306 312 314 316 318 319 319 318 319 321 321
315 315 315 313 312 311 309 304 307 306 304 295 299 308 302 308 309 307 306 305 314 311 308 305 304 303 309 304 303 304 308 309 304 307 312 316 313 316 319 321 322 320 320 323
314 314 314 313 312 311 309 307 308 310 303 294 295 300 304 309 308 310 312 310 311 307 305 305 304 305 307 308 306 306 310 306 305 303 310 308 308 316 320 316 316 318 316 322
314 313 313 312 312 310 305 299 312 310 311 298 291 304 305 308 312 309 310 311 311 309 306 304 306 309 308 300 300 310 312 313 315 313 314 312 312 315 319 316 317 319 316 322
312 312 311 311 310 307 303 301 307 308 307 298 295 300 309 309 311 308 308 310 309 309 306 303 304 305 305 303 300 311 314 315 316 317 316 314 314 310 314 316 319 319 322 325
311 310 310 309 309 306 302 307 307 308 303 303 296 297 304 314 305 303 308 305 307 309 304 305 302 304 305 298 311 312 313 315 314 316 316 310 314 316 319 321 322 321 320 322
310 309 308 306 302 302 308 313 312 310 304 297 300 295 296 309 308 307 307 308 302 307 302 302 303 302 299 308 310 313 313 314 312 313 312 314 315 318 319 319 321 318 318 320
308 304 299 297 304 312 310 305 302 300 301 300 296 302 297 306 307 305 307 307 300 299 301 305 301 299 311 313 316 315 313 312 311 307 308 312 315 317 317 317 319 318 316 317
302 298 297 307 311 307 304 300 299 300 298 301 300 299 296 305 302 301 307 305 305 298 303 301 300 303 310 315 314 314 313 313 311 312 312 315 318 317 314 316 317 316 315 314
301 303 307 309 303 301 298 297 300 299 297 304 301 301 298 301 305 304 310 304 306 300 310 304 300 309 313 313 314 314 314 316 316 318 317 318 319 318 318 317 316 315 315 317
305 304 302 301 300 291 293 291 295 298 304 306 304 300 303 308 311 309 306 302 300 308 304 300 307 314 316 315 315 314 315 317 318 318 319 319 319 319 313 312 315 319 317 318
299 297 289 295 294 296 297 299 301 305 307 306 306 303 302 306 305 306 298 302 305 299 296 301 309 315 315 315 316 316 316 318 317 318 319 318 317 315 314 316 317 315 317 318
299 301 291 295 300 303 304 305 305 308 310 309 304 303 302 302 306 306 303 300 298 300 302 309 314 316 316 317 318 315 317 317 316 317 317 317 315 312 312 313 312 313 318 317
301 301 298 301 301 300 302 305 304 309 310 310 306 301 298 301 303 299 298 297 296 304 312 315 317 318 319 318 318 316 317 317 316 316 317 317 317 316 315 313 318 314 317 316
298 298 303 302 302 303 305 307 306 312 308 302 303 296 296 303 298 297 302 300 306 312 314 316 320 319 319 317 315 316 315 314 313 314 315 314 315 316 317 314 316 317 316 315

GFSNW_sfc_thetae_078.txt.gz
Theta_e
319 318 315 312 309 307 300 293 291 304 306 295 292 291 296 301 301 303 301 298 296 295 296 295 295 296 300 306 304 302 304 297 292 298 306 307 303 300 299 296 291 290 291 292
318 318 315 312 309 307 295 290 293 303 302 289 288 292 297 302 301 301 300 297 301 298 295 291 296 299 304 306 305 300 302 297 291 297 299 304 300 302 300 296 294 296 292 293
317 317 315 312 310 309 297 290 289 296 297 295 294 295 297 300 307 303 304 302 303 299 295 296 294 297 303 305 306 323 307 295 295 291 297 301 300 303 304 299 293 293 293 296
318 317 315 313 311 310 297 292 293 292 288 291 292 292 297 298 300 304 302 300 301 298 294 296 296 299 303 306 309 306 301 296 297 301 305 305 303 303 308 302 302 295 296 303
318 317 315 313 311 307 295 292 292 294 291 292 291 293 296 299 303 301 299 299 303 300 294 298 298 301 299 297 302 300 304 296 299 299 306 312 311 314 313 310 309 310 308 305
318 317 315 313 310 304 295 298 297 294 292 289 289 290 294 298 300 304 305 303 301 301 303 307 307 306 303 303 299 300 302 297 295 294 302 303 303 310 310 311 312 309 306 310
317 317 315 313 310 305 298 296 294 291 288 290 291 294 296 296 300 299 304 307 303 307 311 310 309 306 303 303 301 302 301 299 297 294 297 292 306 314 313 309 310 314 311 313
317 317 316 313 311 309 298 298 294 291 288 292 294 294 293 295 298 299 302 305 308 308 305 300 297 298 299 300 302 299 303 299 295 293 294 302 307 309 308 309 307 315 315 317
317 317 316 314 311 309 300 298 298 294 290 289 296 293 293 291 291 296 300 305 304 306 300 298 293 291 296 296 301 304 301 298 296 295 293 291 304 310 314 312 302 316 318 314
317 317 316 314 312 309 301 298 299 295 290 294 293 290 290 293 294 293 297 298 303 309 301 297 294 294 301 296 295 294 297 296 293 294 293 302 311 312 314 296 299 314 315 316
316 317 316 315 313 312 303 298 300 297 292 295 298 299 293 293 292 292 295 296 302 304 297 294 295 294 298 296 299 295 294 295 293 294 294 293 314 314 308 310 314 314 316 319
316 317 316 315 313 312 307 295 301 302 296 296 302 303 303 301 299 293 292 294 304 303 300 300 302 297 298 296 294 302 295 300 298 298 299 310 312 312 319 316 314 315 316 319
316 316 316 315 313 312 307 297 298 299 295 297 294 295 299 302 303 302 292 295 306 304 305 301 302 299 302 295 295 299 306 304 301 301 308 311 311 316 319 319 316 317 319 319
315 315 315 314 313 311 309 297 299 298 295 290 292 301 301 301 297 300 301 299 301 303 300 298 299 299 305 300 302 302 305 305 301 303 311 311 313 314 317 318 319 319 322 322
315 315 315 314 312 310 306 301 301 302 296 290 292 299 299 299 297 301 301 300 295 298 297 298 297 301 304 304 303 301 307 303 302 301 310 311 310 314 318 316 316 316 320 320
314 314 313 312 311 310 299 294 301 302 300 292 286 292 294 298 300 301 299 300 299 301 299 297 299 301 301 295 297 305 309 310 310 308 312 310 312 314 317 315 313 317 315 321
313 312 311 311 310 303 297 295 301 304 299 290 287 290 299 303 299 300 300 302 300 301 298 297 298 298 300 295 296 306 310 307 311 312 313 310 312 310 314 316 322 321 323 322
312 310 310 310 309 304 297 300 306 303 296 294 288 290 294 302 297 295 299 297 298 299 299 297 294 296 296 292 301 308 310 311 312 312 314 310 312 316 318 319 319 317 317 318
310 310 308 304 300 297 299 312 309 301 297 290 292 288 288 302 300 301 300 298 294 299 297 296 296 293 292 297 305 308 310 309 309 310 312 312 314 315 316 316 316 314 314 315
309 303 299 296 300 311 307 298 294 293 292 290 288 291 290 297 299 297 298 299 296 291 296 297 294 292 299 306 310 311 311 311 311 302 305 310 311 313 313 314 315 314 314 314
301 297 296 302 310 299 296 292 290 291 290 292 292 292 289 295 295 295 299 298 297 292 295 295 292 297 303 308 308 310 309 307 305 304 305 312 314 311 313 314 314 313 312 311
301 299 305 304 296 293 292 291 293 293 292 295 293 294 293 294 298 296 302 299 297 294 304 299 296 301 306 307 307 308 310 313 314 315 316 316 316 314 313 312 312 311 312 313
305 304 301 295 293 285 291 289 290 291 296 298 295 292 294 293 297 302 304 297 296 301 298 296 300 304 308 309 309 309 313 315 315 315 315 313 313 313 313 313 314 314 313 314
299 297 286 293 291 292 292 292 293 298 299 297 296 294 293 296 298 300 296 298 300 296 293 297 303 306 308 311 311 312 311 312 314 314 315 313 312 311 313 311 312 314 314 315
296 296 289 291 296 296 297 298 298 301 303 299 294 294 293 291 298 299 298 296 294 297 297 302 307 310 310 309 311 311 311 311 311 312 311 310 310 309 309 310 309 311 314 315
298 297 294 296 295 294 296 298 297 300 301 301 294 291 290 294 296 296 297 296 294 299 305 308 310 309 309 309 309 310 310 309 308 310 311 312 309 308 308 309 311 310 311 312
296 293 297 296 296 296 298 301 301 305 301 296 294 289 290 296 294 295 297 295 299 305 308 310 309 309 307 307 308 309 309 307 307 307 308 308 309 311 310 308 310 312 312 312

GFSNW_sfc_thetae_081.txt.gz
Theta_e
316 317 316 312 309 307 299 291 292 302 302 294 289 290 294 300 299 302 299 297 295 293 294 292 292 294 298 303 303 299 298 292 290 296 302 304 300 297 296 293 291 287 288 290
316 316 315 311 308 305 294 288 289 299 300 289 287 291 296 298 301 301 299 299 301 298 293 290 294 298 303 305 303 301 301 292 289 293 299 302 298 298 300 295 292 291 288 293
316 316 315 312 310 308 295 290 290 293 294 291 290 289 292 296 304 303 302 300 300 297 295 295 293 298 305 308 307 322 306 292 293 290 296 301 299 302 299 297 290 291 292 293
316 317 315 312 310 309 295 291 291 290 287 290 288 288 293 295 295 303 301 298 299 296 292 296 296 300 302 307 310 303 300 294 293 299 302 308 303 306 302 301 299 295 301 304
316 317 315 312 310 305 295 292 290 292 290 289 288 289 289 293 295 297 299 297 300 298 294 298 297 298 297 299 304 300 297 294 296 296 303 308 309 311 311 310 309 310 311 310
316 317 316 312 309 302 294 295 293 293 292 287 287 287 291 294 294 298 302 302 300 299 301 305 305 305 303 303 297 296 295 295 292 290 300 302 299 308 309 309 310 311 306 311
315 317 316 313 309 302 296 294 293 290 288 289 290 293 294 294 294 294 300 302 297 303 306 306 304 301 300 301 299 296 295 295 295 292 298 292 305 312 312 310 310 311 313 315
315 317 317 314 310 307 297 296 292 290 286 290 292 292 291 292 294 295 299 302 303 302 300 297 295 296 298 300 303 300 299 297 294 292 295 300 307 307 307 305 307 316 314 315
314 317 317 315 311 308 299 296 296 292 289 290 295 291 291 288 288 292 297 303 301 308 301 298 292 291 295 297 300 302 302 300 295 294 292 292 300 311 314 312 301 317 317 314
314 316 317 316 313 308 300 296 296 293 289 292 292 290 289 291 290 289 293 295 296 306 299 297 295 294 299 294 295 293 295 297 295 295 293 299 310 313 313 295 299 316 315 315
313 316 317 317 314 311 302 297 298 294 290 292 297 298 292 291 291 289 292 292 297 300 294 293 293 293 296 294 298 294 294 294 293 293 292 290 313 313 304 307 310 313 314 315
313 315 317 316 315 313 305 295 298 299 293 295 298 301 302 300 297 292 289 291 292 298 297 296 298 295 296 293 291 301 293 298 295 295 301 307 310 309 314 314 314 314 315 318
314 316 317 316 314 313 305 296 296 296 292 294 292 295 299 301 303 302 290 290 295 302 303 298 300 295 298 292 293 297 301 301 299 301 304 308 310 313 315 315 314 317 319 320
315 316 316 315 313 311 307 297 297 297 294 289 293 299 298 301 297 301 301 295 297 298 297 294 294 298 301 297 297 299 303 303 299 306 306 309 310 313 313 315 319 320 321 320
314 315 315 314 312 310 305 300 300 299 295 289 291 297 298 297 296 297 299 297 291 291 292 294 296 298 301 301 301 299 305 301 299 299 306 305 306 313 317 315 315 318 318 318
314 314 314 313 311 310 299 294 298 300 299 292 285 291 292 295 295 296 294 295 291 295 295 295 297 299 297 294 293 303 308 307 308 307 312 310 310 314 316 314 314 315 317 319
313 313 312 311 310 303 296 294 298 302 297 290 286 287 295 299 297 297 295 295 296 296 295 295 296 297 298 293 291 300 307 310 310 311 311 309 313 309 313 315 321 319 319 320
312 311 310 309 309 305 298 301 306 303 294 293 287 288 291 298 297 294 295 295 295 295 296 294 293 293 293 290 295 300 308 309 310 311 313 311 310 315 316 318 317 316 315 316
311 310 309 304 299 297 300 310 308 298 295 289 289 287 288 297 295 298 298 295 292 295 294 293 295 291 290 295 296 305 309 306 306 308 310 311 314 314 314 314 314 312 312 313
309 303 299 296 300 307 305 296 293 292 291 289 285 288 289 292 293 294 296 296 292 289 293 295 292 292 294 297 302 307 309 309 310 305 306 310 311 311 310 311 312 313 312 313
301 295 296 300 309 298 295 291 288 289 288 288 289 290 288 292 289 292 296 296 296 290 293 291 289 292 300 306 307 310 310 309 309 306 309 312 312 311 312 312 313 313 313 311
300 301 302 300 296 292 290 289 291 290 290 292 291 292 291 291 295 293 300 298 297 292 301 296 294 299 304 305 306 307 309 311 311 310 310 313 312 313 313 311 310 310 311 310
305 301 300 295 293 284 289 287 289 288 293 296 294 291 291 291 293 299 300 297 295 300 296 295 296 303 308 308 309 310 311 314 314 313 313 313 313 313 312 311 312 311 311 312
298 296 288 290 288 290 290 291 291 295 297 296 294 292 291 292 295 299 297 300 299 294 291 293 299 303 308 309 310 310 310 312 312 312 311 310 310 310 312 312 310 311 311 313
296 295 288 289 293 294 295 296 295 298 298 295 293 292 291 289 296 298 296 294 293 295 295 299 304 306 311 311 310 309 309 309 309 308 309 309 308 308 307 308 309 307 311 311
297 294 292 294 292 294 295 294 294 298 297 295 292 289 289 292 295 294 293 293 291 294 299 305 307 307 308 309 309 309 310 309 309 309 309 307 307 306 306 307 308 308 310 310
295 291 294 294 294 294 295 296 297 299 297 293 292 288 287 293 292 292 295 293 297 301 303 309 307 309 305 307 308 307 306 305 305 305 306 306 308 308 308 307 307 309 308 308

GFSNW_sfc_thetae_084.txt.gz
Theta_e
316 315 315 312 309 306 298 290 292 300 300 294 287 289 292 298 298 300 298 296 294 292 292 290 290 291 295 303 305 297 297 291 290 296 302 302 300 297 295 291 289 291 289 291
314 315 315 312 308 304 293 288 288 298 299 289 287 290 294 296 298 299 299 297 300 298 293 291 294 297 304 306 305 297 299 290 288 292 298 302 299 301 297 295 292 291 288 292
314 316 316 312 310 307 294 290 290 292 292 289 288 287 290 294 301 300 301 298 299 296 294 294 293 299 304 308 306 319 305 294 294 289 294 299 299 301 303 292 288 289 292 295
314 315 316 313 310 307 294 290 290 289 287 289 287 287 290 292 292 297 300 297 297 295 291 295 294 299 301 305 311 304 298 291 294 297 299 302 303 307 309 299 294 293 296 302
314 316 316 313 310 305 295 291 290 290 288 288 286 288 287 291 293 292 297 295 299 297 294 297 295 297 296 298 301 298 296 294 295 296 301 302 304 304 304 309 309 310 310 308
313 315 317 313 308 301 293 292 292 292 291 287 287 286 289 292 292 295 298 299 297 296 299 302 302 302 302 302 296 295 293 292 290 289 297 300 299 305 306 309 309 308 303 311
313 315 317 313 309 302 295 293 292 290 288 287 288 291 293 292 292 291 296 297 295 301 303 303 301 298 298 299 299 298 293 292 291 289 293 286 301 310 311 309 311 313 314 313
312 314 317 315 310 305 296 294 292 290 286 289 291 291 290 291 291 292 295 299 301 299 300 297 295 295 295 298 302 298 296 292 290 288 289 295 306 305 304 304 306 314 311 313
312 313 317 316 311 307 299 296 294 292 288 289 294 290 291 287 285 290 294 299 298 304 300 297 290 289 293 295 299 301 301 296 292 291 289 290 301 309 312 312 300 315 314 313
312 313 315 317 313 307 299 295 295 292 289 291 291 290 289 290 288 286 289 293 292 302 294 293 290 293 298 293 292 293 294 295 291 293 291 299 310 312 314 296 298 314 314 314
313 313 316 318 315 310 302 297 297 295 289 291 295 296 292 291 290 287 289 289 292 295 294 293 292 293 294 292 294 293 291 291 291 291 292 291 310 312 304 307 312 314 315 315
311 312 314 317 315 312 306 297 298 297 292 292 297 299 300 298 296 292 289 288 289 290 295 294 295 295 295 291 289 298 293 297 295 295 296 307 309 309 313 314 315 316 316 318
310 313 314 317 315 312 307 299 296 295 291 293 291 295 299 299 302 301 291 290 293 293 301 295 296 294 296 291 292 295 300 301 299 300 304 307 310 312 314 315 314 317 318 319
313 313 316 316 313 312 307 300 297 296 293 288 293 300 296 299 299 300 301 293 291 295 294 290 290 294 300 296 296 297 299 301 299 301 307 309 311 312 313 313 316 320 320 320
313 314 316 315 313 311 306 300 299 298 295 289 290 296 295 295 295 297 298 297 289 289 289 290 292 295 298 300 298 298 304 303 300 299 305 305 306 311 316 313 314 314 317 318
313 314 315 313 311 308 301 294 297 299 298 291 286 292 292 293 293 293 293 294 289 290 289 290 295 297 298 291 291 300 306 308 308 307 311 311 311 314 316 313 314 315 318 320
313 313 312 311 309 304 299 294 297 301 296 290 286 286 292 295 296 293 290 291 290 291 291 292 294 295 297 292 290 299 305 310 310 313 313 311 312 310 315 315 321 319 320 320
312 311 310 310 308 306 302 305 305 301 294 291 286 287 290 294 294 291 293 291 292 293 294 293 293 293 293 290 294 297 305 310 310 312 315 312 313 317 318 320 318 316 316 316
311 310 309 305 301 298 300 311 309 298 293 287 288 286 287 295 291 295 295 293 290 294 293 292 294 292 291 295 296 298 308 307 308 310 312 312 311 315 315 314 314 313 313 314
309 305 301 298 300 309 307 297 292 291 290 288 285 286 287 290 289 291 294 293 290 290 292 293 291 292 296 297 299 301 309 308 308 308 308 310 311 312 311 312 312 312 313 313
302 298 297 300 308 298 294 290 287 287 286 286 286 286 286 291 287 287 293 294 296 290 293 293 290 290 295 304 306 307 310 311 310 309 310 313 313 312 309 313 313 313 314 312
303 300 302 298 296 293 290 287 289 288 288 291 289 291 289 290 293 291 295 296 298 292 299 297 293 297 303 305 307 308 309 311 310 310 307 312 314 312 313 314 312 313 313 312
304 302 299 293 291 283 287 286 288 288 293 295 293 291 290 289 291 293 296 294 295 300 295 296 297 300 307 308 311 311 313 314 314 313 313 312 313 314 313 311 312 313 312 312
299 295 286 289 288 289 289 291 292 294 296 296 294 290 290 290 291 295 294 298 299 294 292 293 298 303 308 311 311 311 311 311 311 311 312 311 312 312 312 312 312 312 312 313
295 294 286 289 292 293 294 295 294 296 296 294 292 290 289 289 294 296 295 294 294 294 295 298 303 306 308 311 311 310 310 310 309 310 309 309 309 308 308 309 311 309 309 312
297 294 292 293 291 294 294 293 296 295 294 292 291 288 288 290 293 294 295 293 291 294 298 302 309 308 309 309 311 311 311 310 309 309 309 309 309 308 308 308 309 310 312 312
295 291 293 293 294 295 297 297 296 296 295 292 291 287 286 292 291 291 295 293 296 299 300 303 309 309 308 308 308 310 309 308 307 306 308 308 309 309 309 308 310 310 310 310

GFSNW_sfc_thetae_087.txt.gz
Theta_e
313 314 315 314 310 306 302 300 301 307 307 303 297 298 298 298 302 305 303 302 300 299 299 300 297 297 304 309 309 304 306 302 299 301 307 308 306 304 304 298 297 300 299 299
314 314 315 313 309 305 301 298 298 307 306 298 298 298 298 300 302 303 304 303 304 304 301 299 301 302 308 309 308 306 308 301 296 298 304 307 305 307 311 307 303 300 296 299
314 314 315 313 310 308 302 300 299 303 301 298 297 296 296 298 303 302 304 304 305 304 302 303 302 302 306 309 308 318 310 303 301 295 299 303 301 304 311 308 300 300 300 303
313 314 315 314 311 307 302 300 297 296 297 297 296 295 295 296 297 301 304 304 303 301 300 301 301 304 305 307 311 310 307 302 301 303 304 304 303 305 308 306 309 303 304 304
313 314 316 314 310 305 304 300 299 298 298 295 295 294 296 295 297 297 301 301 302 303 301 303 301 304 305 303 307 306 308 302 304 301 303 303 302 306 306 307 308 309 312 309
312 313 315 314 309 304 302 300 300 300 296 295 296 296 295 295 296 299 300 301 299 301 304 305 305 306 307 307 305 304 303 302 301 297 302 301 299 307 309 305 308 310 306 314
311 312 315 315 308 305 304 301 301 300 298 296 296 295 296 296 297 295 298 300 298 306 306 310 311 308 306 305 305 306 304 302 302 297 301 292 307 313 309 307 310 313 314 318
313 312 314 316 310 304 305 302 301 299 297 297 297 297 297 297 298 296 297 301 306 305 310 306 303 303 304 306 306 307 306 302 300 296 296 300 308 308 305 305 306 312 312 314
313 311 313 317 311 306 307 304 302 301 298 298 299 296 296 296 296 296 298 303 305 311 308 305 298 296 300 300 303 309 307 307 301 300 294 292 306 309 315 313 300 311 316 316
313 312 313 316 313 307 305 304 303 301 297 300 299 297 298 297 295 294 296 299 299 308 306 301 299 300 302 298 298 300 302 304 299 300 298 304 312 314 316 300 303 315 317 317
312 312 312 315 315 309 307 304 304 302 298 299 300 300 299 298 298 296 298 298 299 300 303 302 302 301 303 301 302 302 300 299 300 301 298 296 314 313 306 313 319 318 319 319
312 312 312 315 316 311 307 302 303 304 300 300 302 304 305 304 304 301 300 297 297 299 305 305 305 303 305 300 297 306 301 305 303 304 305 313 315 314 319 321 319 321 323 322
311 311 312 314 315 312 309 303 301 302 299 301 300 302 306 307 306 307 298 301 303 301 309 306 307 302 307 301 301 302 307 309 308 307 311 313 314 317 317 318 322 325 325 324
312 312 313 314 314 312 308 305 303 302 301 297 302 306 304 307 306 306 305 304 301 304 304 301 300 299 307 303 303 302 307 309 307 309 313 315 316 317 317 320 324 324 325 326
312 313 313 315 313 310 308 305 304 305 302 298 300 304 304 303 304 305 305 304 302 301 298 298 298 305 305 308 306 305 311 307 306 307 313 314 313 318 319 318 318 321 323 324
313 313 314 314 311 309 306 301 305 307 306 299 295 302 300 301 301 302 302 302 300 300 298 299 302 305 307 300 299 308 311 314 315 313 317 317 317 318 319 317 319 321 321 324
311 312 312 311 309 307 303 302 303 305 305 298 293 295 300 301 302 299 299 301 300 300 299 299 302 303 305 301 297 305 309 309 317 317 317 316 316 316 321 319 324 324 325 325
312 311 311 309 308 308 306 308 305 305 302 299 292 294 298 303 303 299 300 297 299 299 300 303 302 301 303 299 305 308 307 309 316 316 318 318 319 323 323 323 321 319 320 321
311 310 309 307 304 301 303 309 308 305 302 296 294 293 295 304 301 305 302 301 297 303 300 302 303 300 297 303 307 308 308 313 314 317 317 318 317 320 321 317 317 317 319 320
309 307 304 300 304 310 307 300 299 299 300 296 293 296 295 298 299 300 302 303 301 297 301 303 299 299 306 307 309 310 311 316 316 314 313 315 315 319 318 316 317 317 319 320
304 302 303 305 310 301 298 295 293 294 292 295 295 294 294 299 296 297 303 303 305 298 300 300 299 298 304 312 313 315 310 316 317 316 316 319 319 320 317 317 318 319 320 320
306 304 304 303 299 296 294 293 294 292 292 296 296 298 296 300 301 299 303 303 305 297 306 303 300 305 310 313 314 315 316 318 318 318 316 318 320 320 318 319 319 319 320 320
307 305 300 297 295 288 289 288 292 293 298 300 300 299 300 298 298 298 304 299 300 306 300 300 302 307 311 312 315 316 318 317 317 316 317 319 320 320 319 318 319 320 319 320
300 297 287 293 291 292 294 295 297 301 301 301 302 300 299 299 298 301 300 303 304 297 295 297 304 304 310 314 316 316 316 317 317 317 318 318 318 317 318 318 318 317 316 318
299 299 290 293 298 298 299 300 300 302 303 302 301 300 299 299 300 305 302 298 295 297 296 303 305 309 311 312 312 313 314 316 316 317 316 316 316 316 316 317 319 318 316 319
300 299 296 298 297 299 300 300 300 304 303 301 300 298 296 297 302 298 297 295 294 300 305 307 308 312 310 312 312 313 315 317 317 317 317 317 317 318 318 318 320 319 319 320
298 297 300 299 299 299 301 301 301 305 302 301 300 293 294 301 298 296 301 298 304 308 308 309 312 313 311 311 312 313 313 314 315 316 316 317 317 317 318 318 320 319 320 320

GFSNW_sfc_thetae_090.txt.gz
Theta_e
314 314 314 314 311 308 309 310 307 315 316 308 309 306 304 300 307 310 308 307 305 303 303 303 302 302 305 311 311 305 310 306 301 303 309 311 311 306 307 302 299 303 301 300
314 314 314 314 310 307 309 308 309 318 315 303 305 305 303 305 306 307 307 306 307 308 305 301 304 305 309 310 309 307 310 305 299 301 306 308 307 307 309 309 308 305 299 301
314 314 314 315 312 308 308 308 304 310 313 310 305 303 302 302 307 306 309 308 309 307 305 308 304 305 308 310 310 317 313 306 303 298 302 306 304 305 308 308 300 300 304 306
313 314 314 316 313 309 309 311 306 304 305 305 305 304 302 300 301 306 309 307 307 305 303 304 304 307 308 310 314 311 311 304 305 305 306 306 305 304 305 307 308 304 304 310
313 313 314 316 312 307 312 307 306 308 308 304 303 298 302 300 302 303 304 305 306 306 305 306 304 306 307 305 309 309 312 304 306 303 305 305 303 305 306 309 310 309 310 309
313 312 314 315 311 306 313 312 311 307 301 303 302 303 302 301 302 304 305 305 305 304 307 310 309 310 310 309 309 309 309 306 304 299 304 304 300 304 309 311 313 313 308 316
313 312 313 315 310 306 313 313 311 307 303 304 303 301 301 301 302 301 304 305 304 309 313 311 312 312 312 313 313 313 309 308 307 301 303 294 307 317 313 311 313 314 313 313
313 313 313 315 311 307 315 315 310 308 303 306 303 303 303 304 305 303 303 305 309 312 308 306 304 306 309 309 311 311 312 310 304 300 298 302 309 314 309 309 310 315 314 313
313 313 312 314 312 307 314 316 315 310 304 306 305 303 303 302 303 303 304 308 310 309 308 304 300 298 303 302 306 314 312 313 307 303 298 293 309 313 319 316 305 314 313 313
313 313 312 314 313 308 312 316 313 310 305 309 307 304 304 306 303 302 305 304 305 309 304 301 299 299 306 301 300 303 306 307 304 303 301 304 314 317 319 301 306 319 319 318
313 313 312 314 316 310 311 314 315 308 306 308 308 308 305 306 304 301 306 304 304 303 301 302 304 302 306 304 306 304 304 303 305 304 299 297 318 316 309 317 323 323 322 322
312 313 313 314 316 312 310 311 312 309 306 308 311 311 312 309 309 306 307 305 302 305 306 307 308 305 310 304 300 311 305 306 304 307 305 316 320 318 322 324 321 320 323 325
312 313 312 312 316 312 311 307 308 308 306 308 309 309 313 314 313 314 303 307 308 307 310 309 309 304 309 304 303 305 310 314 310 309 312 315 319 321 321 321 322 322 324 324
312 312 312 313 314 312 310 307 311 307 306 302 307 312 309 313 313 311 312 311 310 308 308 305 305 303 311 306 306 307 309 313 308 308 314 316 317 320 322 322 322 321 323 323
312 312 312 314 314 310 310 309 309 308 304 303 306 312 311 310 308 309 310 309 308 306 303 302 302 307 306 309 309 306 312 309 304 303 316 317 316 320 323 320 320 322 321 321
312 313 313 313 312 310 309 306 313 314 312 305 301 309 307 307 308 309 309 309 308 307 304 304 306 308 307 303 303 309 311 313 312 310 321 317 321 319 316 318 322 323 323 321
312 312 312 311 309 312 305 304 308 311 313 304 300 304 306 307 308 307 307 309 307 306 304 304 305 306 307 302 299 308 312 312 312 319 321 317 320 319 323 324 326 323 325 326
311 311 310 309 309 309 308 311 307 310 308 306 298 301 302 308 307 303 306 304 305 305 304 307 305 308 306 300 306 308 309 312 313 321 322 321 323 324 324 325 320 319 320 322
311 310 309 309 306 307 310 309 308 312 306 301 301 298 299 309 308 311 305 306 301 308 303 305 308 304 301 305 307 309 312 312 317 321 321 321 321 321 323 320 317 317 319 321
309 310 304 302 311 311 310 307 302 304 306 304 298 305 300 306 305 305 307 307 303 301 305 310 304 304 311 315 317 317 315 314 319 318 318 319 318 321 322 317 318 319 319 321
305 304 305 310 311 308 300 297 299 301 297 301 301 301 301 306 301 304 308 308 309 300 304 303 304 304 312 318 320 321 320 316 318 322 320 320 321 321 322 320 319 320 321 322
307 310 311 308 303 299 298 298 299 297 296 301 301 304 303 306 308 303 307 306 309 299 312 306 303 309 314 318 319 321 321 318 320 321 319 321 323 323 323 321 321 322 324 324
310 307 302 302 301 292 293 291 295 297 302 305 304 305 306 306 305 303 305 301 301 312 304 302 306 308 312 317 321 321 322 322 320 320 322 323 323 323 323 322 323 324 324 325
302 299 290 297 295 297 298 298 302 305 307 306 307 307 304 307 302 304 299 306 307 299 298 298 306 309 314 317 317 320 319 321 322 322 323 322 322 322 322 322 322 322 320 321
301 302 294 296 304 305 305 307 305 307 310 308 307 306 305 304 302 307 303 299 297 300 300 306 313 313 316 316 314 317 318 317 320 320 319 319 319 318 319 320 321 320 322 324
304 303 300 304 301 302 304 305 305 310 310 310 308 303 300 299 305 300 297 297 297 302 307 311 315 314 314 314 316 315 317 316 318 318 318 318 318 318 320 321 323 322 322 322
301 302 308 306 306 304 305 307 307 312 308 304 305 297 296 305 300 299 304 301 306 311 314 314 316 314 316 317 318 315 314 316 319 320 320 320 322 322 320 319 322 322 324 324

GFSNW_sfc_thetae_093.txt.gz
Theta_e
315 314 314 313 313 309 312 315 309 321 321 309 313 307 307 299 308 312 309 309 307 306 306 306 305 304 307 312 311 306 310 307 302 304 311 313 311 306 305 303 298 301 301 302
315 314 314 313 313 309 314 312 312 321 318 305 309 310 306 307 307 309 309 308 309 310 307 304 307 307 311 312 310 308 310 304 298 301 307 310 308 307 306 310 308 304 299 300
315 314 314 314 314 312 312 312 308 314 314 313 308 307 306 305 309 308 309 310 311 309 308 311 307 307 310 312 312 318 313 306 304 299 303 307 303 305 309 308 303 303 303 304
315 314 314 314 316 313 313 315 312 311 306 310 309 308 306 304 304 309 310 308 309 308 306 307 306 309 310 312 317 312 311 305 307 307 307 306 306 305 305 305 305 300 305 304
315 314 314 314 315 311 315 311 310 316 309 310 307 302 305 304 305 305 305 307 308 309 306 307 305 309 309 307 310 309 312 305 307 304 306 306 304 306 306 306 306 308 308 307
315 314 313 314 315 311 316 319 316 310 306 308 306 306 306 305 306 307 308 307 307 306 307 312 313 312 311 310 308 309 311 308 306 301 306 305 301 305 307 307 312 310 307 316
315 314 313 314 314 310 318 318 315 309 305 308 307 306 306 304 306 305 307 308 306 310 315 314 313 312 312 312 314 315 311 310 308 302 305 296 306 315 312 309 311 314 317 318
315 314 313 314 315 312 316 320 314 311 305 308 307 307 307 307 308 307 307 308 311 314 311 306 305 306 309 312 312 314 314 310 304 300 300 305 308 311 314 311 310 318 316 316
315 314 314 314 315 311 315 319 320 313 307 307 310 307 307 305 306 306 308 312 313 311 306 305 300 299 303 303 307 314 315 315 308 304 299 296 310 317 321 318 307 319 316 314
315 314 314 313 315 311 313 320 322 314 308 311 311 307 306 310 307 305 308 309 309 311 304 301 300 301 308 302 300 302 305 307 305 304 301 305 315 318 322 304 308 319 319 319
314 314 314 313 315 314 313 317 323 314 309 311 312 312 309 309 308 304 310 307 308 306 303 302 302 303 306 304 307 306 303 304 304 306 301 298 318 318 310 319 321 320 319 321
313 314 314 313 315 315 312 313 319 319 311 311 316 316 316 314 313 310 310 309 309 309 305 309 308 304 305 306 301 310 305 309 306 308 308 319 321 321 325 324 320 321 321 323
313 312 313 313 314 315 313 314 318 314 309 309 311 310 317 319 317 317 306 309 313 311 313 310 309 304 308 302 305 307 311 314 310 309 313 316 319 320 324 322 321 324 324 323
313 313 313 313 313 313 312 314 317 313 310 304 309 317 313 318 317 316 315 313 316 312 312 307 306 304 313 305 307 307 310 313 309 307 312 317 319 320 322 321 323 321 322 321
312 313 313 312 313 312 313 317 314 317 309 305 309 314 316 316 315 314 313 313 312 309 305 304 303 307 307 308 308 305 313 309 305 304 316 318 318 319 323 318 321 322 320 320
312 312 313 312 313 311 311 308 316 319 314 306 303 313 312 311 311 311 312 312 311 310 307 305 307 310 307 303 303 311 315 317 314 311 319 321 320 316 319 319 321 320 319 321
310 311 312 312 309 312 309 307 309 313 316 306 304 306 311 311 312 311 311 312 310 309 307 305 306 306 308 305 300 308 311 314 315 316 322 318 323 318 320 320 322 321 323 325
311 311 311 310 309 311 311 317 309 313 311 309 302 304 305 312 307 305 311 307 308 308 306 308 306 308 308 302 308 309 310 312 314 317 324 320 320 323 321 322 319 318 319 321
311 310 309 310 309 309 312 311 310 316 310 301 304 301 302 312 310 310 306 308 303 309 305 305 307 305 302 307 310 310 313 313 317 320 321 320 319 319 320 319 318 317 319 320
310 312 306 304 311 312 311 310 307 305 308 308 303 308 304 308 306 306 306 307 303 301 306 309 305 304 314 318 319 321 318 317 318 318 315 317 317 318 320 319 320 319 321 321
309 304 304 309 312 310 304 301 300 302 301 305 305 306 303 310 304 304 309 305 307 300 304 303 303 305 315 321 320 322 323 321 318 322 323 321 320 319 322 320 320 321 321 323
310 310 311 310 307 305 299 298 302 301 299 304 302 304 306 309 312 306 309 305 307 299 306 305 302 307 314 319 320 321 320 318 318 320 322 320 320 320 320 321 322 324 325 325
311 308 303 303 302 292 294 293 298 299 304 306 306 305 307 309 308 306 306 302 301 310 304 303 307 312 316 319 321 322 323 322 321 320 321 321 321 322 322 322 323 324 323 324
302 299 294 298 296 299 301 301 302 307 307 308 308 306 305 307 303 305 299 304 304 298 299 298 311 314 316 320 320 321 322 322 321 321 321 321 322 323 323 323 324 321 319 320
301 302 295 299 302 305 307 308 309 310 313 310 308 308 307 304 302 304 303 300 298 301 300 308 315 315 317 318 319 320 319 320 320 319 319 319 319 320 319 319 320 321 322 321
304 303 300 303 303 303 305 306 307 312 311 313 311 304 301 300 303 300 298 298 298 302 309 312 316 315 317 317 318 318 319 319 318 319 319 319 318 319 321 321 322 321 321 320
301 301 307 308 305 303 304 307 308 312 309 304 306 298 297 305 300 300 302 304 305 311 312 314 318 317 317 319 318 319 319 318 318 319 320 320 321 321 320 321 320 322 322 322

GFSNW_sfc_thetae_096.txt.gz
Theta_e
316 316 314 313 312 311 314 316 310 322 323 308 312 309 310 302 309 312 310 310 308 306 307 306 306 306 308 312 311 306 310 305 300 302 309 312 311 308 306 300 299 302 301 299
317 316 314 313 312 312 315 312 314 323 319 304 308 313 309 310 307 309 309 309 311 311 308 305 308 309 313 312 310 308 309 303 297 300 306 310 307 308 309 308 306 301 295 297
318 317 315 313 313 314 314 313 309 316 316 314 309 307 307 307 311 309 309 309 311 309 307 310 307 308 312 313 311 320 314 306 303 298 302 306 304 305 307 306 300 300 301 303
318 317 315 314 313 315 315 316 312 314 307 309 310 311 308 305 305 310 310 308 308 307 305 307 307 309 310 313 317 312 309 302 305 305 306 306 305 304 305 303 304 302 303 306
318 317 316 314 313 313 315 313 311 313 310 311 309 306 306 305 306 307 306 305 307 309 307 308 304 308 309 308 310 308 309 303 306 304 307 307 304 306 306 306 306 305 307 309
318 317 316 314 313 313 315 321 320 313 308 308 307 308 308 307 309 309 309 307 306 305 308 310 311 311 311 309 306 306 307 306 305 300 306 305 301 308 309 309 308 310 306 314
317 317 315 315 313 313 317 317 317 309 305 308 308 309 309 307 308 305 308 309 307 310 313 312 311 310 310 310 310 312 312 311 308 301 304 295 307 314 311 311 314 316 316 314
318 316 315 315 314 314 316 317 316 310 305 309 308 309 308 310 310 307 308 309 311 313 309 304 302 303 306 309 313 314 316 312 304 300 299 304 304 307 306 308 310 317 315 316
317 316 315 314 314 313 315 316 320 314 307 306 310 308 309 306 306 307 308 313 315 312 306 302 297 297 302 302 308 315 315 314 306 303 296 295 304 309 313 316 306 317 316 317
315 316 315 314 314 313 314 316 323 316 308 311 312 307 307 311 309 306 309 310 309 312 304 299 298 299 305 300 302 303 307 307 304 303 299 304 313 316 319 303 307 318 318 317
313 316 315 314 314 315 314 313 322 315 309 311 313 313 310 309 309 304 308 307 309 307 302 301 301 301 305 305 308 305 305 303 303 304 301 297 318 316 309 315 321 319 320 319
312 315 314 314 314 316 314 310 319 319 312 310 315 315 317 315 314 310 311 309 310 311 305 306 308 305 307 307 300 313 304 306 302 307 306 319 320 320 322 323 321 322 322 322
311 314 314 314 314 314 314 313 317 316 309 309 311 310 315 316 315 317 307 309 312 312 314 308 308 306 308 302 304 306 306 309 304 310 314 315 319 321 322 325 322 322 318 321
311 314 313 314 314 313 314 312 315 315 309 303 308 318 315 320 319 317 316 313 314 314 312 308 305 304 310 305 307 306 308 314 310 310 312 315 318 322 322 320 321 321 322 322
310 313 313 314 312 312 315 315 316 317 310 303 306 313 318 317 317 315 315 314 312 309 307 304 302 306 307 307 307 304 312 309 306 304 315 317 318 321 320 317 317 318 316 318
312 313 313 312 312 311 314 306 316 318 316 306 302 312 312 315 313 311 311 312 311 310 308 306 308 311 307 302 301 309 313 315 315 313 316 322 320 321 320 316 315 318 319 321
311 311 311 311 310 314 308 305 311 310 320 307 304 305 312 314 312 312 311 313 310 309 307 306 306 307 307 303 300 309 310 314 317 317 319 319 321 318 321 320 321 321 320 323
310 310 310 310 310 311 309 316 312 312 313 310 302 303 307 312 307 306 312 308 309 308 306 307 305 306 306 301 308 310 311 312 313 314 318 322 322 319 317 319 320 318 320 321
310 311 310 310 309 306 312 315 312 317 309 302 304 300 301 312 308 309 308 308 302 307 303 303 305 303 301 307 311 310 312 314 313 317 317 319 318 313 315 316 317 319 317 319
310 311 306 301 307 313 313 311 308 308 308 307 301 307 303 309 308 307 307 306 302 300 304 308 304 303 315 318 320 320 319 317 318 314 315 316 316 317 316 317 318 320 320 319
310 305 304 314 313 311 307 301 300 302 300 305 305 305 303 311 304 304 308 304 306 300 303 304 302 305 311 318 321 324 321 320 318 317 313 315 315 316 319 315 319 320 321 323
310 312 312 309 305 303 299 298 302 301 300 306 304 305 307 309 312 306 307 304 303 296 308 304 302 308 308 311 318 322 321 319 318 316 314 313 313 315 320 320 322 323 323 323
312 307 302 301 302 292 294 293 298 299 305 307 305 304 306 308 310 306 305 301 301 309 302 298 306 314 317 318 318 322 324 320 320 318 317 314 313 324 323 323 323 323 322 322
302 301 292 298 297 299 300 300 302 307 308 307 307 307 305 307 304 304 299 304 307 300 296 297 311 315 317 320 320 320 320 321 319 319 320 320 320 320 321 320 321 319 318 319
301 303 294 299 304 305 306 307 310 309 312 309 308 308 307 304 302 303 302 300 298 301 301 306 312 317 318 319 319 319 320 320 319 320 319 318 318 318 319 319 319 320 320 322
303 304 302 304 304 304 305 307 307 311 310 311 310 306 302 301 302 301 299 298 298 303 302 310 316 317 318 318 318 318 320 320 320 318 319 320 318 319 319 320 322 322 322 322
301 302 307 307 306 307 306 308 308 313 309 304 305 300 298 304 300 300 304 302 306 308 310 318 320 318 318 319 319 319 319 319 318 319 320 320 321 322 321 321 324 321 323 323

GFSNW_sfc_thetae_099.txt.gz
Theta_e
318 317 316 314 311 311 314 313 307 318 318 305 306 302 308 307 308 309 308 308 306 304 304 302 303 303 306 309 307 301 303 296 293 297 304 307 303 302 300 292 291 292 292 293
318 317 316 314 311 312 311 308 311 321 316 299 302 307 308 310 307 306 306 305 309 308 304 300 305 307 311 311 307 302 304 295 290 294 300 305 302 303 301 300 298 293 291 294
318 318 316 314 312 313 312 309 307 313 314 311 306 305 306 305 311 308 309 306 306 304 303 305 303 305 311 311 309 320 310 298 295 290 295 301 299 302 303 298 294 294 296 299
318 318 317 315 313 312 312 313 310 311 304 306 306 306 306 304 302 308 308 305 306 303 299 302 302 306 307 310 317 308 302 294 297 299 302 303 303 302 303 300 301 295 299 301
318 318 317 315 313 311 311 307 310 311 307 308 306 304 305 305 305 305 304 303 305 304 300 301 300 303 302 302 306 302 301 295 298 298 304 305 302 305 307 307 306 305 308 306
316 318 317 316 313 311 311 318 317 312 306 306 305 304 306 306 307 308 308 306 303 302 304 305 304 303 303 303 300 299 298 297 296 294 303 302 297 305 306 308 308 309 303 308
314 318 318 316 313 311 311 312 312 308 302 304 304 306 307 306 308 305 307 306 303 307 309 307 305 304 303 304 304 304 299 299 301 297 298 290 302 310 310 307 310 311 312 313
312 314 318 316 315 313 311 313 310 309 302 305 305 306 306 308 309 307 307 308 309 309 305 299 297 298 299 302 305 307 311 305 299 295 294 299 305 308 306 306 306 313 312 313
311 313 317 316 314 313 311 312 314 310 305 303 308 305 306 303 303 304 307 312 311 308 302 297 292 290 296 298 305 310 310 310 302 298 292 292 303 310 316 313 299 314 313 313
310 312 315 317 315 312 311 312 316 313 307 309 309 304 304 308 305 303 306 308 307 308 299 295 293 293 299 295 299 299 302 302 298 298 296 300 311 311 315 300 302 314 312 312
309 311 314 317 315 314 312 311 315 312 307 308 311 310 306 307 306 301 306 305 306 303 298 296 297 296 300 300 304 300 300 297 297 300 295 294 316 315 306 310 314 317 315 316
308 310 313 316 315 315 314 308 315 316 311 308 313 313 313 310 311 307 307 305 306 306 302 302 302 299 303 300 297 309 299 303 300 300 299 312 316 313 319 316 313 317 317 317
308 310 312 315 315 314 314 311 314 315 309 307 308 307 313 315 313 313 303 306 310 308 311 306 303 299 306 299 301 303 306 307 300 305 309 314 316 318 318 319 317 320 319 319
308 309 312 314 314 313 313 311 314 313 310 301 305 316 313 319 316 313 310 309 310 310 308 304 302 299 304 300 302 302 307 308 304 301 306 312 317 318 316 316 318 321 320 318
308 309 312 313 313 311 312 315 314 314 307 301 303 309 310 313 314 313 313 311 310 307 303 303 300 302 301 302 302 299 309 307 303 300 308 312 313 316 317 313 314 317 318 317
308 310 313 313 312 311 312 305 313 314 313 305 298 309 309 315 314 312 311 311 311 308 304 303 305 307 303 298 296 304 309 311 310 308 316 316 317 318 320 316 316 318 318 318
309 311 311 311 310 311 307 305 310 311 313 305 300 303 309 313 313 309 307 309 307 307 305 304 304 304 305 300 296 303 306 310 313 314 318 314 318 315 317 318 321 320 320 320
309 310 310 310 310 310 308 314 313 312 311 309 300 301 306 313 306 304 310 307 307 307 304 305 302 304 303 297 302 305 308 311 310 312 315 318 315 314 315 317 317 316 317 318
310 310 310 310 308 306 309 316 314 316 311 301 302 299 300 311 306 308 308 308 301 308 301 302 303 299 297 308 310 309 315 313 313 312 316 316 311 311 315 314 315 316 316 317
310 309 305 301 307 315 313 309 307 307 307 306 298 304 299 307 308 305 307 305 299 297 301 304 299 297 310 314 317 319 319 320 317 312 310 314 312 314 315 316 316 316 315 317
309 303 302 310 315 309 306 300 300 302 299 303 303 302 300 308 303 304 308 304 305 299 303 302 299 298 309 312 313 317 319 319 316 316 315 316 317 313 312 313 314 316 320 318
307 310 312 309 306 304 298 297 301 299 297 305 302 304 305 307 313 305 306 303 304 297 307 301 299 307 310 311 314 309 317 316 314 315 316 316 316 316 316 316 315 319 320 322
314 308 302 302 301 292 293 292 296 298 305 308 307 303 306 310 310 306 303 297 299 308 301 299 303 310 314 315 315 309 318 316 314 313 316 314 317 320 317 317 316 318 318 318
303 298 289 294 294 296 297 298 301 306 309 307 306 306 305 306 305 304 301 304 305 298 296 298 304 309 313 316 316 317 312 311 310 311 317 317 315 317 317 317 316 315 314 317
298 300 293 296 302 304 305 306 307 309 310 308 308 308 308 305 303 303 302 301 297 299 298 305 310 313 314 315 316 316 317 317 317 316 317 317 317 317 316 318 318 318 319 318
301 302 300 304 303 302 305 307 308 313 312 309 309 306 302 301 302 301 299 298 296 299 302 305 307 308 314 316 317 317 318 317 316 317 317 318 317 316 318 320 319 317 318 317
299 300 306 305 306 303 306 306 309 315 310 303 305 300 297 304 300 298 303 301 304 306 305 309 310 313 315 317 317 318 316 316 315 315 316 314 316 316 318 317 318 320 318 318

GFSNW_sfc_thetae_102.txt.gz
Theta_e
318 317 315 314 311 310 309 304 299 313 310 300 295 294 301 306 305 305 302 303 302 300 301 298 299 300 303 307 304 300 299 293 289 295 302 305 299 298 295 290 290 290 288 290
318 317 316 314 311 310 305 299 301 312 308 293 292 298 304 305 304 303 301 301 303 302 298 296 301 303 308 309 304 299 299 292 287 291 294 300 297 299 296 294 292 290 288 292
315 317 316 314 312 311 305 301 298 304 304 300 298 297 299 301 308 304 304 302 302 299 297 298 298 301 308 309 307 321 306 292 291 287 292 296 295 299 302 297 288 291 292 295
315 315 317 315 313 311 306 302 301 301 296 299 299 297 299 300 300 303 301 299 301 298 292 296 297 300 303 306 314 303 298 291 292 295 298 299 299 300 303 298 298 295 299 300
312 314 317 316 313 310 305 298 302 303 300 300 299 298 296 301 303 300 302 298 301 298 293 294 293 295 294 297 300 295 296 291 292 292 299 300 299 306 306 306 305 306 305 304
310 312 316 316 313 308 303 307 306 303 300 298 296 296 300 302 303 303 303 301 298 298 299 300 298 297 297 298 295 294 293 291 289 287 295 297 295 302 305 307 307 307 300 305
309 311 314 317 314 309 303 304 303 299 297 298 298 303 304 302 303 300 304 302 297 302 304 301 300 298 297 298 298 296 293 291 292 290 293 288 298 308 309 307 308 311 312 312
308 310 313 316 315 313 304 306 302 300 295 300 302 303 301 302 301 301 302 305 305 303 300 294 292 292 293 297 299 298 297 293 292 293 291 297 304 306 306 303 303 313 309 313
307 309 311 314 316 313 308 306 309 300 297 298 306 302 301 296 296 299 302 307 306 302 296 293 286 286 290 291 295 305 305 303 300 297 291 289 300 310 314 312 297 312 313 310
307 308 310 313 316 313 307 307 310 305 300 304 303 299 298 301 297 296 298 302 302 300 292 290 288 288 293 289 290 292 297 297 296 298 293 298 308 313 315 296 298 312 311 310
307 307 309 312 316 315 309 305 309 303 299 302 306 307 301 300 299 295 298 298 299 298 293 292 291 289 293 295 298 298 295 293 293 294 290 290 313 314 304 305 310 314 313 313
307 307 308 311 314 315 313 305 311 312 302 303 308 310 311 308 307 300 298 298 297 299 295 296 295 294 295 294 292 301 296 300 297 296 295 305 310 313 315 315 313 314 314 316
306 307 308 311 313 314 313 303 307 307 301 301 301 303 308 310 310 310 298 298 302 301 303 298 297 293 297 292 294 298 306 307 297 299 304 306 312 317 318 316 314 317 317 317
306 307 307 310 313 313 313 304 305 304 301 295 298 309 306 310 307 308 307 305 300 301 300 296 295 294 297 294 295 296 300 304 300 298 301 304 312 316 316 314 318 318 318 319
307 307 308 310 313 311 310 306 308 307 301 297 297 305 308 307 304 306 306 301 301 299 297 295 294 296 295 295 294 294 306 304 299 295 303 304 310 315 315 312 312 315 319 317
307 308 309 310 312 311 307 302 310 310 307 298 292 300 302 303 305 304 302 302 301 300 298 296 297 300 298 293 291 298 301 305 307 302 307 310 315 315 315 310 312 316 317 319
307 308 309 311 310 306 305 303 307 310 307 302 293 295 302 304 302 301 300 299 299 299 297 296 297 299 298 293 291 299 302 302 306 307 313 311 314 312 316 314 318 317 317 318
307 308 310 310 309 307 301 308 311 311 304 303 293 295 298 303 298 296 300 298 298 298 298 297 296 297 296 291 296 298 301 306 310 311 311 311 313 314 313 314 317 316 315 316
308 310 310 308 304 302 302 315 314 309 305 298 295 291 292 301 298 298 299 299 294 299 296 295 297 293 291 298 304 309 313 311 309 312 312 312 312 312 313 313 315 314 315 316
309 309 303 299 302 314 312 307 304 303 300 298 293 295 292 298 298 296 298 296 293 289 294 296 294 292 298 305 309 309 311 312 313 310 308 309 308 310 311 313 314 315 316 316
304 301 299 305 314 308 303 299 297 299 293 297 295 296 292 299 295 298 302 297 298 293 297 297 294 295 302 306 308 311 311 312 312 311 313 312 309 311 313 312 314 316 316 315
305 305 311 308 304 301 297 296 296 294 293 297 295 296 297 298 302 301 301 296 297 291 300 297 295 301 307 306 307 311 312 313 313 314 312 315 315 314 313 314 316 317 317 318
309 304 301 300 298 291 291 289 291 291 297 300 298 296 297 297 299 298 297 294 294 304 297 295 297 302 308 306 309 312 315 314 313 312 315 313 316 318 316 315 317 318 317 317
300 296 288 292 291 292 293 293 294 298 300 300 297 297 296 297 296 297 296 298 301 295 294 293 300 305 309 312 314 314 312 313 312 312 312 316 315 318 320 319 318 318 316 316
296 298 290 292 296 297 299 300 299 302 303 302 299 299 300 297 296 296 294 296 296 297 296 301 304 304 310 311 312 311 309 310 312 314 316 316 317 316 315 316 314 314 314 313
299 299 297 301 300 298 300 303 303 307 304 302 302 298 297 295 295 297 296 295 293 296 300 302 303 305 308 310 311 311 312 311 311 312 313 313 313 314 315 317 317 315 313 312
297 297 302 301 300 302 303 302 306 309 303 300 300 297 296 298 296 296 299 298 301 301 301 303 304 304 307 309 310 311 310 309 308 309 309 308 311 313 313 315 314 315 315 312

GFSNW_sfc_thetae_105.txt.gz
Theta_e
313 315 316 314 312 309 306 299 298 308 307 298 291 292 297 303 304 303 300 301 300 297 298 296 297 298 301 306 303 297 297 291 288 293 299 302 297 295 293 288 288 288 287 288
313 314 314 314 311 309 304 296 298 309 306 294 292 297 301 303 303 302 299 299 302 300 296 293 299 301 306 306 303 297 298 290 286 290 294 297 295 296 294 292 289 288 286 290
309 313 313 314 313 310 303 299 297 302 301 297 296 295 297 299 306 302 301 299 300 297 295 297 296 299 305 308 307 315 305 290 290 287 291 294 294 296 297 294 287 288 290 293
309 310 313 315 314 311 303 300 299 300 295 298 297 296 297 298 298 303 301 299 297 295 290 292 293 296 298 302 310 301 296 291 292 293 295 296 296 297 299 299 296 294 296 298
308 309 312 313 314 309 302 295 300 301 299 297 297 296 295 298 300 298 299 295 298 296 292 293 291 293 293 294 297 294 293 290 291 290 296 296 296 298 303 304 304 303 303 302
307 308 310 312 313 307 300 303 302 301 299 296 295 295 298 300 300 301 301 299 296 296 297 299 299 298 296 296 294 292 292 290 287 285 292 295 291 298 302 303 305 304 299 303
307 307 309 311 313 308 304 301 300 298 295 296 297 301 302 301 301 298 302 301 296 301 302 300 296 295 295 296 295 294 290 289 289 285 290 285 296 307 307 305 308 309 309 310
307 307 308 310 312 312 306 307 304 302 295 298 300 301 300 300 299 299 300 304 304 300 297 293 290 291 291 294 297 298 293 289 287 287 289 295 302 305 304 301 302 311 308 308
306 307 307 309 311 312 309 307 309 303 297 296 304 301 300 295 294 297 300 305 304 299 293 291 286 285 287 289 293 301 300 294 292 293 289 289 299 310 312 310 296 310 309 308
306 306 307 308 310 311 309 306 310 305 301 305 302 298 297 299 296 294 296 301 300 297 291 289 287 287 292 288 287 290 293 295 293 292 292 298 307 312 314 295 295 309 309 307
306 306 306 308 310 312 309 303 309 303 299 302 304 305 300 299 297 294 297 297 296 295 291 290 290 288 291 292 295 294 294 292 290 292 291 290 312 311 301 302 308 312 312 309
308 306 306 307 309 312 313 304 311 310 300 298 305 308 309 307 305 299 297 296 295 297 293 293 293 292 293 293 290 298 292 297 294 296 297 305 308 309 312 312 312 315 312 313
307 307 306 306 309 311 312 306 307 306 304 303 300 303 307 309 311 310 298 296 300 299 300 296 295 292 295 290 293 295 298 302 296 299 305 305 308 314 314 315 314 315 315 316
307 307 305 307 309 310 313 306 304 306 303 296 298 307 305 309 305 307 308 305 299 298 297 294 293 293 297 292 294 292 294 302 298 298 302 303 306 309 314 316 317 317 316 318
307 307 305 308 309 310 311 308 305 307 301 296 295 301 307 305 305 304 306 304 297 296 295 293 293 294 294 293 291 290 301 300 297 296 300 302 304 311 315 312 312 315 314 314
307 307 305 308 309 311 305 298 303 307 306 300 291 299 301 302 302 301 301 302 297 297 296 294 295 297 296 291 289 295 297 301 305 301 305 304 309 314 313 308 311 315 316 316
306 306 306 308 308 308 302 298 306 308 306 298 292 293 300 302 299 298 298 298 299 298 295 294 296 296 297 291 290 297 300 301 300 302 308 309 312 310 315 313 316 315 315 316
306 306 307 309 309 306 302 305 309 307 304 303 292 292 295 299 295 296 296 295 296 295 295 295 294 294 294 290 295 296 304 310 308 310 311 310 312 312 312 313 315 314 314 315
306 307 309 307 303 298 299 312 315 311 306 297 294 289 290 300 295 296 297 297 293 296 294 293 295 292 290 294 300 305 309 309 308 309 310 311 310 310 311 313 313 312 314 315
307 307 301 299 299 310 311 304 302 302 303 300 292 293 291 295 296 295 295 294 293 288 292 295 292 291 296 303 306 307 308 311 312 307 305 306 307 309 308 309 311 313 314 316
303 300 299 302 312 307 302 297 294 298 293 294 294 294 291 296 295 296 300 295 295 291 294 293 290 291 299 305 306 308 309 310 311 311 310 308 307 308 310 311 312 314 315 314
304 303 308 306 302 300 296 294 293 294 292 295 293 294 294 295 299 298 298 295 295 290 297 294 292 297 304 305 306 308 308 310 312 313 314 313 312 312 311 312 313 314 317 317
306 303 300 297 297 290 290 290 291 289 294 297 295 294 295 295 298 297 295 293 291 299 294 293 295 299 306 306 307 310 314 315 313 313 313 313 314 316 313 313 316 317 317 317
299 295 289 292 290 292 291 292 292 296 298 298 298 294 293 294 295 296 293 295 299 294 292 293 297 305 308 310 312 312 313 312 311 311 313 313 313 316 317 317 317 317 315 314
296 296 289 290 293 296 298 297 297 299 301 300 297 296 296 294 294 294 293 296 294 296 295 300 304 304 308 310 311 311 310 310 310 314 313 314 316 316 315 316 315 313 314 313
297 298 294 299 298 298 298 299 299 301 303 301 300 297 295 293 295 295 294 295 292 295 297 300 302 305 305 307 309 311 311 308 307 308 310 311 311 313 313 314 315 314 314 312
296 296 301 299 300 300 303 302 303 307 301 295 298 295 294 298 295 295 297 295 298 300 299 300 302 304 305 307 308 310 309 306 306 306 306 306 309 310 311 311 311 313 312 311

GFSNW_sfc_thetae_108.txt.gz
Theta_e
309 310 312 312 312 309 305 297 297 307 305 298 289 292 295 301 301 302 298 299 298 295 297 295 295 296 299 304 301 296 294 290 288 292 298 300 296 294 291 287 287 288 286 287
308 309 310 311 312 309 303 295 295 307 304 294 292 296 299 301 302 301 299 297 299 298 294 291 297 299 305 306 301 296 296 290 286 290 293 296 294 296 293 290 288 287 286 289
308 308 309 311 312 311 301 297 295 301 300 295 294 293 295 298 304 301 301 297 298 296 293 295 294 296 302 304 306 312 303 289 290 287 291 293 292 295 295 292 287 289 289 294
307 308 309 311 312 312 301 297 296 297 295 297 296 294 295 296 297 301 300 296 296 294 290 291 291 294 296 299 306 298 296 291 290 292 294 295 294 295 296 293 294 293 297 293
307 307 308 310 311 310 301 294 298 299 297 296 295 294 294 296 298 296 297 293 297 294 291 293 291 292 290 292 294 293 292 289 290 290 295 294 293 296 297 297 301 299 301 301
307 307 307 308 309 308 299 300 299 299 297 295 293 294 297 299 299 300 300 299 295 294 296 298 296 296 295 294 293 290 290 289 286 285 290 292 288 294 298 302 304 303 298 303
307 307 307 307 309 310 305 302 298 295 293 295 296 299 301 300 300 296 301 299 294 299 301 298 296 294 293 293 293 292 288 286 286 284 287 282 291 307 307 305 306 308 308 308
306 306 307 307 309 309 307 307 304 301 295 297 299 300 299 299 298 297 299 302 302 300 295 292 289 290 291 292 295 296 290 288 285 284 284 291 300 304 304 301 301 307 308 309
306 306 306 307 308 308 309 307 308 303 294 295 302 299 300 295 292 296 299 302 302 297 292 291 286 285 287 288 291 297 296 291 289 291 287 287 297 308 311 309 296 309 310 307
306 306 306 306 308 308 308 307 309 304 299 299 298 298 297 297 294 293 295 299 299 296 290 288 286 286 291 287 286 287 293 293 290 292 291 295 304 310 313 296 296 309 310 309
306 306 306 306 307 309 310 307 308 303 299 300 302 304 299 298 296 294 296 295 294 294 290 288 288 287 289 290 292 293 293 290 290 290 289 288 310 312 303 303 307 310 312 311
308 305 306 306 306 308 310 305 310 309 301 296 304 305 307 306 305 299 296 295 295 296 292 292 292 291 291 291 289 296 291 294 292 294 294 302 307 308 311 312 310 311 312 314
307 307 306 306 306 308 308 307 306 306 303 300 302 300 305 307 308 308 298 298 300 297 298 295 293 291 294 290 291 294 297 301 296 296 300 303 307 311 313 314 313 314 315 315
307 307 306 307 306 308 308 306 307 303 303 298 296 306 303 306 304 308 308 304 298 298 296 293 292 293 296 292 293 292 293 300 297 296 301 302 305 309 310 314 317 316 316 317
307 307 307 307 305 307 307 308 308 305 300 296 297 300 306 307 306 305 306 305 297 296 294 293 292 293 294 292 290 290 298 297 296 295 299 299 301 307 314 311 313 314 315 313
308 308 307 306 306 308 306 297 305 308 304 295 291 297 298 300 300 301 301 303 296 297 295 294 294 296 295 290 288 294 295 302 303 301 302 302 305 312 314 311 310 313 315 316
307 307 306 304 306 305 301 295 305 307 306 299 291 291 297 300 298 296 296 297 297 297 294 294 295 295 296 291 290 296 300 300 300 302 302 302 308 309 314 313 315 315 317 316
307 306 305 306 307 307 303 306 308 309 298 299 290 291 294 297 294 294 294 294 294 293 294 294 293 294 293 290 294 296 299 303 305 309 307 307 312 313 313 314 315 313 313 314
306 306 307 307 304 299 298 309 312 308 303 294 293 290 290 297 293 294 295 295 291 294 293 292 295 291 290 294 295 301 306 308 309 310 311 311 311 311 311 313 313 312 313 314
306 304 302 297 301 308 310 307 302 303 303 301 294 291 291 294 294 296 296 293 291 289 292 293 291 291 293 300 304 305 306 307 310 307 307 308 309 310 310 311 311 312 313 315
302 299 298 301 309 302 297 295 292 295 292 293 293 293 292 296 293 294 297 292 292 289 291 292 289 289 297 302 305 307 308 308 310 310 311 311 309 308 310 311 311 313 315 314
302 302 306 303 298 297 292 294 291 291 289 293 292 293 292 294 298 296 297 294 293 289 296 294 291 295 300 305 306 307 308 311 312 311 311 314 312 311 312 312 313 314 315 317
303 301 297 295 296 290 288 286 289 287 293 295 295 292 293 293 297 297 297 293 291 297 293 291 294 300 306 305 307 309 313 314 313 313 313 313 314 315 314 313 315 317 317 318
296 291 286 292 290 292 290 290 291 297 300 300 296 293 292 292 294 296 292 293 296 292 290 292 297 303 306 307 310 311 311 312 310 312 314 315 314 316 316 316 316 316 316 317
293 296 289 289 292 293 295 295 294 299 300 299 296 294 294 293 293 293 293 294 292 295 294 299 304 306 308 309 310 310 311 310 310 312 311 313 315 315 315 316 315 315 315 315
298 297 293 298 295 298 300 297 297 300 300 300 298 296 295 292 294 293 292 294 292 295 298 301 303 305 306 306 307 309 309 307 307 306 307 310 312 314 315 316 315 314 314 314
295 295 301 299 298 299 301 303 301 305 301 295 296 294 293 296 293 293 296 294 298 299 300 301 302 304 305 306 307 310 306 306 306 306 307 309 313 311 312 310 312 312 312 310

GFSNW_sfc_thetae_111.txt.gz
Theta_e
308 308 308 309 310 310 308 307 303 314 313 308 300 303 302 301 306 307 304 305 304 303 302 302 303 303 305 309 308 304 304 304 300 301 304 305 304 303 302 297 295 299 297 296
307 308 308 309 310 310 307 305 305 315 312 303 304 304 304 305 305 306 305 303 304 304 303 301 303 304 307 309 308 306 306 302 297 299 302 304 302 303 303 301 300 296 294 297
307 307 307 309 309 310 308 305 303 311 309 305 304 303 302 302 307 305 306 304 304 304 302 304 303 303 305 306 309 312 311 302 301 296 299 303 300 301 303 301 295 296 298 300
307 307 307 309 309 310 308 304 303 304 304 305 304 303 302 301 302 306 305 304 302 302 301 301 301 302 303 304 310 306 307 300 302 301 302 302 301 300 301 299 299 297 299 302
307 307 307 307 308 309 308 304 305 307 306 304 303 300 302 301 303 303 302 301 303 302 301 302 301 302 302 302 304 304 303 299 300 298 301 300 298 300 300 300 301 301 303 305
307 307 307 307 307 308 307 307 307 306 302 303 302 303 303 302 304 305 305 304 302 301 302 305 305 307 305 305 303 301 300 300 297 293 297 297 294 299 300 302 307 308 304 310
306 306 307 307 308 308 308 307 306 302 300 302 304 303 304 304 304 303 305 306 303 305 309 306 305 305 304 303 303 302 301 298 298 295 296 289 299 310 310 308 310 313 312 313
306 306 306 307 308 308 308 309 306 304 299 302 303 304 304 306 306 304 304 306 308 309 305 303 300 301 301 300 304 305 301 300 297 294 294 297 301 309 308 305 306 312 311 313
307 306 306 306 306 308 309 310 311 304 300 299 304 304 305 303 304 304 305 308 311 306 304 301 296 294 297 296 299 305 300 301 298 298 293 291 304 311 315 314 303 313 314 314
307 306 306 306 306 307 308 309 311 305 299 304 305 303 303 306 303 302 303 305 306 305 302 298 296 295 299 294 295 297 303 304 299 299 298 302 309 313 316 300 303 313 315 316
307 307 305 305 306 307 308 308 311 306 300 302 306 307 306 305 304 301 305 304 302 304 300 298 298 297 299 297 300 302 301 300 301 301 298 295 313 314 306 312 317 316 317 319
308 307 307 305 305 305 308 304 312 310 302 302 307 308 309 308 309 306 306 304 302 306 303 303 303 300 300 300 296 306 300 304 301 304 303 311 315 315 319 319 318 319 318 321
308 308 307 307 307 306 306 305 308 308 303 302 303 302 309 312 311 313 304 306 308 307 308 305 304 299 302 299 300 302 306 308 304 303 308 310 313 315 317 318 319 321 322 321
308 308 307 308 307 306 305 304 310 307 303 296 299 310 308 312 312 312 311 310 307 308 307 304 302 299 305 301 301 301 303 308 305 305 308 309 312 313 315 317 320 321 322 320
308 307 308 307 306 305 307 308 308 310 302 295 298 304 305 308 310 310 311 310 308 306 303 302 300 304 302 303 301 299 304 304 301 299 308 308 310 313 314 314 317 320 320 319
308 308 308 307 306 307 304 300 309 311 309 299 293 304 305 308 308 308 308 308 307 306 304 303 305 305 304 298 296 303 305 307 308 306 310 311 312 313 313 313 321 319 320 321
308 307 306 306 305 306 298 300 306 308 310 298 295 298 305 306 306 305 305 307 305 306 304 302 304 305 303 301 296 304 306 308 309 310 312 307 310 309 318 318 320 318 321 322
308 307 306 305 305 305 301 306 308 308 304 302 294 296 301 306 302 300 305 302 304 303 304 304 303 303 304 298 304 306 307 308 309 314 314 310 312 316 319 321 321 319 319 321
307 306 306 306 303 301 303 308 311 309 303 296 298 293 294 306 303 303 302 305 298 302 301 302 303 301 298 303 306 307 309 313 313 315 317 317 316 317 319 319 319 318 319 320
306 305 299 296 304 309 311 306 301 299 300 301 297 301 296 302 303 301 302 302 301 298 302 302 300 300 306 305 308 312 313 313 315 314 314 315 315 316 317 318 319 320 320 320
303 299 298 306 310 307 302 297 293 293 293 299 300 301 299 305 300 303 306 301 301 296 298 299 298 298 305 311 311 314 314 314 315 315 316 316 317 316 316 317 318 318 320 321
303 301 305 306 303 299 294 294 296 295 293 299 298 300 301 303 306 304 306 302 302 295 303 300 298 306 309 312 311 312 316 316 315 315 315 316 318 317 316 317 318 318 320 322
303 300 295 298 297 287 288 287 291 292 299 301 299 299 301 301 304 303 302 299 298 305 300 298 303 309 310 311 312 312 315 315 315 315 317 317 317 318 318 317 320 320 320 321
295 291 285 291 290 289 293 295 297 301 302 302 302 302 300 301 301 303 296 300 303 297 295 297 307 310 311 312 312 312 313 315 315 315 315 316 316 318 319 319 321 320 319 318
294 290 287 292 297 297 298 301 301 303 305 304 303 302 301 301 300 299 299 298 295 298 298 304 310 311 312 311 312 313 313 314 313 312 314 315 317 318 317 318 318 320 318 318
296 296 294 299 298 298 300 302 302 306 305 307 305 301 299 299 300 297 296 296 294 299 303 306 309 311 310 311 312 314 312 314 313 314 315 316 316 317 317 317 317 317 317 317
296 295 301 299 298 298 300 303 304 308 306 302 302 298 297 303 299 297 302 299 303 304 306 311 312 312 312 314 315 310 313 314 315 316 316 317 318 317 313 309 314 314 314 312

GFSNW_sfc_thetae_114.txt.gz
Theta_e
308 308 308 308 309 308 314 316 306 322 324 311 314 307 309 302 310 312 309 310 309 308 308 307 307 307 310 312 313 308 312 309 304 306 310 310 309 307 307 301 300 303 301 301
307 308 307 307 308 308 311 310 311 325 321 304 306 310 309 310 309 309 309 308 309 310 308 305 307 309 311 313 312 311 312 307 301 304 307 310 306 308 309 308 306 301 297 300
309 308 307 307 308 308 312 312 306 316 319 317 310 307 307 307 311 309 310 309 310 309 307 310 307 308 309 311 312 314 313 308 305 299 303 307 304 305 307 306 301 301 301 302
308 309 309 307 308 309 313 315 309 312 310 311 312 310 308 306 306 310 311 309 308 308 306 307 306 308 308 309 310 311 310 304 306 306 305 305 304 304 304 303 304 300 302 302
308 308 308 308 308 307 314 309 310 315 310 311 310 304 308 306 307 308 307 307 307 308 307 308 306 307 308 307 310 309 309 303 305 302 304 304 301 303 304 303 304 303 303 304
308 307 308 307 307 308 313 315 316 311 304 306 306 307 308 307 309 310 310 309 308 307 308 310 311 312 311 311 309 308 306 304 302 298 302 301 298 302 303 304 306 307 305 312
307 307 307 308 307 307 309 313 313 306 300 305 304 306 307 307 309 308 310 311 309 311 315 313 312 311 311 311 310 310 306 306 303 298 301 292 304 311 311 308 311 314 314 314
307 306 307 308 306 308 311 310 309 307 300 304 304 306 306 309 311 309 310 311 313 316 312 307 305 305 306 307 307 310 310 308 301 298 298 301 303 309 309 308 308 314 313 314
308 306 306 306 307 307 310 312 315 306 302 302 305 305 306 304 305 307 309 314 317 314 309 305 299 297 301 300 303 309 309 311 304 301 296 293 308 314 317 316 304 315 315 315
308 307 305 305 306 306 307 311 314 308 302 305 307 305 306 309 306 304 308 309 310 313 306 301 299 299 304 298 299 302 303 304 300 300 298 301 313 316 317 302 307 317 318 318
308 308 307 305 305 306 308 308 313 307 302 305 307 309 307 309 309 305 310 307 308 307 302 301 302 301 303 302 304 303 301 301 301 302 300 297 317 315 308 315 320 319 321 321
308 308 307 306 305 305 306 305 313 314 305 304 310 311 312 312 312 309 310 309 309 310 305 305 305 302 304 304 298 309 301 306 303 304 306 316 316 315 319 320 320 321 323 323
309 308 307 307 307 306 305 306 307 310 304 303 304 304 310 312 314 316 304 310 313 312 314 309 308 303 307 301 302 304 309 313 306 306 310 312 314 316 316 319 321 323 324 324
309 308 308 308 308 307 305 304 307 310 305 298 301 311 309 314 314 314 314 312 315 314 312 308 306 303 309 303 305 305 307 312 308 308 311 314 314 314 316 317 319 320 325 325
308 308 308 308 308 306 305 306 307 308 305 297 299 306 308 309 311 313 312 311 311 310 307 305 304 308 307 307 306 303 308 307 304 303 311 310 311 314 316 316 315 318 323 322
308 308 308 308 307 306 303 301 308 309 310 301 295 306 305 308 309 308 311 313 312 309 307 307 308 312 308 302 301 308 309 310 310 307 311 312 313 316 317 317 321 321 324 324
308 308 307 307 305 304 299 301 304 307 310 302 296 299 308 311 308 309 309 311 310 310 308 305 308 309 307 304 300 308 310 310 311 313 313 312 313 313 316 318 321 321 325 326
308 307 307 306 305 304 301 305 307 307 304 303 294 297 301 311 306 302 309 306 308 308 307 309 307 309 308 302 308 310 310 311 312 313 320 318 319 320 318 321 324 323 323 325
307 307 306 306 303 301 305 312 311 313 304 297 298 295 298 311 307 307 306 308 302 307 303 306 308 305 301 306 309 309 311 313 315 318 317 318 320 321 322 324 324 323 323 323
306 306 300 297 306 312 312 308 303 301 301 300 296 304 298 303 306 304 304 305 303 300 305 308 304 303 309 310 312 313 315 316 316 314 312 316 317 319 320 322 324 324 323 324
304 300 299 309 310 308 303 298 297 297 293 297 301 302 300 305 299 304 309 303 303 299 302 302 301 301 308 313 314 318 317 318 318 318 319 319 319 319 320 322 323 324 324 324
305 302 306 308 303 301 296 295 295 292 294 301 301 301 301 302 310 302 309 302 306 297 307 302 299 310 315 316 315 317 317 319 318 319 318 319 319 321 321 322 322 323 323 324
307 301 298 299 299 290 290 288 293 295 299 305 304 301 303 305 305 304 306 300 300 309 302 300 307 313 315 316 316 317 320 319 319 318 320 320 320 322 321 321 323 323 323 325
295 292 286 291 291 295 295 296 299 304 307 305 304 304 299 306 302 305 298 301 304 298 296 299 310 313 314 315 315 316 315 316 317 317 319 318 318 318 321 323 324 324 322 323
294 293 287 294 298 300 301 303 303 305 308 305 303 306 305 302 300 303 300 298 296 300 301 308 313 315 314 313 313 313 313 315 317 317 319 316 317 317 316 319 323 322 319 318
297 293 291 300 300 299 300 303 304 310 310 308 307 304 301 300 302 298 297 296 296 302 308 313 314 314 314 317 317 317 316 317 319 319 320 321 318 315 316 317 322 322 318 317
295 294 302 299 298 298 301 303 304 312 306 304 306 299 297 306 299 298 304 301 305 309 310 313 315 314 315 316 316 316 318 319 319 319 319 320 321 320 318 314 315 315 315 314

GFSNW_sfc_thetae_117.txt.gz
Theta_e
308 308 308 308 308 307 313 318 308 325 325 312 313 309 310 303 312 315 313 313 312 311 311 310 310 309 312 316 316 311 315 311 307 310 314 314 313 309 310 304 303 306 304 302
310 309 309 308 307 307 309 313 312 322 319 306 308 312 310 311 311 312 312 310 312 313 311 308 311 311 315 315 314 313 315 309 303 306 311 313 309 311 311 310 309 303 300 303
310 309 309 308 308 308 312 314 308 316 316 314 312 311 310 309 313 312 313 312 312 311 310 312 310 310 313 314 314 319 314 309 306 302 306 309 307 309 310 308 303 304 304 306
309 309 309 309 308 308 313 316 312 315 312 312 312 311 311 308 308 312 313 311 311 310 308 309 309 312 312 312 311 311 312 306 308 308 308 308 306 306 306 305 307 303 305 304
309 309 309 309 308 307 316 309 312 316 310 313 313 305 309 308 308 310 310 309 312 311 309 311 309 311 312 311 313 311 314 307 308 304 306 306 304 305 306 306 306 305 305 305
309 309 309 309 307 307 313 315 315 309 306 309 307 308 310 309 311 312 313 312 311 310 311 314 316 316 315 314 312 311 311 308 305 300 305 304 300 304 305 306 307 306 303 311
309 308 308 309 307 306 312 314 312 308 303 305 306 307 309 310 311 310 312 312 311 315 319 317 316 314 313 313 313 313 309 309 306 300 303 294 306 311 310 308 309 312 313 315
308 307 307 308 308 307 310 316 312 309 303 305 306 306 308 310 311 311 312 314 316 320 316 309 307 306 308 309 311 311 312 308 302 299 300 303 305 310 309 308 309 314 314 315
309 308 307 306 308 307 309 313 317 310 304 305 307 305 308 306 307 309 311 316 319 317 311 306 301 299 304 303 307 312 311 312 304 303 298 296 308 316 317 315 303 318 317 317
309 309 308 306 307 307 307 311 316 310 304 307 307 305 307 311 308 305 309 311 312 315 307 302 301 301 306 301 302 304 305 305 302 301 299 302 310 318 318 301 307 319 319 319
309 308 308 307 306 306 306 311 315 310 306 307 309 310 308 308 309 305 312 310 310 308 304 302 302 302 304 304 307 306 304 303 302 304 301 298 319 316 309 316 321 320 320 321
309 309 308 308 306 306 305 306 315 314 307 307 312 312 313 312 311 311 313 311 311 312 306 305 306 302 305 306 300 311 302 307 304 306 308 317 319 317 318 320 319 320 321 322
309 309 309 308 307 307 305 306 309 308 307 306 307 307 312 314 312 315 307 311 313 312 317 311 310 307 307 302 304 306 310 313 308 309 312 313 316 319 318 319 319 321 322 322
310 309 309 308 309 308 306 305 309 307 305 299 303 312 309 315 314 312 313 313 315 316 314 310 307 304 311 305 308 307 308 312 310 310 313 313 315 318 319 318 319 319 320 322
310 309 309 309 309 308 306 307 308 310 304 300 303 308 309 311 314 313 312 312 311 309 308 305 304 308 308 308 309 305 310 309 306 304 313 313 314 317 317 316 316 318 319 320
310 309 308 309 308 305 304 302 309 310 309 301 297 308 307 310 310 310 309 311 311 309 306 305 308 312 308 302 301 310 311 313 312 310 314 314 315 317 317 316 317 320 322 323
309 309 308 308 307 306 301 298 303 307 312 301 299 301 308 311 309 308 307 310 309 308 307 307 307 308 309 304 302 310 312 313 313 314 314 312 314 313 317 318 318 320 323 326
308 308 308 307 306 304 301 307 306 308 307 305 298 299 302 309 306 303 308 306 306 307 307 309 306 309 307 303 309 310 312 313 313 314 316 315 318 320 320 320 318 318 322 325
307 307 307 306 303 299 303 312 310 310 306 296 299 297 295 313 308 309 306 307 301 307 304 304 306 304 301 306 310 310 313 312 313 317 317 317 317 318 321 320 319 320 322 324
307 306 301 297 304 313 312 306 305 303 306 301 295 302 299 306 309 306 303 304 302 300 303 307 304 303 309 310 313 314 315 315 316 314 313 315 316 318 319 321 321 322 323 323
304 300 299 311 310 308 306 298 297 300 295 298 301 301 299 305 301 303 309 303 304 298 302 301 301 300 307 313 314 318 318 319 319 319 320 320 319 318 319 321 323 325 325 324
307 306 306 308 305 300 296 295 299 297 296 302 301 301 302 305 311 305 307 293 299 294 305 301 300 305 316 316 316 318 318 319 319 320 320 321 320 321 321 322 324 326 326 327
308 305 301 300 299 291 291 291 295 296 302 306 307 305 304 306 308 306 303 300 298 308 304 301 306 315 318 318 317 317 321 320 320 320 320 321 321 323 323 322 323 325 325 325
301 293 288 293 292 296 297 297 300 308 309 308 309 302 303 305 302 300 296 303 305 298 296 298 310 314 316 316 316 318 317 318 319 318 320 320 322 321 322 324 325 325 324 324
294 294 288 294 300 302 302 304 304 307 310 308 308 307 307 304 301 303 302 297 295 298 298 305 312 316 315 315 315 314 317 318 319 320 319 319 318 317 318 322 324 324 323 323
298 297 294 300 301 301 304 304 304 312 312 312 308 302 301 299 299 298 298 297 293 301 307 312 315 316 315 315 316 315 317 319 319 320 321 320 318 321 319 319 320 320 318 318
298 297 302 300 298 298 302 305 308 314 311 305 306 300 298 303 299 299 305 301 305 309 312 314 316 316 316 319 316 317 319 318 319 320 321 321 322 321 320 314 317 318 318 315

GFSNW_sfc_thetae_120.txt.gz
Theta_e
310 310 310 309 308 307 311 315 309 325 326 310 311 307 311 306 314 316 312 312 312 311 311 310 310 310 314 317 316 311 314 311 305 308 315 316 313 311 310 302 302 305 303 303
310 310 310 309 307 307 308 310 312 321 320 304 307 312 311 313 311 311 311 310 312 313 311 309 311 313 316 316 315 312 315 309 303 305 309 313 310 311 312 310 309 303 299 302
310 309 309 309 308 307 309 312 309 314 314 313 309 310 312 310 313 311 314 312 314 312 310 313 310 311 315 316 314 322 317 310 306 300 304 309 307 309 311 309 303 303 303 306
311 310 310 309 308 307 310 316 310 315 311 314 312 311 310 309 309 313 313 311 310 310 307 309 309 312 313 314 315 314 312 305 307 307 308 308 307 306 307 305 305 301 303 304
311 310 310 309 308 306 313 312 311 313 312 311 313 310 309 309 309 311 310 309 311 311 308 310 309 312 312 311 313 311 312 307 308 304 307 306 303 305 306 305 305 304 305 305
311 311 310 310 307 306 312 315 316 312 306 307 307 307 308 309 311 312 313 313 312 310 313 315 316 317 317 315 313 312 312 308 306 301 306 304 299 304 305 306 308 307 302 308
310 309 309 309 308 306 308 313 310 307 303 305 305 308 309 309 312 311 313 314 312 316 320 319 317 315 315 313 312 314 311 312 308 301 303 294 304 310 310 308 309 311 311 314
310 309 309 309 309 308 306 312 310 308 304 306 307 307 308 311 312 311 312 316 317 319 316 310 307 307 308 308 310 311 312 309 303 299 299 302 305 310 309 308 308 315 313 315
310 309 309 308 309 308 306 312 316 310 303 304 310 307 308 306 307 308 310 316 318 316 310 307 301 298 302 302 306 312 311 316 305 302 296 294 307 315 317 316 305 318 319 318
310 310 309 308 308 308 305 308 315 309 304 307 308 306 306 311 310 305 309 311 311 315 307 302 300 299 305 300 301 305 306 307 302 301 299 302 309 312 319 303 308 319 319 318
310 309 309 309 308 307 306 307 316 310 306 308 310 310 306 308 310 307 310 310 309 308 305 304 303 301 303 303 308 306 305 304 302 304 299 297 319 316 310 318 321 319 319 319
310 309 309 309 308 307 306 305 315 315 308 307 312 312 313 312 311 308 309 310 312 312 308 307 305 302 304 306 299 312 304 309 306 308 308 319 320 318 321 321 318 319 319 320
310 310 309 309 309 309 306 304 309 309 305 305 307 306 312 314 312 312 304 308 313 312 315 310 309 306 309 302 302 307 311 315 308 312 313 315 318 323 320 320 318 319 320 319
310 310 310 309 310 309 307 304 309 308 305 299 303 313 310 315 315 313 311 308 311 312 311 308 307 304 310 305 307 307 309 311 310 311 314 314 316 316 319 318 320 319 319 319
310 310 310 309 310 309 307 307 308 310 304 298 302 307 311 313 313 312 312 310 308 307 305 304 303 307 306 307 308 305 310 310 305 306 314 314 319 319 317 316 317 318 317 317
310 310 309 309 310 308 304 301 310 311 309 301 297 309 308 310 311 309 308 310 309 307 305 304 306 310 306 301 302 310 310 313 313 312 314 315 317 318 317 316 316 318 318 319
309 309 309 309 308 306 299 299 302 307 309 300 298 301 308 309 309 308 307 309 307 307 305 305 304 305 306 302 301 309 311 313 314 316 315 312 314 312 316 317 318 317 318 321
308 309 308 308 307 305 301 306 307 307 304 303 298 299 302 311 305 304 309 304 306 305 304 306 304 305 306 300 306 308 312 315 314 314 316 315 316 316 316 320 319 316 317 319
308 307 307 307 303 300 304 312 309 310 305 299 299 295 295 310 307 307 307 308 300 306 303 303 305 302 299 304 308 310 312 314 313 314 314 314 313 314 318 318 319 318 317 319
308 306 300 296 302 312 311 306 303 303 305 303 297 301 297 304 303 304 306 305 301 299 301 306 302 301 307 308 312 313 312 315 314 313 312 314 314 316 317 318 318 320 319 321
304 300 298 309 311 306 304 298 296 299 296 301 300 301 298 304 298 302 308 301 301 296 299 298 298 298 306 311 311 310 312 312 317 316 316 317 317 316 317 318 320 321 315 317
306 304 308 309 306 301 296 295 298 297 295 301 300 302 303 303 307 306 306 299 300 295 305 299 296 303 309 308 311 313 312 312 316 317 317 320 320 319 320 319 320 318 317 318
308 304 299 298 300 291 291 290 294 296 301 305 307 304 306 306 306 305 303 296 292 300 297 296 300 308 307 306 305 317 319 320 319 320 321 320 322 323 322 322 324 325 322 325
299 295 289 292 292 295 297 296 297 302 307 306 306 306 305 306 303 304 296 300 303 294 294 298 308 312 313 313 317 319 318 318 319 319 319 320 321 321 322 324 325 324 321 324
296 295 289 294 299 301 303 305 304 306 310 308 307 307 307 303 301 303 299 297 295 298 295 304 310 314 316 316 316 316 316 317 319 319 317 318 320 320 321 321 317 317 321 322
298 296 295 300 300 301 304 304 304 310 310 312 309 303 301 299 302 299 297 296 292 298 307 312 315 315 314 315 315 315 319 319 318 318 320 318 319 318 317 317 318 319 319 319
298 298 302 300 300 301 302 306 307 315 309 302 305 299 297 302 298 296 297 298 305 310 313 317 318 316 316 315 314 314 319 320 321 322 321 320 321 321 317 316 318 317 317 316